[[{"header":{"parameterUnit":"m.s-1","parameterCategory":1,"la1":30.6,"la2":28.766,"lo1":-90.7593,"lo2":-88.6598,"dy":0.0162,"dx":0.0183,"nx":116,"ny":114,"refTime":"2024-04-13T12:00:00:Z","depth":0,"parameterNumber":2,"parameterNumberName":"U-component_of_WINDS"},"data":[0.0,0.0,0.0,0.0,0.0,0.0,0.0,0.0,0.0,0.0,0.0,0.0,0.0,0.0,0.0,0.0,0.0,0.0,0.0,0.0,0.0,0.0,0.0,0.0,0.0,0.0,0.0,0.0,0.0,0.0,0.0,0.0,0.0,0.0,0.0,0.0,0.0,0.0,0.0,0.0,0.0,0.0,0.0,0.0,0.0,0.0,0.0,0.0,0.0,0.0,0.0,0.0,0.0,0.0,0.0,0.0,0.0,0.0,0.0,0.0,0.0,0.0,0.0,0.0,0.0,0.0,0.0,0.0,0.0,0.0,0.0,0.0,0.0,0.0,0.0,0.0,0.0,0.0,0.0,0.0,0.0,0.0,0.0,0.0,0.0,0.0,0.0,0.0,0.0,0.0,0.0,0.0,0.0,0.0,0.0,0.0,0.0,0.0,0.0,0.0,0.0,0.0,0.0,0.0,0.0,0.0,0.0,0.0,0.0,0.0,0.0,0.0,0.0,0.0,0.0,0.0,0.0,0.0,0.0,0.0,0.0,0.0,0.0,0.0,0.0,0.0,0.0,0.0,0.0,0.0,0.0,0.0,0.0,0.0,0.0,0.0,0.0,0.0,0.0,0.0,0.0,0.0,0.0,0.0,0.0,0.0,0.0,0.0,0.0,0.0,0.0,0.0,0.0,0.0,0.0,0.0,0.0,0.0,0.0,0.0,0.0,0.0,0.0,0.0,0.0,0.0,0.0,0.0,0.0,0.0,0.0,0.0,0.0,0.0,0.0,0.0,0.0,0.0,0.0,0.0,0.0,0.0,0.0,0.0,0.0,0.0,0.0,0.0,0.0,0.0,0.0,0.0,0.0,0.0,0.0,0.0,0.0,0.0,0.0,0.0,0.0,0.0,0.0,0.0,0.0,0.0,0.0,0.0,0.0,0.0,0.0,0.0,0.0,0.0,0.0,0.0,0.0,0.0,0.0,0.0,0.0,0.0,0.0,0.0,0.0,0.0,0.0,0.0,0.0,0.0,0.0,0.0,0.0,0.0,0.0,0.0,0.0,0.0,0.0,0.0,0.0,0.0,0.0,0.0,0.0,0.0,0.0,0.0,0.0,0.0,0.0,0.0,0.0,0.0,0.0,0.0,0.0,0.0,0.0,0.0,0.0,0.0,0.0,0.0,0.0,0.0,0.0,0.0,0.0,0.0,0.0,0.0,0.0,0.0,0.0,0.0,0.0,0.0,0.0,0.0,0.0,0.0,0.0,0.0,0.0,0.0,0.0,0.0,0.0,0.0,0.0,0.0,0.0,0.0,0.0,0.0,0.0,0.0,0.0,0.0,0.0,0.0,0.0,0.0,0.0,0.0,0.0,0.0,0.0,0.0,0.0,0.0,0.0,0.0,0.0,0.0,0.0,0.0,0.0,0.0,0.0,0.0,0.0,0.0,0.0,0.0,0.0,0.0,0.0,0.0,0.0,0.0,0.0,0.0,0.0,0.0,0.0,0.0,0.0,0.0,0.0,0.0,0.0,0.0,0.0,0.0,0.0,0.0,0.0,0.0,0.0,0.0,0.0,0.0,0.0,0.0,0.0,0.0,0.0,0.0,0.0,0.0,0.0,0.0,0.0,0.0,0.0,0.0,0.0,0.0,0.0,0.0,0.0,0.0,0.0,0.0,0.0,0.0,0.0,0.0,0.0,0.0,0.0,0.0,0.0,0.0,0.0,0.0,0.0,0.0,0.0,0.0,0.0,0.0,0.0,0.0,0.0,0.0,0.0,0.0,0.0,0.0,0.0,0.0,0.0,0.0,0.0,0.0,0.0,0.0,0.0,0.0,0.0,0.0,0.0,0.0,0.0,0.0,0.0,0.0,0.0,0.0,0.0,0.0,0.0,0.0,0.0,0.0,0.0,0.0,0.0,0.0,0.0,0.0,0.0,0.0,0.0,0.0,0.0,0.0,0.0,0.0,0.0,0.0,0.0,0.0,0.0,0.0,0.0,0.0,0.0,0.0,0.0,0.0,0.0,0.0,0.0,0.0,0.0,0.0,0.0,0.0,0.0,0.0,0.0,0.0,0.0,0.0,0.0,0.0,0.0,0.0,0.0,0.0,0.0,0.0,0.0,0.0,0.0,0.0,0.0,0.0,0.0,0.0,0.0,0.0,0.0,0.0,0.0,0.0,0.0,0.0,0.0,0.0,0.0,0.0,0.0,0.0,0.0,0.0,0.0,0.0,0.0,0.0,0.0,0.0,0.0,0.0,0.0,0.0,0.0,0.0,0.0,0.0,0.0,0.0,0.0,0.0,0.0,0.0,0.0,0.0,0.0,0.0,0.0,0.0,0.0,0.0,0.0,0.0,0.0,0.0,0.0,0.0,0.0,0.0,0.0,0.0,0.0,0.0,0.0,0.0,0.0,0.0,0.0,0.0,0.0,0.0,0.0,0.0,0.0,0.0,0.0,0.0,0.0,0.0,0.0,0.0,0.0,0.0,0.0,0.0,0.0,0.0,0.0,0.0,0.0,0.0,0.0,0.0,0.0,0.0,0.0,0.0,0.0,0.0,0.0,0.0,0.0,0.0,0.0,0.0,0.0,0.0,0.0,0.0,0.0,0.0,0.0,0.0,0.0,0.0,0.0,0.0,0.0,0.0,0.0,0.0,0.0,0.0,0.0,0.0,0.0,0.0,0.0,0.0,0.0,0.0,0.0,0.0,0.0,0.0,0.0,0.0,0.0,0.0,0.0,0.0,0.0,0.0,0.0,0.0,0.0,0.0,0.0,0.0,0.0,0.0,0.0,0.0,0.0,0.0,0.0,0.0,0.0,0.0,0.0,0.0,0.0,0.0,0.0,0.0,0.0,0.0,0.0,0.0,0.0,0.0,0.0,0.0,0.0,0.0,0.0,0.0,0.0,0.0,0.0,0.0,0.0,0.0,0.0,0.0,0.0,0.0,0.0,0.0,0.0,0.0,0.0,0.0,0.0,0.0,0.0,0.0,0.0,0.0,0.0,0.0,0.0,0.0,0.0,0.0,0.0,0.0,0.0,0.0,0.0,0.0,0.0,0.0,0.0,0.0,0.0,0.0,0.0,0.0,0.0,0.0,0.0,0.0,0.0,0.0,0.0,0.0,0.0,0.0,0.0,0.0,0.0,0.0,0.0,0.0,0.0,0.0,0.0,0.0,0.0,0.0,0.0,0.0,0.0,0.0,0.0,0.0,0.0,0.0,0.0,0.0,0.0,0.0,0.0,0.0,0.0,0.0,0.0,0.0,0.0,0.0,0.0,0.0,0.0,0.0,0.0,0.0,0.0,0.0,0.0,0.0,0.0,0.0,0.0,0.0,0.0,0.0,0.0,0.0,0.0,0.0,0.0,0.0,0.0,0.0,0.0,0.0,0.0,0.0,0.0,0.0,0.0,0.0,0.0,0.0,0.0,0.0,0.0,0.0,0.0,0.0,0.0,0.0,0.0,0.0,0.0,0.0,0.0,0.0,0.0,0.0,0.0,0.0,0.0,0.0,0.0,0.0,0.0,0.0,0.0,0.0,0.0,0.0,0.0,0.0,0.0,0.0,0.0,0.0,0.0,0.0,0.0,0.0,0.0,0.0,0.0,0.0,0.0,0.0,0.0,0.0,0.0,0.0,0.0,0.0,0.0,0.0,0.0,0.0,0.0,0.0,0.0,0.0,0.0,0.0,0.0,0.0,0.0,0.0,0.0,0.0,0.0,0.0,0.0,0.0,0.0,0.0,0.0,0.0,0.0,0.0,0.0,0.0,0.0,0.0,0.0,0.0,0.0,0.0,0.0,0.0,0.0,0.0,0.0,0.0,0.0,0.0,0.0,0.0,0.0,0.0,0.0,0.0,0.0,0.0,0.0,0.0,0.0,0.0,0.0,0.0,0.0,0.0,0.0,0.0,0.0,0.0,0.0,0.0,0.0,0.0,0.0,0.0,0.0,0.0,0.0,0.0,0.0,0.0,0.0,0.0,0.0,0.0,0.0,0.0,0.0,0.0,0.0,0.0,0.0,0.0,0.0,0.0,0.0,0.0,0.0,0.0,0.0,0.0,0.0,0.0,0.0,0.0,0.0,0.0,0.0,0.0,0.0,0.0,0.0,0.0,0.0,0.0,0.0,0.0,0.0,0.0,0.0,0.0,0.0,0.0,0.0,0.0,0.0,0.0,0.0,0.0,0.0,0.0,0.0,0.0,0.0,0.0,0.0,0.0,0.0,0.0,0.0,0.0,0.0,0.0,0.0,0.0,0.0,0.0,0.0,0.0,0.0,0.0,0.0,0.0,0.0,0.0,0.0,0.0,0.0,0.0,0.0,0.0,0.0,0.0,0.0,0.0,0.0,0.0,0.0,0.0,0.0,0.0,0.0,0.0,0.0,0.0,0.0,0.0,0.0,0.0,0.0,0.0,0.0,0.0,0.0,0.0,0.0,0.0,0.0,0.0,0.0,0.0,0.0,0.0,0.0,0.0,0.0,0.0,0.0,0.0,0.0,0.0,0.0,0.0,0.0,0.0,0.0,0.0,0.0,0.0,0.0,0.0,0.0,0.0,0.0,0.0,0.0,0.0,0.0,0.0,0.0,0.0,0.0,0.0,0.0,0.0,0.0,0.0,0.0,0.0,0.0,0.0,0.0,0.0,0.0,0.0,0.0,0.0,0.0,0.0,0.0,0.0,0.0,0.0,0.0,0.0,0.0,0.0,0.0,0.0,0.0,0.0,0.0,0.0,0.0,0.0,0.0,0.0,0.0,0.0,0.0,0.0,0.0,0.0,0.0,0.0,0.0,0.0,0.0,0.0,0.0,0.0,0.0,0.0,0.0,0.0,0.0,0.0,0.0,0.0,0.0,0.0,0.0,0.0,0.0,0.0,0.0,0.0,0.0,0.0,0.0,0.0,0.0,0.0,0.0,0.0,0.0,0.0,0.0,0.0,0.0,0.0,0.0,0.0,0.0,0.0,0.0,0.0,0.0,0.0,0.0,0.0,0.0,0.0,0.0,0.0,0.0,0.0,0.0,0.0,0.0,0.0,0.0,0.0,0.0,0.0,0.0,0.0,0.0,0.0,0.0,0.0,0.0,0.0,0.0,0.0,0.0,0.0,0.0,0.0,0.0,0.0,0.0,0.0,0.0,0.0,0.0,0.0,0.0,0.0,0.0,0.0,0.0,0.0,0.0,0.0,0.0,0.0,0.0,0.0,0.0,0.0,0.0,0.0,0.0,0.0,0.0,0.0,0.0,0.0,0.0,0.0,0.0,0.0,0.0,0.0,0.0,0.0,0.0,0.0,0.0,0.0,0.0,0.0,0.0,0.0,0.0,0.0,0.0,0.0,0.0,0.0,0.0,0.0,0.0,0.0,0.0,0.0,0.0,0.0,0.0,0.0,0.0,0.0,0.0,0.0,0.0,0.0,0.0,0.0,0.0,0.0,0.0,0.0,0.0,0.0,0.0,0.0,0.0,0.0,0.0,0.0,0.0,0.0,0.0,0.0,0.0,0.0,0.0,0.0,0.0,0.0,0.0,0.0,0.0,0.0,0.0,0.0,0.0,0.0,0.0,0.0,0.0,0.0,0.0,0.0,0.0,0.0,0.0,0.0,0.0,0.0,0.0,0.0,0.0,0.0,0.0,0.0,0.0,0.0,0.0,0.0,0.0,0.0,0.0,0.0,0.0,0.0,0.0,0.0,0.0,0.0,0.0,0.0,0.0,0.0,0.0,0.0,0.0,0.0,0.0,0.0,0.0,0.0,0.0,0.0,0.0,0.0,0.0,0.0,0.0,0.0,0.0,0.0,0.0,0.0,0.0,0.0,0.0,0.0,0.0,0.0,0.0,0.0,0.0,0.0,0.0,0.0,0.0,0.0,0.0,0.0,0.0,0.0,0.0,0.0,0.0,0.0,0.0,0.0,0.0,0.0,0.0,0.0,0.0,0.0,0.0,0.0,0.0,0.0,0.0,0.0,0.0,0.0,0.0,0.0,0.0,0.0,0.0,0.0,0.0,0.0,0.0,0.0,0.0,0.0,0.0,0.0,0.0,0.0,0.0,0.0,0.0,0.0,0.0,0.0,0.0,0.0,0.0,0.0,0.0,0.0,0.0,0.0,0.0,0.0,-6.7301,-6.5852,0.0,0.0,0.0,0.0,0.0,0.0,0.0,0.0,0.0,0.0,0.0,0.0,0.0,0.0,0.0,0.0,0.0,0.0,0.0,0.0,0.0,0.0,0.0,-6.6145,-6.6612,-6.8272,-6.741,-6.7366,-6.8672,-6.7728,0.0,0.0,0.0,0.0,-6.627,-6.6843,-6.7353,-6.7757,-6.8448,-7.044,-7.356,-7.312,-7.1248,-6.8238,0.0,0.0,0.0,0.0,0.0,0.0,0.0,0.0,0.0,0.0,0.0,0.0,0.0,0.0,0.0,0.0,0.0,0.0,0.0,0.0,0.0,0.0,0.0,0.0,0.0,0.0,0.0,0.0,0.0,0.0,0.0,0.0,0.0,0.0,0.0,0.0,0.0,0.0,0.0,0.0,0.0,0.0,0.0,0.0,0.0,0.0,0.0,0.0,0.0,0.0,0.0,0.0,0.0,0.0,0.0,0.0,0.0,0.0,0.0,0.0,0.0,0.0,0.0,0.0,0.0,0.0,0.0,0.0,0.0,0.0,-6.9884,-6.8171,0.0,0.0,0.0,0.0,0.0,0.0,0.0,0.0,0.0,0.0,0.0,0.0,0.0,0.0,0.0,0.0,0.0,0.0,0.0,0.0,0.0,-6.5411,-6.6219,-6.5731,-6.6187,-6.8315,-6.7513,-6.7148,-6.7666,-6.6701,-6.5747,-6.4924,-6.6308,-6.626,-6.4525,-6.6747,-6.8362,-6.9366,-7.1945,-7.4992,-7.8374,-7.9103,-7.7011,-7.2569,-7.1027,0.0,0.0,0.0,0.0,0.0,0.0,0.0,0.0,0.0,0.0,0.0,0.0,0.0,0.0,0.0,0.0,0.0,0.0,0.0,0.0,0.0,0.0,0.0,0.0,0.0,0.0,0.0,0.0,0.0,0.0,0.0,0.0,0.0,0.0,0.0,0.0,0.0,0.0,0.0,0.0,0.0,0.0,0.0,0.0,0.0,0.0,0.0,0.0,0.0,0.0,0.0,0.0,0.0,0.0,0.0,0.0,0.0,0.0,0.0,0.0,0.0,0.0,0.0,-7.6521,-7.6352,-7.5946,-7.5473,-7.5845,-7.669,-7.3599,-7.174,-7.0681,-6.7873,0.0,0.0,0.0,0.0,0.0,0.0,0.0,0.0,0.0,0.0,0.0,0.0,0.0,0.0,0.0,0.0,0.0,0.0,0.0,-6.4567,-6.5375,-6.5478,-6.6938,-7.0541,-6.8535,-6.7912,-6.9917,-6.7555,-6.603,-6.5919,-6.6653,-6.6654,-6.5606,-6.7107,-6.8967,-7.1158,-7.7623,-8.1379,-8.2627,-8.2737,-8.2737,-8.2517,-7.8148,-7.5763,-7.4845,0.0,0.0,0.0,0.0,0.0,0.0,0.0,0.0,0.0,0.0,0.0,0.0,0.0,0.0,0.0,0.0,0.0,0.0,0.0,0.0,0.0,0.0,0.0,0.0,0.0,0.0,0.0,0.0,0.0,0.0,0.0,0.0,0.0,0.0,0.0,0.0,0.0,0.0,0.0,0.0,0.0,-7.1582,-7.0939,0.0,0.0,0.0,0.0,0.0,0.0,0.0,0.0,0.0,0.0,0.0,0.0,0.0,-7.5709,-7.7536,-8.0175,-8.0885,-7.9634,-8.2813,-8.3287,-8.1393,-8.1934,-8.1934,-8.1494,-8.0764,0.0,-7.3575,-7.2518,0.0,0.0,0.0,0.0,0.0,0.0,0.0,0.0,0.0,0.0,0.0,0.0,0.0,0.0,0.0,0.0,0.0,0.0,0.0,0.0,0.0,-6.8181,-7.0413,-7.4485,-7.5367,-7.4625,-7.2113,-7.1146,-6.8902,-6.4842,-6.5271,-6.541,-6.5016,-6.8599,-7.3243,-7.8866,-8.3835,-8.6921,-8.8169,-8.8647,-8.905,-8.9271,-8.6628,-8.2737,-7.8148,-7.7524,0.0,0.0,0.0,0.0,0.0,0.0,0.0,0.0,0.0,0.0,0.0,0.0,0.0,0.0,0.0,0.0,0.0,0.0,0.0,0.0,0.0,0.0,0.0,0.0,0.0,0.0,0.0,0.0,0.0,0.0,0.0,0.0,0.0,0.0,0.0,0.0,0.0,0.0,0.0,-7.0208,-7.1819,-7.0263,-6.9857,-6.8335,0.0,0.0,0.0,0.0,0.0,0.0,0.0,0.0,0.0,-7.8111,-7.9837,-8.1629,-8.3592,-8.5723,-8.6467,-8.5824,-8.7042,-8.6907,-8.5554,-8.5892,-8.5621,-8.4911,-8.415,-8.2326,-7.9515,-7.5701,-7.1828,-6.797,0.0,0.0,0.0,0.0,-6.2731,-6.3687,0.0,0.0,0.0,0.0,0.0,0.0,0.0,0.0,0.0,0.0,0.0,0.0,-6.9155,-7.1753,-7.4867,-7.9038,-8.1455,-8.0849,-7.6409,-7.495,-7.1886,-6.6505,-6.5532,-6.5337,-6.5902,-7.1875,-7.8552,-8.582,-8.9271,-9.1803,-9.3418,-9.4042,-9.4446,-9.463,-9.3969,-8.9638,-8.2847,-8.2406,-7.9333,-7.4659,0.0,0.0,0.0,0.0,0.0,0.0,0.0,0.0,0.0,0.0,0.0,0.0,0.0,0.0,0.0,0.0,0.0,0.0,0.0,0.0,0.0,0.0,0.0,0.0,0.0,0.0,0.0,0.0,0.0,0.0,0.0,0.0,0.0,0.0,0.0,0.0,0.0,-7.0974,-7.2496,-7.0466,-7.1718,-7.0906,0.0,0.0,0.0,0.0,0.0,0.0,-7.7536,-7.8619,-8.0445,-8.3253,-8.5452,-8.7516,-8.941,-9.0527,-9.1068,-9.1068,-9.0493,-8.985,-8.914,-8.8937,-8.8429,-8.7685,-8.6172,-8.5254,-8.4345,-7.879,-7.4597,-7.1479,-6.8831,-6.6556,-6.4774,-6.5068,-6.569,-6.6534,0.0,0.0,0.0,0.0,0.0,0.0,0.0,0.0,0.0,0.0,0.0,-6.7614,-7.0844,-7.5514,-7.9994,-8.3908,-8.3954,-8.3866,-8.4179,-7.7968,-7.409,-7.3582,-6.9344,-6.7924,-6.9934,-7.7696,-8.4168,-8.9125,-9.3235,-9.6025,-9.7603,-9.764,-9.808,-9.8814,-9.8741,-9.5951,-9.0959,-8.7142,-8.382,-8.0628,-7.4499,0.0,0.0,0.0,0.0,0.0,0.0,0.0,0.0,0.0,0.0,0.0,0.0,0.0,0.0,0.0,0.0,0.0,0.0,0.0,0.0,0.0,0.0,0.0,0.0,0.0,0.0,0.0,0.0,0.0,0.0,0.0,0.0,0.0,0.0,0.0,0.0,0.0,0.0,-7.3443,-7.7063,0.0,0.0,0.0,0.0,-7.4322,-7.5777,-7.8551,-8.2881,-8.4505,-8.7313,-9.1677,-9.1947,-9.2455,-9.33,-9.3368,-9.3402,-9.3402,-9.3368,-9.2962,-9.2184,-9.144,-9.0729,-8.9918,-8.7419,-8.6331,-8.5994,-8.2138,-7.8405,-7.4888,-7.2865,-6.9847,-6.6736,-6.7489,-6.8233,-6.9045,0.0,0.0,0.0,0.0,0.0,-5.9685,-5.9648,-6.0102,-6.0946,-6.2218,-6.6145,-7.066,-7.5469,-8.1741,-8.7247,-9.1253,-9.3345,-9.3014,-8.9702,-8.4203,-7.9915,-7.7356,-7.253,-7.3156,-8.0121,-8.5083,-9.0262,-9.5658,-9.764,-9.9145,-10.0172,-10.0172,-10.0393,-10.0613,-10.0099,-9.9181,-9.7787,-9.4299,-8.9823,-8.4664,-7.9837,-7.3871,0.0,0.0,0.0,0.0,0.0,0.0,0.0,0.0,0.0,0.0,0.0,0.0,0.0,0.0,0.0,0.0,0.0,0.0,0.0,0.0,0.0,0.0,0.0,0.0,0.0,0.0,0.0,0.0,0.0,0.0,0.0,0.0,0.0,0.0,0.0,0.0,0.0,-7.7739,-8.0919,0.0,-7.7773,-7.9194,-8.0513,-8.1021,-8.3355,-8.6264,-8.9782,-9.0966,-9.2455,-9.4518,-9.5533,-9.5905,-9.5702,-9.5702,-9.5702,-9.5702,-9.4755,-9.3909,-9.3131,-9.188,-9.0628,-8.9342,-8.7034,-8.5729,-8.5088,-8.2792,-8.0427,-7.8018,-7.6594,-7.4289,-7.1819,-7.1582,-7.1684,-7.1887,0.0,0.0,0.0,0.0,0.0,-5.8253,-5.9074,-5.9404,-6.0652,-6.3686,-6.8531,-7.4001,-7.9984,-8.7105,-9.2868,-9.6392,-9.8668,-9.8339,-9.4706,-8.7899,-8.2928,-8.0597,-7.6236,-7.7763,-8.6004,-8.9895,-9.452,-9.9916,-10.098,-10.1898,-10.2705,-10.2999,-10.3182,-10.3109,-10.2889,-10.2705,-10.2595,-10.0393,-9.5691,-8.9312,-8.5009,-7.9754,-7.3791,0.0,0.0,0.0,0.0,0.0,0.0,0.0,0.0,0.0,0.0,0.0,0.0,0.0,0.0,0.0,0.0,0.0,0.0,0.0,0.0,0.0,0.0,0.0,0.0,0.0,0.0,0.0,0.0,0.0,0.0,0.0,0.0,0.0,0.0,-7.587,-7.9837,-8.0818,-8.4674,-8.6196,-8.3456,-8.5452,-8.7211,-8.7955,-9.0087,-9.2455,-9.4958,-9.5528,-9.6147,-9.6855,-9.7678,-9.7686,-9.6947,-9.6914,-9.6813,-9.6511,-9.5458,-9.4469,-9.3579,-9.2153,-9.075,-8.9309,-8.6839,-8.5486,-8.4877,-8.3013,-8.1491,-8.0157,-7.8907,-7.713,-7.527,-7.4255,-7.3713,-7.3375,0.0,0.0,0.0,0.0,0.0,-5.829,-5.9111,-5.9905,-6.1851,-6.6035,-7.1541,-7.7524,-8.4022,-9.1289,-9.6685,-9.9035,-9.9218,-9.9145,-9.9071,-8.8676,-8.272,-8.3361,-8.0571,-8.1636,-8.7252,-9.2134,-9.6906,-10.1677,-10.3293,-10.4504,-10.5201,-10.6082,-10.6486,-10.6486,-10.7294,-10.6706,-10.5201,-10.5201,-10.1291,-9.4786,-8.9634,-8.6351,-8.3438,0.0,0.0,0.0,0.0,0.0,0.0,0.0,0.0,0.0,0.0,0.0,0.0,0.0,0.0,0.0,0.0,0.0,0.0,0.0,0.0,0.0,0.0,0.0,0.0,0.0,0.0,0.0,0.0,0.0,0.0,0.0,0.0,0.0,-7.3501,-7.8706,-8.2644,-8.2761,-8.8542,-9.1687,-8.9557,-9.1991,-9.4019,-9.4729,-9.5473,-9.6521,-9.7975,-9.8056,-9.8375,-9.9078,-9.8488,-9.7757,-9.7028,-9.6962,-9.6631,-9.5869,-9.5494,-9.4679,-9.349,-9.2379,-9.1194,-8.9895,-8.6953,-8.5689,-8.5432,-8.2937,-8.1641,-8.1122,-7.9701,-7.8247,-7.6758,-7.5236,-7.4187,-7.3375,0.0,0.0,0.0,-5.8143,-5.7997,-5.8474,-5.9869,-5.9735,-6.1606,-6.7504,-7.4184,-8.0681,-8.6554,-9.529,-10.12,-10.2485,-10.1494,-10.0099,-9.8337,-8.9306,-8.3798,-8.3434,-8.6518,-9.0592,-9.5658,-9.9365,-10.2485,-10.5091,-10.6706,-10.7587,-10.7807,-10.7991,-10.8101,-10.8101,-10.7771,-10.7697,-10.7697,-10.6523,-10.4609,-10.1694,-9.4598,-8.9375,-8.5116,0.0,0.0,0.0,0.0,0.0,0.0,0.0,0.0,0.0,0.0,0.0,0.0,0.0,0.0,0.0,0.0,0.0,0.0,0.0,0.0,0.0,0.0,0.0,0.0,0.0,0.0,0.0,0.0,0.0,0.0,0.0,-7.364,-7.747,-7.955,-8.3674,-8.7688,-9.0942,-9.3869,-9.5393,-9.4789,-9.6055,-9.6915,-9.709,-9.7313,-9.8148,-9.9604,-9.9185,-9.8953,-9.9152,-9.8984,-9.8552,-9.779,-9.6763,-9.6101,-9.5869,-9.3677,-9.2476,-9.2073,-8.9667,-8.7795,-8.6354,-8.3977,-8.2528,-8.1864,-8.0373,-7.9928,-8.014,-7.9769,-7.8691,-7.7275,-7.6298,-7.4686,-7.2714,0.0,0.0,0.0,-5.8143,-5.7997,-5.8547,-6.0162,-6.0015,-6.2401,-6.9926,-7.6093,-8.2443,-8.9491,-9.6502,-10.109,-10.2301,-9.9989,-9.7456,-9.4997,-8.8096,-8.4499,-8.538,-9.0225,-9.5144,-9.9989,-10.3293,-10.5605,-10.689,-10.8505,-10.9312,-10.9312,-10.9606,-10.979,-10.979,-10.9312,-10.9202,-10.9202,-10.8285,-10.7183,-10.5673,-10.0312,-9.5874,-9.1705,-8.5686,-8.1755,-7.8934,-7.4177,-7.2202,-7.1447,-6.8917,0.0,0.0,0.0,0.0,0.0,0.0,0.0,0.0,0.0,0.0,0.0,0.0,0.0,0.0,0.0,0.0,0.0,0.0,0.0,0.0,0.0,0.0,0.0,0.0,-7.7298,-8.1691,-8.5225,-8.7883,-9.088,-9.4753,-9.6455,-9.7623,-9.8254,-9.8784,-9.9018,-9.8953,-9.9019,-9.9383,-10.0319,-9.9611,-9.92,-9.92,-9.8924,-9.8224,-9.7207,-9.6228,-9.5407,-9.4782,-9.2504,-9.1272,-9.1094,-8.8895,-8.6987,-8.534,-8.3443,-8.1997,-8.0861,-7.9475,-7.9198,-7.958,0.0,0.0,0.0,0.0,-7.3774,-7.2089,0.0,0.0,0.0,-5.8143,-5.807,-5.8657,-6.0162,-6.0493,-6.3686,-7.2532,-7.7341,-8.3214,-9.1877,-9.5951,-9.8557,-9.9916,-9.6502,-9.3161,-9.0519,-8.6591,-8.5783,-8.9014,-9.3235,-9.7603,-10.2081,-10.5275,-10.7294,-10.7991,-10.9496,-11.0304,-11.0377,-11.1001,-11.1295,-11.1295,-11.1221,-11.0817,-11.0083,-11.0083,-10.9276,-10.7697,-10.6023,-10.3498,-10.0093,-9.2735,-8.9361,-8.7678,-8.0386,-7.6578,-7.4748,-7.2993,0.0,0.0,0.0,0.0,0.0,0.0,0.0,0.0,0.0,0.0,0.0,0.0,0.0,0.0,0.0,0.0,0.0,0.0,0.0,0.0,0.0,0.0,0.0,0.0,-8.1213,-8.5571,-8.9858,-9.1249,-9.2931,-9.5672,-9.7359,-9.8681,-9.9901,-10.0067,-10.0102,-10.0204,-10.0102,-10.0102,-10.0204,-9.9479,0.0,0.0,0.0,-9.7379,-9.6084,-9.5461,-9.446,-9.3093,-9.1435,-9.0371,-8.9858,-8.8675,-8.7112,-8.5234,-8.3933,-8.2552,-8.1016,-7.9515,-7.8955,-7.8916,-7.7663,-7.7061,-7.6559,-7.3666,-7.2161,-7.1506,0.0,0.0,0.0,-5.8143,-5.8547,-5.9294,-6.0272,-6.0933,-6.4347,-7.2606,-7.7818,-8.3398,-9.0335,-9.5731,-9.8741,-9.8374,-9.5878,-9.2684,-8.8904,-8.9601,-9.1657,-9.4923,-10.0209,-10.41,-10.6418,-10.8982,-11.0304,-11.0487,-11.1478,-11.2286,-11.2873,-11.2396,-11.2212,-11.2102,-11.1515,-11.1111,-11.1001,-11.1001,-11.0414,-10.9386,-10.8388,-10.5491,-10.1527,-9.8414,-9.5742,-9.3237,-9.0339,-8.8477,-8.6928,-8.4019,-8.1095,-7.849,-7.6999,-7.2314,0.0,0.0,0.0,0.0,0.0,0.0,0.0,0.0,0.0,0.0,0.0,0.0,0.0,0.0,0.0,0.0,0.0,0.0,0.0,-7.8569,-8.2987,-8.7008,-9.0131,-9.27,-9.489,-9.6548,-9.8096,-9.8904,-9.8562,-9.8523,-9.8808,-9.9409,-9.8846,-9.8808,-9.9409,-9.8704,-9.8308,-9.8308,-9.7581,-9.7055,-9.6796,-9.4469,-9.2849,-9.1974,-8.935,0.0,-8.629,-8.4919,-8.3155,-8.1127,-8.0866,-7.9879,-7.8366,-7.8639,-7.799,-7.6878,-7.6871,-7.6139,-7.4856,-7.2894,-7.1667,-7.0936,0.0,0.0,0.0,-5.8621,-5.8927,-5.9588,-6.0823,-6.1337,-6.409,-7.0991,-7.5065,-7.9507,-8.5196,-8.872,-9.0335,-8.9491,-8.7582,-8.6444,-8.6407,-9.0188,-9.463,-9.9475,-10.4724,-10.7918,-10.8799,-11.1184,-11.2212,-11.1808,-11.2579,-11.3203,-11.357,-11.3203,-11.28,-11.2396,-11.1992,-11.1588,-11.1221,-11.1221,-11.1001,-11.0487,-10.9312,-10.7415,-10.4983,-10.2279,-9.9411,-9.6595,-9.4973,-9.2789,-9.0502,-8.8474,-8.5611,-8.2581,-8.1266,-7.71,-7.2119,0.0,0.0,0.0,0.0,0.0,0.0,0.0,0.0,0.0,0.0,0.0,0.0,0.0,0.0,-7.0649,-7.2196,0.0,-7.8291,-8.1869,-8.5555,-8.8862,-9.1356,-9.3849,-9.5706,-9.6413,-9.7786,-9.8523,-9.8124,-9.8124,-9.8236,-9.8665,-9.8308,-9.8236,-9.8665,-9.8308,-9.793,-9.7574,-9.7185,-9.6473,-9.5404,-9.3436,-9.1981,-9.0877,-8.8178,-8.6545,-8.598,-8.4543,-8.2832,-8.0886,-8.0886,-7.981,-7.8046,-7.8046,-7.6954,-7.5231,-7.5418,-7.4572,-7.3177,-7.1901,-7.0759,-6.9732,0.0,0.0,0.0,-5.9074,-5.9331,-5.9942,-6.1374,-6.1741,-6.3759,-6.9155,-7.1835,-7.4955,-7.9543,-8.0755,-8.0791,-7.969,-7.969,-8.1342,-8.5049,-9.1363,-9.764,-10.3623,-10.8285,-11.0781,-11.0891,-11.2983,-11.3681,-11.3093,-11.3681,-11.4084,-11.4084,-11.3901,-11.3497,-11.291,-11.2506,-11.1992,-11.1405,-11.1295,-11.1221,-11.1111,-10.9423,-10.8522,-10.7827,-10.4677,-10.1793,-9.9172,-9.7683,-9.4622,-9.1229,-9.067,-8.8192,-8.509,-8.4057,-8.1105,-7.6995,-7.2056,-7.0737,0.0,0.0,0.0,0.0,0.0,0.0,0.0,0.0,-6.7201,-6.7762,-7.178,-7.2912,-7.4093,-7.6964,-7.9112,-8.1576,-8.53,-8.8085,-9.0546,-9.2684,-9.4724,-9.6019,-9.6149,-9.7315,-9.8124,-9.8124,-9.8124,-9.8124,-9.8124,-9.8124,-9.8124,-9.8124,-9.8124,-9.7768,-9.7023,-9.6861,-9.576,-9.3655,-9.2468,-9.114,-8.961,-8.735,-8.6221,-8.6195,-8.488,-8.3244,-8.1391,-8.1093,-8.0069,-7.8569,-7.751,-7.6107,-7.4535,-7.3972,-7.3045,-7.1885,-7.1024,-6.9831,-6.8672,0.0,0.0,0.0,0.0,0.0,-6.0566,-6.1447,-6.2218,-6.42,-6.8495,-7.0513,-7.2863,-7.6276,-7.7378,-7.6974,-7.4698,-8.0277,-8.5013,-8.7619,-9.6502,-10.3586,-10.7918,-11.1405,-11.3497,-11.4194,-11.5185,-11.5699,-11.5589,-11.5699,-11.5699,-11.5699,-11.5002,-11.4598,-11.4488,-11.302,-11.2286,-11.2212,-11.1515,-11.1221,-11.1111,-10.9423,-10.8228,-10.7088,-10.5079,-10.3408,-10.19,-10.0796,-9.7237,-9.3109,-9.359,-9.1077,-8.7811,-8.8292,-8.5375,-8.1021,-7.7164,-7.2868,-6.8436,-6.4275,-6.3057,-6.4005,-6.8267,-6.7861,-6.8707,0.0,-7.6469,-7.5037,-7.9587,-8.1101,-8.1589,-8.1463,-8.3681,-8.6142,-8.7858,-8.9445,-9.1226,-9.3396,-9.5015,-9.6181,-9.6796,-9.7606,-9.8124,-9.8124,-9.8124,-9.8124,-9.8124,-9.8124,-9.8124,-9.8124,-9.8124,-9.7768,-9.7023,-9.6408,-9.508,-9.2943,-9.152,-8.9869,-8.8144,-8.661,-8.536,-8.4385,-8.3566,-8.1992,-7.995,-7.8638,-7.8453,-7.8991,-7.6893,-7.603,-7.5827,-7.3243,-7.215,-7.1819,-7.0428,-6.9401,-6.8606,0.0,0.0,0.0,0.0,0.0,-6.1374,-6.2181,-6.2585,-6.3613,-6.5815,-6.71,-6.8348,-6.9669,-6.9265,-6.8678,-6.8164,-7.5616,-8.2186,-8.6518,-9.6795,-10.4724,-10.9276,-11.2102,-11.3974,-11.4818,-11.5589,-11.6213,-11.669,-11.669,-11.669,-11.669,-11.6397,-11.5406,-11.4084,-11.3387,-11.2579,-11.1698,-11.1295,-11.1221,-11.1111,-10.9423,-10.8315,-10.7195,-10.4728,-10.2024,-9.9177,-9.7055,-9.3307,0.0,-8.9026,-8.7067,-8.5,-8.6131,-8.3756,-7.9837,-7.6521,-7.3409,-7.0669,-6.9113,-6.7827,-6.776,-7.1244,-7.2394,-7.3984,-7.8889,-7.8976,-7.8926,-8.2252,-8.3877,-8.4715,-8.4548,-8.6882,-8.9057,-8.9639,-9.1259,-9.2943,-9.4238,-9.495,-9.5436,-9.5728,-9.6052,-9.6732,-9.7995,-9.8124,-9.8124,-9.8124,-9.8124,-9.8124,-9.8124,-9.7703,-9.712,-9.6408,-9.5517,-9.3894,-9.155,-9.0291,-8.8538,-8.6332,-8.4936,-8.3886,-8.3177,-8.2426,-8.1269,-7.9674,-7.7806,-7.7118,-7.719,-7.5839,-7.4676,-7.3674,-7.2481,-7.1488,-7.0626,-7.003,-6.9069,-6.8076,0.0,0.0,0.0,0.0,0.0,-6.2144,-6.2732,-6.278,-6.3025,-6.3649,-6.4237,-6.453,-6.431,-6.3209,-6.2732,-6.3356,-7.1101,-7.8589,-8.4719,-9.5327,-10.388,-10.9386,-11.2176,-11.4084,-11.5112,-11.592,-11.6617,-11.7204,-11.7204,-11.7094,-11.6911,-11.6911,-11.592,-11.4194,-11.3791,-11.2983,-11.1808,-11.1405,-11.1111,-11.0707,-10.9092,-10.7697,-10.6187,-10.2986,-9.9015,-9.4948,-9.2776,-8.8721,-8.4211,-8.2736,-8.085,-7.9498,-8.0963,-7.9522,-7.6792,-7.439,-7.2056,-7.0297,-7.05,-7.0534,-7.1142,-7.3781,-7.6454,-7.8855,-8.0547,-8.1359,-8.2353,-8.4488,-8.5706,-8.6456,-8.6807,-8.8601,-9.0222,-9.0805,-9.2392,-9.3849,-9.4756,-9.4886,-9.4756,-9.4368,-9.4303,-9.4853,-9.6213,-9.6894,-9.7379,-9.7768,-9.78,-9.78,-9.78,-9.7282,-9.6505,-9.5404,-9.4543,-9.2858,-9.006,-8.9253,-8.7628,-8.5101,-8.3869,-8.311,-8.2693,-8.1472,-8.0435,-7.9491,-7.7632,-7.6589,-7.6136,-7.5265,-7.395,-7.2449,-7.1902,-7.1024,-7.003,-6.9633,-6.8837,-6.7976,0.0,0.0,0.0,0.0,0.0,-6.2743,-6.278,-6.278,-6.278,-6.2842,-6.2853,-6.2585,-6.1777,-6.1667,-6.163,-6.1667,-6.8385,-7.5726,-8.2994,-9.2611,-10.1274,-10.8505,-11.1882,-11.4305,-11.5883,-11.6801,-11.7204,-11.7204,-11.7204,-11.6801,-11.5993,-11.5993,-11.5993,-11.5883,-11.4305,-11.357,-11.3387,-11.1882,-11.0707,-10.99,-10.8285,-10.6192,-10.3623,-9.9382,-9.4607,-9.01,-8.9755,-8.496,-7.8392,-7.5924,-7.342,-7.158,-7.3076,-7.3101,-7.2428,-7.165,-6.8301,-6.4986,-6.5696,-6.8538,-7.2157,-7.5879,-7.9532,-8.2813,-8.508,-8.5587,-8.6101,-8.7706,-8.757,-8.7414,-8.8188,-8.8471,-8.9251,-9.1323,-9.2295,-9.3299,-9.4691,-9.4886,-9.44,-9.304,-9.2878,-9.2619,-9.1971,-9.3785,-9.5566,-9.6926,-9.7023,-9.7023,-9.7023,-9.6991,-9.6019,-9.3947,-9.3849,-9.2133,-8.8603,-8.8538,-8.7273,-8.4695,-8.3914,-8.3378,-8.2982,-8.0448,-7.9265,-7.9134,-7.7887,-7.7226,-7.6881,-7.5757,-7.468,-7.3551,-7.1688,-7.0891,-7.0693,-6.9235,-6.8705,-6.8572,0.0,0.0,0.0,0.0,0.0,0.0,-6.278,-6.278,-6.278,-6.278,-6.278,0.0,0.0,0.0,0.0,0.0,-6.8128,-7.3891,-7.9029,-8.9014,-9.7236,-10.2889,-10.8285,-11.1992,-11.3607,-11.4378,-11.5296,-11.6397,-11.6397,-11.6287,-11.5993,-11.6507,-11.592,-11.4378,-11.3791,-11.2983,-11.1919,-11.0891,-10.99,-10.8982,-10.6192,-10.3696,-10.1087,-9.7405,-9.153,-8.4925,0.0,-7.7638,-7.2665,-6.9703,-6.7728,-6.6745,-6.7849,-6.7301,-6.5969,-6.4336,-6.5628,-6.7861,-6.9079,-7.2868,-7.7367,-8.1088,-8.4099,-8.6433,-8.7685,-8.8361,-8.8745,-8.8813,-8.7218,-8.5905,-8.6132,-8.6732,-8.734,-8.8053,-9.0773,-9.2781,-9.2781,-9.359,-9.3137,-9.0287,-9.0773,-9.0676,-8.9024,-9.168,-9.4076,-9.5501,-9.5598,-9.5598,-9.5598,-9.5145,-9.4335,-9.3169,-9.1946,-9.0455,-8.8506,-8.7337,-8.5772,-8.3975,-8.2491,-8.1491,-8.0853,-7.9491,-7.8572,-7.8015,-7.624,-7.5437,-7.5411,-7.3569,-7.2481,-7.1804,-7.1141,-7.0593,-7.0096,-6.9599,-6.9103,-6.8572,0.0,0.0,0.0,0.0,0.0,0.0,0.0,0.0,0.0,0.0,0.0,0.0,0.0,0.0,0.0,0.0,0.0,-7.0587,-7.4852,-8.3434,-9.0629,-9.5768,-10.0503,-10.3696,-10.4981,-10.5275,-10.6596,-10.9092,-10.9973,-11.1111,-11.2579,-11.3717,-11.3497,-11.2286,-11.1992,-11.1295,-11.0193,-10.8505,-10.689,-10.5018,-10.1494,-9.8227,-9.518,-9.151,-8.5846,0.0,-7.5227,-7.1016,-6.6909,-6.4099,-6.2819,-6.2392,-6.2672,-6.2615,-6.2358,-6.1564,-6.5019,-6.9722,-7.2563,-7.6724,-8.119,-8.4911,-8.7313,-8.897,-8.9715,-9.0053,-8.9985,-8.9241,-8.6554,-8.4332,-8.4332,-8.3807,-8.3681,-8.4717,-8.7826,-9.0287,-9.0838,-9.1939,-9.1712,-8.9186,-8.9445,-8.9218,-8.7567,-8.951,-9.155,-9.3234,-9.359,-9.3752,-9.3752,-9.3558,-9.291,-9.168,-9.0552,-8.9318,-8.7954,-8.6488,-8.4981,-8.3405,-8.1687,-8.0493,-7.9772,-7.89,-7.8102,-7.7293,-7.5779,-7.4865,-7.4324,-7.2777,-7.1589,-7.0713,-7.0545,-7.0063,-6.9368,-6.9103,-6.8539,-6.791,0.0,0.0,0.0,0.0,0.0,0.0,0.0,0.0,0.0,0.0,0.0,0.0,0.0,0.0,0.0,0.0,0.0,0.0,-7.0559,-7.624,-8.1856,-8.7288,-8.9344,-9.0776,-9.1693,-9.0996,-9.2537,-9.6502,-9.8814,-10.1898,-10.5789,-10.7294,-10.8395,-10.8982,-10.8285,-10.7918,-10.7697,-10.4504,-10.1384,-9.8227,-9.4263,-9.0262,-8.6297,-8.237,-7.7952,-7.3374,-6.9785,-6.5731,-6.171,-5.9599,-5.8912,-5.8841,-5.8197,-5.9659,-6.1907,-6.3463,-6.6576,-7.0669,-7.5743,-7.987,-8.3558,-8.7211,-8.9207,-9.0425,-9.1102,-9.0696,-8.9951,-8.9004,-8.5505,-8.2532,-8.231,-7.9748,-7.8564,-8.1382,-8.3875,-8.6433,-8.9251,-9.0287,-9.0449,-8.9639,-8.9024,-8.8312,-8.7437,-8.7405,-8.8247,-9.0222,-9.1097,-9.1518,-9.1583,-9.2198,-9.1647,-8.9607,-8.9511,-8.8636,-8.6906,-8.6092,-8.4776,-8.2917,-8.1508,-8.046,-7.9674,-7.8574,-7.7717,-7.6992,-7.6399,-7.5275,-7.3782,-7.3176,-7.1969,-7.0419,-6.9968,-6.9368,-6.8672,-6.7943,-6.7168,-6.6784,0.0,0.0,0.0,0.0,0.0,0.0,0.0,0.0,0.0,0.0,0.0,0.0,0.0,0.0,0.0,0.0,0.0,0.0,-6.4861,-7.0881,-7.5542,-7.8185,-8.3911,-8.7692,-8.9124,-9.0115,-9.173,-9.4006,-9.463,-9.5474,-9.6502,-9.6906,-9.6906,-9.6502,-9.6282,-9.5841,-9.518,-9.4336,-9.2831,-9.0739,-8.7912,-8.5086,-8.2296,-8.0057,-7.6172,-7.1765,-7.0548,-6.7429,-6.3449,-6.056,-6.0078,-6.0984,-6.2818,-6.4315,-6.5933,-6.8571,-7.236,-7.6352,-7.9363,-8.3287,-8.7076,-8.914,-9.0324,-9.0932,-9.056,-9.0324,-8.9207,-8.5655,-8.1581,-7.7725,-7.4588,-7.5069,-7.6428,-7.7909,-8.3519,-8.8312,-9.0093,-9.1874,-9.1939,-8.9121,-9.0028,-8.9769,-8.6952,-8.7114,-8.7437,-8.747,-8.8603,-8.9542,-9.0093,-8.9801,-8.9348,-8.8797,-8.8019,-8.7397,-8.6906,-8.5327,-8.3655,-8.1845,-8.064,-7.9674,-7.8953,-7.8398,-7.7684,-7.6926,-7.5393,-7.4502,-7.3904,-7.162,-7.038,-6.9968,-6.9864,-6.9666,-6.9434,-6.8672,-6.7943,-6.7268,0.0,0.0,0.0,0.0,0.0,0.0,0.0,0.0,0.0,0.0,0.0,0.0,0.0,0.0,0.0,0.0,0.0,0.0,0.0,-6.5632,-6.8972,-7.0624,-7.4294,-7.6864,-7.8112,-7.8332,-7.991,-8.2994,-8.3728,-8.5343,-8.7802,-8.8169,-8.8243,-8.8169,-8.8169,-8.8096,-8.7912,-8.6848,-8.5453,0.0,0.0,-7.8369,-7.6093,-7.4808,-7.232,-6.9413,-6.9229,-6.7585,-6.5478,-6.4945,-6.4522,-6.4607,-6.7192,-6.8789,-7.0398,-7.3747,-7.7198,-8.0547,-8.3456,-8.6535,-8.9309,-9.0797,-9.1237,-9.0763,-8.8734,-8.7989,-8.6298,-8.1122,-7.7244,-7.37,-7.0187,-7.1424,-7.3298,-7.4247,-8.0766,-8.6531,-8.8862,-9.1032,-9.1777,-9.0125,-9.0967,-9.0643,-8.8053,-8.815,-8.8085,-8.7373,-8.7761,-8.8085,-8.8182,-8.8376,-8.8279,-8.7792,-8.6752,-8.5837,-8.5017,-8.408,-8.3022,-8.1701,-8.0517,-7.9688,-7.9117,-7.8211,-7.733,-7.6432,-7.4864,-7.3807,-7.3078,-7.109,-7.0096,-6.9765,-6.9434,-6.9103,-6.8738,-6.8009,-6.7281,-6.6585,0.0,0.0,0.0,0.0,0.0,0.0,0.0,0.0,0.0,0.0,-6.1851,-6.1006,0.0,0.0,0.0,0.0,0.0,0.0,0.0,0.0,-6.3135,-6.4604,-6.409,-6.4127,-6.4971,-6.3734,-6.5264,-6.9633,-7.1138,-7.4404,-7.925,-7.9837,-8.0498,-8.1158,-8.1158,-8.1599,-8.2223,-8.0241,-7.8589,-7.7047,-7.4221,-7.1725,-6.9706,0.0,0.0,-6.7266,-6.7238,-6.7146,-6.7547,-7.0476,-7.0303,-6.9248,-7.1819,-7.3646,-7.5506,-7.8991,-8.1426,-8.3761,-8.7211,-8.914,-9.0527,-9.1913,-9.1711,-9.0188,-8.6467,-8.4877,-8.2441,-7.6386,-7.2982,-7.0235,-6.7364,-6.8394,-7.0104,-7.146,-7.7495,-8.3357,-8.7275,-8.9445,-9.0838,-9.1485,-9.1647,-9.1129,-8.9737,-8.9575,-8.9251,-8.8409,-8.7761,-8.7178,-8.6627,-8.7502,-8.7598,-8.6646,-8.5648,-8.4255,-8.2639,-8.2963,-8.272,-8.1909,-8.0687,-8.0053,-7.9763,-7.8089,-7.6875,-7.5971,-7.4632,-7.331,-7.2084,-7.1123,-7.0361,-6.9732,-6.9103,-6.8407,-6.7678,-6.6949,-6.6187,-6.5558,0.0,0.0,0.0,0.0,0.0,0.0,0.0,0.0,0.0,0.0,-6.3282,-6.1006,0.0,0.0,0.0,0.0,0.0,0.0,0.0,0.0,0.0,-6.1263,-6.1741,-6.2401,-6.322,-6.431,-6.5632,-6.7136,-6.8054,-6.9045,-7.0,-6.9449,-6.9302,-6.9449,-6.9449,-6.9889,-7.0624,-7.0881,-7.0844,-7.055,-6.9963,-6.9082,-6.8091,0.0,0.0,0.0,-6.7294,-6.7724,-6.9035,-7.2713,-7.3731,-7.4153,-7.8247,-8.0581,-8.2137,-8.4065,-8.5351,-8.6535,-8.8395,-8.9545,-9.0425,-9.1271,-9.0932,-8.941,-8.5689,-8.3287,-8.0006,-7.3443,-7.0174,-6.7247,-6.3022,-6.5324,-6.9057,-7.2635,-7.7722,-8.3292,-8.9218,-9.0352,-9.0643,-9.0773,-9.1323,-9.1129,-8.9737,-8.9575,-8.9024,-8.7696,-8.7502,-8.7501,-8.7626,-8.6526,-8.565,-8.5115,-8.4337,-8.3551,-8.2574,-8.293,-8.257,-8.1584,-8.0435,-7.9828,-7.9706,-7.7872,-7.6959,-7.6696,-7.4283,-7.3144,-7.278,-7.0792,-6.9898,-6.9765,-6.9666,-6.9169,-6.8407,-6.7711,-6.6904,-6.6254,0.0,0.0,0.0,0.0,0.0,0.0,0.0,-6.3686,-6.42,-6.7871,-6.6623,-6.4457,-6.2034,-5.9869,-5.8437,0.0,0.0,0.0,0.0,0.0,0.0,0.0,0.0,0.0,-6.1557,-6.2365,-6.3356,-6.4567,0.0,-6.4971,-6.5815,-6.4971,-6.4567,-6.4604,-6.5044,-6.5705,-6.6512,-6.732,-6.7907,-6.8274,-6.8274,-6.8017,-6.7687,0.0,0.0,0.0,0.0,-6.7667,-6.8748,-7.1795,-7.4266,-7.6877,-8.1545,-8.4302,-8.5993,-8.6704,-8.7753,-8.8869,-8.9951,-9.0797,-9.144,-9.1778,-9.1034,-8.8632,-8.2543,-7.9701,-7.6149,-6.8301,-6.5631,-6.3616,-6.0056,-6.2979,-6.6635,-6.8788,-7.4257,-8.0248,-8.5948,-8.7696,-8.8959,-9.0417,-9.1226,-9.1129,-8.9737,-8.9899,-8.951,-8.8085,-8.7632,-8.7145,-8.659,-8.555,-8.4673,-8.3959,-8.3393,-8.2797,-8.202,-8.2198,-8.1864,-8.1204,-8.041,-7.9744,-7.9149,-7.7421,-7.6538,-7.63,-7.4052,-7.2879,-7.2415,-7.0958,-7.0129,-6.9765,-6.9368,-6.9003,-6.8606,-6.7877,-6.7102,-6.6485,0.0,0.0,0.0,0.0,0.0,0.0,-6.5448,-6.5301,-6.6219,-7.077,-7.0367,-6.8641,-6.5925,-6.1998,-5.9134,0.0,0.0,0.0,0.0,0.0,0.0,0.0,0.0,0.0,0.0,0.0,0.0,-6.201,-6.1924,0.0,0.0,0.0,0.0,0.0,-6.3429,-6.4273,-6.5118,-6.5888,-6.6696,0.0,0.0,-6.7687,0.0,0.0,0.0,0.0,0.0,-6.7583,-6.8258,-7.0335,-7.3545,-7.7249,-8.1224,-8.4809,-8.7516,-8.7516,-8.8564,-8.9951,-9.1,-9.1846,-9.2387,-9.2218,-9.1068,-8.782,-7.9634,-7.6454,-7.28,-6.4174,-6.1929,-6.0826,-5.8449,-6.0995,-6.3852,-6.5043,-7.0241,-7.607,-8.1705,-8.4231,-8.6595,-8.9575,-9.0546,-9.0579,-8.9445,-8.9834,-8.9575,-8.815,-8.7243,-8.6239,-8.5106,-8.4702,-8.4048,-8.309,-8.2617,-8.2112,-8.1617,-8.1643,-8.1458,-8.0967,-8.0494,-7.9825,-7.8847,-7.7106,-7.622,-7.5931,-7.3772,-7.2597,-7.2016,-7.1072,-7.0328,-6.9732,-6.9136,-6.8837,-6.8606,-6.8076,-6.738,-6.6705,0.0,0.0,0.0,0.0,0.0,0.0,-6.4457,-6.5888,-6.8495,-7.4735,-7.3597,-7.1798,-7.077,-6.7063,-6.2842,0.0,0.0,0.0,0.0,0.0,0.0,0.0,0.0,0.0,0.0,0.0,0.0,-5.9515,-6.1643,0.0,0.0,0.0,0.0,0.0,0.0,-6.3392,-6.4237,-6.5081,0.0,0.0,0.0,0.0,0.0,0.0,0.0,0.0,0.0,-6.7963,-6.8608,-7.0131,-7.2076,-7.4017,-7.516,-8.0344,-8.5993,-8.5993,-8.7042,-8.8666,-9.0729,-9.1846,-9.2252,-9.1575,-9.029,-8.7042,-7.8855,-7.527,-7.1548,-6.3937,-6.1492,-6.0318,-5.9046,-5.9325,-6.1153,-6.5302,-6.7618,-7.1569,-7.9179,-8.1543,-8.381,-8.7308,-8.8344,-8.8733,-8.8603,-8.8668,-8.8117,-8.6725,-8.53,-8.4458,-8.4296,-8.3955,-8.3421,-8.2677,-8.1988,-8.1741,-8.1967,-8.2198,-8.1976,-8.1251,-8.0862,-8.0245,-7.9429,-7.7265,-7.6428,-7.6468,-7.3443,-7.2198,-7.2226,-7.0557,-6.9864,-6.9798,-6.9732,-6.9268,-6.8672,-6.8606,-6.8142,-6.7367,0.0,0.0,0.0,0.0,0.0,0.0,-6.5118,-6.5888,-6.8458,-7.5873,-7.5579,-7.4368,-7.356,-7.1174,-6.688,-6.0052,0.0,0.0,0.0,0.0,0.0,0.0,0.0,0.0,0.0,0.0,-6.119,-6.1349,-6.1851,0.0,0.0,0.0,0.0,0.0,0.0,-6.3759,-6.4163,-6.5485,0.0,0.0,0.0,0.0,0.0,0.0,0.0,0.0,0.0,0.0,-6.7179,-6.7584,-6.8967,-7.0478,-6.9931,-7.3325,-7.8267,-8.2035,-8.4776,-8.7245,-8.9918,-9.1846,-9.2928,-9.2184,-8.985,-8.6095,-7.9701,-7.51,-7.0432,-6.4343,-6.1761,-6.0251,-5.9112,-5.8733,-5.9422,-6.1834,-6.3084,-6.5869,-7.2022,-7.4872,-7.8305,-8.3584,-8.5235,-8.6595,-8.8344,-8.8117,-8.747,-8.6466,-8.5041,-8.4066,-8.3829,-8.3328,-8.29,-8.2639,-8.2067,-8.1737,-8.1598,-8.1679,-8.1233,-8.0245,-8.0112,-7.967,-7.8908,-7.7119,-7.6144,-7.5716,-7.3708,-7.2313,-7.1483,-7.0885,-7.0339,-6.9798,-6.9798,-6.9599,-6.9334,-6.9334,-6.8904,-6.8175,0.0,0.0,0.0,0.0,0.0,-5.9391,-6.4604,-6.5962,-6.8678,-7.5065,-7.6019,-7.5873,-7.5322,-7.2973,-6.9119,-6.3429,-6.1814,0.0,0.0,0.0,0.0,0.0,0.0,0.0,0.0,0.0,-6.1777,-6.2108,-6.2254,-6.1961,0.0,0.0,-6.2071,-6.1667,0.0,0.0,0.0,0.0,0.0,0.0,0.0,0.0,0.0,0.0,0.0,0.0,0.0,0.0,0.0,0.0,0.0,-6.6987,-6.594,-6.7232,-7.0434,-7.7048,-8.1731,-8.5351,-8.7888,-9.0865,-9.3064,-9.2286,-8.9478,-8.5486,-8.004,-7.4897,-6.9755,-6.4309,-6.1828,-6.0291,-5.9272,-5.8584,-5.8418,-5.9166,-6.0129,-6.2307,-6.6647,-6.9561,-7.3318,-7.892,-8.0475,-8.2353,-8.5656,-8.6466,-8.6595,-8.611,-8.4779,-8.3926,-8.3589,-8.2948,-8.2577,-8.2577,-8.2032,-8.1664,-8.1421,-8.1223,-8.0608,-7.9637,-7.9637,-7.9239,-7.8477,-7.6987,-7.6111,-7.565,-7.3841,-7.2492,-7.1398,-7.1094,-7.0581,-6.9893,-6.9846,-6.9798,-6.9798,-6.9798,-6.9334,-6.8572,0.0,0.0,0.0,0.0,0.0,-5.818,-6.2193,-6.6292,-6.9743,-7.2239,-7.4625,-7.6093,-7.6093,-7.1798,-6.8898,-6.8825,-6.5118,0.0,0.0,0.0,0.0,0.0,0.0,0.0,0.0,0.0,-6.119,-6.0419,-6.2879,-6.2805,-6.0456,-6.2915,-6.3172,-6.163,0.0,0.0,0.0,0.0,0.0,0.0,0.0,0.0,-6.7687,0.0,0.0,0.0,0.0,0.0,0.0,0.0,0.0,0.0,0.0,-6.2898,-6.3694,-7.1334,-7.7773,-8.278,-8.4336,-8.8497,-9.2252,-9.1508,-8.9106,-8.5351,-7.9363,-7.4525,-6.962,-6.3632,-6.1458,-6.037,-5.9633,-5.8793,-5.8215,-5.8215,-5.9664,-6.1789,-6.4624,-6.6906,-6.9594,-7.3221,-7.3674,-7.5358,-7.9633,-8.3227,-8.53,-8.53,-8.428,-8.3589,-8.3556,-8.2837,-8.2395,-8.2395,-8.1703,-8.1421,-8.179,-8.1061,-8.0332,-7.9637,-7.9637,-7.9239,-7.8477,-7.6987,-7.6428,-7.652,-7.3624,-7.2519,-7.2544,-7.087,-7.0209,-7.0176,-6.9893,-6.9798,-6.9798,-6.9798,-6.9334,-6.8572,0.0,0.0,0.0,0.0,0.0,0.0,-6.2548,-6.3881,-6.6035,-6.9559,-7.022,-7.1211,-7.3413,-7.0293,-6.8091,-6.8091,-6.4861,0.0,0.0,0.0,0.0,0.0,0.0,0.0,0.0,-6.2438,-6.2879,-6.3759,-6.398,-6.398,-6.3759,-6.398,-6.3503,-6.2438,-6.2695,-6.278,0.0,0.0,0.0,0.0,0.0,-6.6659,-6.6853,0.0,0.0,0.0,0.0,0.0,0.0,0.0,0.0,0.0,0.0,0.0,0.0,-6.4228,-6.9755,-7.5506,-7.8551,-8.1663,-8.3896,-8.3152,-8.1088,-7.8483,-7.5574,-7.1447,-6.7421,-6.4512,-6.2809,-6.1587,-6.0684,-5.9926,-5.972,-6.0511,-6.0745,-6.1271,-6.2631,-6.6809,-7.0662,-7.3253,-7.8758,-8.2798,-8.3825,-8.4744,-8.5198,-8.4897,-8.4109,-8.3481,-8.3198,-8.2198,-8.1637,-8.1637,-8.1665,-8.1182,-8.0332,-8.0067,-7.9604,-7.8875,-7.8875,-7.8477,-7.7749,-7.6755,-7.5813,-7.4886,-7.3305,-7.2267,-7.1685,-7.0951,-7.0502,-7.0176,-7.0082,-6.9941,-6.9798,-6.9798,-6.9334,-6.8572,0.0,0.0,0.0,0.0,0.0,0.0,-6.1814,-6.2695,-6.409,-6.6329,-6.6696,-6.8017,-7.1248,-6.8458,-6.6806,-6.8054,-6.4861,0.0,0.0,0.0,0.0,0.0,0.0,0.0,-6.278,-6.3135,-6.409,-6.5742,-6.6145,-6.6476,-6.6659,-6.6439,-6.5411,-6.3723,-6.3429,-6.3099,0.0,0.0,0.0,0.0,-6.6366,-6.6213,-6.5769,0.0,0.0,0.0,0.0,0.0,0.0,0.0,0.0,0.0,0.0,0.0,0.0,0.0,-6.3802,-6.8132,-7.3037,-7.6826,-7.9329,-7.916,-7.7401,-7.5236,-7.3477,-6.9823,-6.6305,-6.4546,-6.3226,-6.2183,-6.1391,-6.0779,-6.0415,-6.0468,-6.0388,-6.072,-6.1692,-6.561,-6.9367,-7.2055,-7.8758,-8.2993,-8.2579,-8.3735,-8.4482,-8.4487,-8.3797,-8.3296,-8.3224,-8.2099,-8.1345,-8.1081,-8.0984,-8.0531,-7.9583,-7.9339,-7.8974,-7.8511,-7.8246,-7.7848,-7.7384,-7.6357,-7.543,-7.4553,-7.3253,-7.2362,0.0,-7.1169,-7.0733,-7.0456,-7.027,-7.0082,-6.9907,-6.9514,-6.8904,-6.8175,0.0,0.0,0.0,0.0,0.0,0.0,0.0,-6.2438,-6.3576,-6.289,-6.4127,-6.6219,-6.9265,-6.6256,-6.5191,-6.8201,-6.5007,0.0,0.0,0.0,0.0,0.0,0.0,0.0,-6.278,-6.3576,-6.4861,-6.6586,-6.8825,-6.9633,-6.9082,-6.9706,-6.8348,-6.5375,-6.4468,-6.3599,-6.2902,-6.3709,-6.4578,-6.5422,-6.6119,-6.5659,0.0,0.0,0.0,0.0,0.0,0.0,0.0,0.0,0.0,0.0,0.0,0.0,0.0,0.0,0.0,0.0,0.0,-7.3138,-7.7029,-7.7739,-7.6318,-7.4221,-7.2157,-6.9011,0.0,-6.3869,-6.2888,-6.2263,-6.1857,-6.1342,-6.0465,-5.879,-5.9274,-6.0332,-6.1692,-6.4056,-6.6971,-7.0565,-7.5261,-7.7998,-7.7493,-8.0971,-8.3467,-8.4004,-8.3408,-8.3158,-8.3351,-8.2317,-8.1359,-8.0631,-7.9935,-7.9483,-7.9483,-7.8875,-7.8511,-7.8511,-7.7782,-7.7384,-7.7285,-7.5894,-7.5231,-7.505,-7.3387,-7.2692,-7.2524,-7.1396,-7.0916,-7.087,-7.041,-7.019,-7.0043,-6.9031,-6.8208,-6.7446,0.0,0.0,0.0,0.0,0.0,0.0,0.0,0.0,0.0,0.0,-6.2622,-6.2989,-6.4383,-6.3686,-6.3429,0.0,0.0,0.0,0.0,0.0,0.0,0.0,0.0,0.0,-6.278,-6.3025,-6.453,-6.7393,-6.7981,-6.9119,-7.0734,-6.9669,-6.8128,-6.6119,-6.4363,-6.3437,-6.3255,-6.3474,-6.4573,-6.6156,-6.5359,-6.4876,0.0,0.0,0.0,0.0,-6.2717,-6.2891,0.0,0.0,0.0,0.0,0.0,0.0,0.0,0.0,-5.9201,-6.0588,-6.2787,0.0,-6.6102,-6.6271,-6.5899,-6.5392,0.0,-6.4072,-6.3294,-6.2753,-6.2516,-6.2431,-6.2528,-6.1675,-6.1126,-6.148,-6.1422,-6.1627,-6.2502,-6.778,-7.2897,-7.6459,-7.9859,-8.1458,-8.0125,-8.2145,-8.3541,-8.3637,-8.3465,-8.293,-8.1868,-8.1259,-8.0631,-7.9902,-7.9173,-7.8776,-7.8776,-7.861,-7.8511,-7.8511,-7.7782,-7.7119,-7.6523,-7.5662,-7.4668,-7.3592,-7.2986,-7.2376,-7.1821,-7.1411,-7.1086,-7.087,-7.0515,-6.9996,-6.931,-6.8832,-6.8015,-6.701,0.0,0.0,0.0,0.0,0.0,0.0,0.0,0.0,0.0,0.0,-6.2181,-6.2328,-6.2743,-6.278,-6.278,0.0,0.0,0.0,0.0,0.0,0.0,0.0,0.0,-6.278,-6.278,-6.3209,-6.5007,-6.8238,-6.8972,-7.0403,-7.2386,-7.1138,-6.9155,-6.6619,-6.3774,-6.2927,-6.3615,-6.3875,-6.4684,-6.5775,-6.5339,0.0,0.0,0.0,0.0,0.0,-6.1522,-6.1884,0.0,-6.3368,-6.2731,-6.1621,0.0,0.0,0.0,0.0,-5.8693,-5.9776,-6.0554,-6.2042,-6.3497,-6.3835,-6.3903,-6.3802,-6.3497,-6.3159,-6.2821,-6.2448,-6.2381,-6.2398,-6.2293,-6.2141,-6.1811,-6.1185,-6.2073,-6.3635,-6.5999,-7.0792,-7.5261,-7.8499,-8.0572,-8.168,-8.1418,-8.2014,-8.2595,-8.3169,-8.2963,-8.2601,-8.2038,-8.1205,-8.0498,-8.0134,-7.9074,-7.8511,-7.8511,-7.8511,-7.8511,-7.8511,-7.7523,-7.6826,-7.6258,-7.5052,-7.399,-7.3045,-7.2486,-7.1975,-7.1587,-7.1389,-7.1222,-7.1052,-7.0779,-7.008,-6.9182,-6.8585,-6.7754,-6.6845,0.0,0.0,0.0,0.0,0.0,0.0,0.0,0.0,0.0,0.0,0.0,0.0,0.0,0.0,0.0,0.0,0.0,0.0,0.0,0.0,0.0,0.0,-6.278,-6.2853,-6.3025,-6.3576,-6.5411,-6.8531,-7.0146,-7.1704,-7.3157,-7.2607,-7.0259,-6.6417,-6.3271,-6.2456,-6.3555,-6.4028,-6.4441,-6.4831,-6.5106,0.0,0.0,0.0,0.0,0.0,0.0,0.0,0.0,-6.2817,-6.2673,-6.2144,-6.1806,0.0,0.0,0.0,0.0,0.0,-6.0216,-6.2719,-6.5087,-6.5019,-6.5019,-6.4816,-6.4072,-6.3531,-6.299,-6.2347,-6.2313,-6.2364,-6.2307,-6.2857,-6.2623,-6.0591,-6.2737,-6.6161,-7.0436,-7.3437,-7.6062,-7.8435,-7.9685,-8.0659,-8.1443,-8.1304,-8.1675,-8.2827,-8.2428,-8.2272,-8.2585,-8.1359,-8.0598,-8.0366,-7.9173,-7.8511,-7.8511,-7.8511,-7.8444,-7.8345,-7.7248,-7.6483,-7.5927,-7.4273,-7.3226,-7.2713,-7.1952,-7.154,-7.1419,-7.1322,-7.1312,-7.1267,-7.1007,-7.0342,-6.9422,-6.8381,-6.7557,-6.6868,0.0,0.0,0.0,0.0,0.0,0.0,0.0,0.0,0.0,0.0,0.0,0.0,0.0,0.0,0.0,0.0,0.0,0.0,0.0,0.0,0.0,-6.278,-6.278,-6.3172,-6.387,-6.3319,-6.4273,-6.688,-6.8495,-6.9725,-7.0651,-7.1293,-6.9048,-6.4408,-6.3783,-6.3061,-6.2251,-6.2342,-6.3054,-6.3968,-6.2988,0.0,0.0,0.0,0.0,0.0,0.0,0.0,0.0,-6.0102,-6.0789,-6.1129,-5.9201,0.0,0.0,0.0,0.0,0.0,-6.1637,-6.4647,-6.6508,-6.2888,-6.1975,-6.1772,-6.096,-6.1231,-6.1603,-6.1501,-6.1975,-6.2956,-6.4735,-6.4396,-6.3933,-6.4399,-6.6199,-6.9043,-7.335,-7.6131,-7.7779,-7.7916,-8.0164,-8.109,-7.9411,-8.1057,-8.2338,-8.2827,-8.2827,-8.2241,-8.1094,-8.0796,-8.0134,-7.8908,-7.8643,-7.8511,-7.8511,-7.8511,-7.8212,-7.7583,-7.6982,-7.5952,-7.452,-7.3807,-7.2661,-7.1271,-7.1485,-7.1239,-7.0683,-7.112,-7.1312,-7.1267,-7.1007,-7.0399,-6.9615,-6.8426,-6.7781,-6.7396,0.0,0.0,0.0,0.0,0.0,0.0,0.0,0.0,0.0,0.0,0.0,0.0,0.0,0.0,0.0,0.0,0.0,0.0,0.0,0.0,-6.3184,-6.4127,-6.3723,-6.3686,-6.409,-6.4567,-6.6439,-6.9743,-7.1358,-7.2954,-7.4546,-7.1814,-6.838,-6.4508,-6.3108,-6.2158,-6.1648,-6.1894,-6.2413,-6.3026,0.0,0.0,0.0,0.0,0.0,0.0,0.0,0.0,0.0,0.0,-6.0384,-6.096,-5.9099,0.0,0.0,0.0,0.0,0.0,-6.096,-6.3294,-6.5222,-6.3971,-6.4884,-6.5797,-6.458,-6.4309,-6.4174,-6.3768,-6.3937,-6.4478,-6.5493,-6.6115,-6.7181,-6.9469,-7.0225,-7.1634,-7.4743,-7.6317,-7.7446,-7.833,-7.9822,-8.0722,-8.0525,-8.155,-8.2371,-8.2827,-8.235,-8.1655,-8.073,-7.9935,-7.9206,-7.8544,-7.8113,-7.7914,-7.7914,-7.7914,-7.7749,-7.7417,-7.655,-7.5787,-7.4988,-7.3524,-7.2459,-7.1664,-7.1198,-7.077,-7.0515,-7.1052,-7.1312,-7.1267,-7.1176,-7.0569,-6.9704,-6.8741,-6.8047,-6.755,0.0,0.0,0.0,0.0,0.0,0.0,0.0,0.0,0.0,0.0,0.0,0.0,0.0,0.0,0.0,0.0,0.0,0.0,0.0,-6.278,-6.3466,-6.4971,-6.442,-6.453,-6.5485,-6.6696,-6.9119,-7.2789,-7.4555,-7.6283,-7.7739,-7.2473,-6.8327,-6.5299,-6.2879,-6.1513,-6.1052,-6.1396,-6.1651,-6.1825,0.0,0.0,0.0,0.0,0.0,0.0,0.0,0.0,0.0,0.0,0.0,0.0,0.0,0.0,0.0,-5.8964,-5.9336,-6.0452,-6.0791,-6.255,-6.4546,-6.5662,-6.7421,-6.8842,-6.8741,-6.7996,-6.7354,-6.7286,-6.7117,-6.6914,-6.6542,-6.7803,-6.9892,-7.3025,-7.3533,-7.4257,-7.6507,-7.7241,-7.807,-7.9354,-8.0125,-8.0926,-8.1984,-8.2141,-8.2371,-8.286,-8.1963,-8.1137,-8.0498,-7.9372,-7.861,-7.8279,-7.7715,-7.7417,-7.7417,-7.7086,-7.692,-7.6887,-7.6085,-7.5505,-7.5105,-7.3305,-7.2371,-7.2089,-7.1038,-7.0561,-7.0515,-7.1052,-7.1312,-7.1312,-7.1312,-7.0704,-6.9738,-6.9254,-6.8402,-6.7497,0.0,0.0,0.0,0.0,0.0,0.0,0.0,0.0,0.0,0.0,0.0,0.0,0.0,0.0,0.0,0.0,0.0,0.0,0.0,-6.278,-6.3209,-6.4127,-6.4127,-6.5852,-6.9596,-6.9779,-7.1064,-7.3597,-7.5916,-7.6805,-7.6167,-7.2405,-6.9072,-6.6236,-6.4113,-6.2047,-6.0177,-6.0209,-6.0244,-6.0247,-6.0209,0.0,0.0,0.0,0.0,0.0,0.0,0.0,0.0,0.0,0.0,0.0,0.0,0.0,-6.1129,-6.0216,-6.0554,-6.1501,-6.2888,-6.4884,-6.6609,-6.6711,-6.5865,-6.6068,-7.0128,-6.9958,-6.9485,-7.1515,-7.1379,-7.05,-6.9113,-6.924,-7.0413,-7.2912,-7.5132,-7.735,-7.9715,-8.0917,-8.1523,-8.1304,-8.2091,-8.2614,-8.2395,-8.2656,-8.2827,-8.2916,-8.2221,-8.1138,-7.9769,-7.9604,-7.8908,-7.755,-7.745,-7.7417,-7.7417,-7.6092,-7.543,-7.543,-7.5637,-7.4972,-7.3656,-7.2983,-7.2214,-7.1356,-7.1023,-7.0733,-7.0515,-7.1052,-7.1312,-7.1312,-7.1312,-7.0704,-6.9816,-7.0039,-6.8873,-6.7244,0.0,0.0,0.0,0.0,0.0,0.0,0.0,0.0,0.0,0.0,0.0,0.0,0.0,0.0,0.0,0.0,0.0,0.0,0.0,-6.2511,-6.3429,-6.4787,-6.4861,-6.6256,-6.9302,-7.1321,-7.4238,-7.8171,-7.9023,-7.8346,-7.6122,-7.17,-6.7807,-6.4361,-6.2049,-6.0842,-6.0532,-5.9495,-5.9702,-6.0669,-5.9665,-5.925,0.0,0.0,0.0,0.0,0.0,0.0,0.0,0.0,-5.7965,-5.9107,-5.6979,-5.8912,-6.1496,-5.922,-5.9532,-6.0689,-6.1231,-6.3362,-6.5425,-6.5425,-6.6068,-6.759,-7.1176,-7.1921,-7.2191,-7.351,-7.3916,-7.335,-7.1026,-7.1575,-7.2763,-7.4001,-7.6354,-7.8705,-8.046,-8.145,-8.1967,-8.185,-8.2428,-8.277,-8.2452,-8.2713,-8.2718,-8.2254,-8.1128,-8.0001,-7.9007,-7.808,-7.7318,-7.6755,-7.6722,-7.6523,-7.6092,-7.5887,-7.5388,-7.4652,-7.4703,-7.4423,-7.3684,-7.2853,-7.2214,-7.1727,-7.1127,-7.0825,-7.0779,-7.1176,-7.1312,-7.1312,-7.1312,-7.0793,-7.0028,-7.0151,-6.9127,-6.7637,0.0,0.0,0.0,0.0,0.0,0.0,0.0,0.0,0.0,0.0,0.0,0.0,0.0,0.0,0.0,0.0,0.0,0.0,-6.1557,-6.2108,-6.3062,-6.4457,-6.4505,-6.5893,-6.8913,-7.1874,-7.5575,-8.0116,-8.081,-7.943,-7.5931,-7.1242,-6.7324,-6.4153,-6.1615,-6.0829,-6.1279,-5.9901,-5.9869,-6.0735,-5.9322,-5.8943,0.0,0.0,0.0,0.0,0.0,0.0,0.0,0.0,-5.7355,-5.8119,-5.674,-5.8777,-6.1298,-5.9355,-6.003,-6.1322,-6.096,-6.2234,-6.391,-6.4742,-6.5688,-6.7573,-7.209,-7.368,-7.4728,-7.669,-7.6149,-7.4722,-7.2828,-7.2925,-7.3589,-7.4478,-7.6811,-7.9119,-8.0697,-8.1115,-8.1435,-8.1779,-8.2269,-8.2396,-8.1906,-8.2075,-8.1889,-8.1161,-7.9769,-7.8709,-7.8212,-7.7219,-7.6556,-7.6324,-7.6324,-7.5993,-7.5349,-7.5456,-7.5139,-7.4322,-7.4322,-7.4123,-7.3748,-7.2901,-7.2309,-7.1959,-7.1344,-7.0961,-7.0916,-7.1176,-7.1312,-7.1312,-7.1312,-7.0838,-7.0195,-7.0195,-6.9171,-6.78,0.0,0.0,0.0,0.0,0.0,0.0,0.0,0.0,0.0,0.0,0.0,0.0,0.0,0.0,0.0,0.0,0.0,0.0,-6.1557,-6.1594,-6.1961,-6.2743,-6.278,-6.4755,-6.8947,-7.1354,-7.4474,-7.8383,-8.0658,-7.9608,-7.5298,-7.1118,-6.8114,-6.6177,-6.3583,-6.2389,-6.2354,-6.1528,-6.077,-6.0047,-5.9288,-5.9252,-5.9513,0.0,0.0,0.0,0.0,0.0,0.0,0.0,-5.7254,-5.5856,-5.9967,-6.0723,-6.0283,-6.1061,-6.2662,-6.3882,-6.2674,-6.203,-6.2367,-6.5005,-6.4457,-6.5286,-7.2889,-7.5168,-7.6995,-8.1494,-7.828,-7.4661,-7.4627,-7.3116,-7.2399,-7.4123,-7.6299,-7.8535,-8.0599,-8.023,-8.0147,-8.1153,-8.1589,-8.1492,-8.0763,-8.0664,-8.0366,-7.9616,-7.8246,-7.7417,-7.7417,-7.7417,-7.7053,-7.6324,-7.6291,-7.596,-7.5264,-7.4839,-7.4573,-7.4573,-7.4573,-7.4321,-7.3797,-7.3012,-7.2418,-7.2006,-7.148,-7.1176,-7.0916,-7.1222,-7.1312,-7.1312,-7.1312,-7.0838,-7.0161,-7.0161,-6.9083,-6.7584,0.0,0.0,0.0,0.0,0.0,0.0,0.0,0.0,0.0,0.0,0.0,0.0,0.0,0.0,0.0,0.0,0.0,0.0,-6.1557,-6.2144,-6.2548,-6.278,-6.3074,-6.3784,-6.4972,-6.8099,-7.2014,-7.6678,-7.6605,-7.4169,-6.9595,-6.701,-6.4871,-6.3328,-6.2375,-6.2313,-6.2837,-6.0858,-6.0664,-6.1609,-6.0133,-5.9417,-5.9248,0.0,0.0,0.0,0.0,0.0,0.0,0.0,0.0,0.0,-5.6996,-5.9775,-6.2747,-6.0266,-6.0661,-6.1531,-5.9549,-6.0858,-6.2798,-6.3087,-6.6449,-7.0557,-7.3883,-7.5608,-7.7807,-8.2272,-7.987,-7.6826,-7.6318,-7.5104,-7.4255,-7.4439,-7.61,-7.7907,-7.9471,-7.9945,-8.0287,-8.0796,-8.0973,-8.073,-8.0001,-7.9935,-7.9438,-7.8179,-7.7682,-7.7417,-7.7417,-7.692,-7.6523,-7.6324,-7.5827,-7.5231,-7.4553,-7.4689,-7.4471,-7.3773,-7.4165,-7.3956,-7.3298,-7.2873,-7.2291,-7.1526,-7.1368,-7.1267,-7.1176,-7.1267,-7.1007,-7.0534,-7.0534,-6.9843,-6.882,-6.8658,-6.8082,-6.7269,0.0,0.0,0.0,0.0,0.0,0.0,0.0,0.0,0.0,0.0,-6.1117,-6.0529,0.0,0.0,0.0,0.0,0.0,0.0,-6.1594,-6.2034,-6.24,-6.2515,-6.2755,-6.3237,-6.4004,-6.6424,-6.8711,-7.0848,-7.2062,-7.055,-6.6539,-6.5688,-6.4821,-6.3889,-6.4454,-6.4495,-6.4072,-6.2569,-6.1779,-6.1434,-6.0709,-6.0203,-6.0013,0.0,0.0,0.0,0.0,0.0,0.0,0.0,0.0,0.0,-5.6392,-5.8656,-6.1514,-5.9972,-6.0371,-6.1278,-6.1189,-6.2293,-6.3941,-6.5758,-6.861,-7.1931,-7.5526,-7.7807,-8.0006,-8.3287,-8.1224,-7.8923,-7.9058,-7.738,-7.6154,-7.6773,-7.7284,-7.8113,-7.9573,-7.9288,-7.9144,-7.9748,-7.9571,-7.9107,-7.8378,-7.8312,-7.7815,-7.6655,-7.6556,-7.6556,-7.6556,-7.639,-7.6192,-7.5894,-7.5496,-7.48,-7.3773,-7.4156,-7.3903,-7.312,-7.3457,-7.3326,-7.284,-7.2526,-7.198,-7.1312,-7.1312,-7.1312,-7.1312,-7.0973,-7.0646,-7.0294,-6.9989,-6.9313,-6.8394,-6.8142,-6.7667,-6.7139,0.0,0.0,-6.0639,-6.1447,0.0,0.0,0.0,0.0,0.0,0.0,-6.0529,-5.9905,0.0,0.0,0.0,0.0,0.0,0.0,0.0,-6.1679,-6.181,-6.2195,-6.2268,-6.3111,-6.4868,-6.5585,-6.4889,-6.2761,-6.7336,-6.8001,-6.5076,-6.6162,-6.6593,-6.6583,-6.8248,-6.776,-6.5662,-6.5459,-6.3396,-6.0283,-6.1028,-6.1298,-6.1332,-6.1467,0.0,0.0,0.0,0.0,0.0,0.0,0.0,0.0,-5.7318,-5.7621,-5.8122,-5.9784,-6.0945,-6.2319,-6.5253,-6.5203,-6.563,-7.1008,-7.1041,-7.1435,-7.7825,-8.0885,-8.2746,-8.4234,-8.2374,-8.0919,-8.2272,-7.9717,-7.8116,-8.0125,-7.9135,-7.8704,-8.0299,-7.856,-7.7429,-7.8291,-7.7815,-7.7119,-7.6291,-7.6225,-7.5927,-7.5231,-7.5231,-7.5264,-7.5264,-7.586,-7.5927,-7.5297,-7.5132,-7.4469,-7.321,-7.3392,-7.3205,-7.2677,-7.2725,-7.2559,-7.2247,-7.2085,-7.1715,-7.1312,-7.1312,-7.1312,-7.1244,-7.05,-7.026,-7.0299,-6.9551,-6.8931,-6.8459,-6.825,-6.7758,-6.7139,0.0,0.0,-6.0639,-6.1447,0.0,0.0,0.0,0.0,0.0,0.0,0.0,0.0,0.0,-6.0603,0.0,0.0,0.0,0.0,0.0,-6.2245,-6.2338,-6.2994,-6.3394,-6.3554,-6.345,-6.2781,-6.1892,-6.0969,-6.4103,-6.4255,-6.173,-6.3848,-6.5446,-6.655,-6.7674,-6.7218,-6.5561,-6.3835,-6.2313,-6.1061,-6.1231,-6.1298,-6.1434,-6.2584,-6.1467,0.0,0.0,0.0,0.0,0.0,0.0,0.0,-5.6917,-5.7958,-5.9174,-5.7971,-5.9569,-6.183,-6.2131,-6.4487,-6.7719,-7.1243,-7.4553,-7.7589,-8.0209,-8.119,-8.1968,-8.3422,-8.3219,-8.2881,-8.3186,-8.1383,-7.9924,-8.0445,-7.9329,-7.8503,-7.8941,-7.8523,-7.8006,-7.7715,-7.7517,-7.692,-7.5628,-7.5496,-7.5198,-7.452,-7.4933,-7.5264,-7.5264,-7.543,-7.543,-7.5264,-7.4171,-7.3707,-7.3939,-7.3426,-7.2944,-7.2456,-7.2615,-7.2197,-7.1231,-7.1757,-7.1715,-7.1312,-7.1312,-7.1312,-7.1244,-7.05,-6.9901,-6.9335,-6.8556,-6.7938,-6.746,-6.7217,-6.715,-6.7139,0.0,0.0,0.0,0.0,0.0,0.0,0.0,0.0,0.0,0.0,0.0,0.0,0.0,-6.1117,0.0,0.0,0.0,0.0,0.0,-6.25,-6.2774,-6.3372,-6.3403,-6.2996,-6.223,-6.128,-6.0225,-5.9069,-6.0728,-6.1031,-6.0102,-6.2623,-6.4806,-6.6677,-6.7514,-6.6635,-6.4424,-6.3389,-6.1834,-6.0203,-6.1361,-6.1839,-6.1873,-6.2313,-6.1028,-5.8994,-5.892,0.0,0.0,0.0,0.0,0.0,0.0,0.0,-5.8093,-5.7285,-5.8358,-6.0505,-6.3781,-6.65,-6.9454,-7.3844,-7.7589,-8.0242,-8.0682,-8.1325,-8.1934,-8.234,-8.2712,-8.2983,-8.2983,-8.1862,-8.0979,-8.135,-8.0144,-7.9174,-7.9435,-7.871,-7.7907,-7.6987,-7.6589,-7.596,-7.4918,-7.4785,-7.4619,-7.4255,-7.4918,-7.5183,-7.4767,-7.5098,-7.4966,-7.427,-7.384,-7.3475,-7.3144,-7.278,-7.2315,-7.1875,-7.1713,-7.1472,-7.1086,-7.1491,-7.1548,-7.1312,-7.0939,-7.077,-7.0703,-6.9553,-6.8963,-6.8642,-6.7862,-6.7445,-6.7304,-6.7097,-6.7097,-6.7139,0.0,0.0,0.0,0.0,0.0,0.0,0.0,0.0,0.0,0.0,0.0,0.0,0.0,0.0,0.0,0.0,0.0,0.0,0.0,0.0,0.0,-6.2995,-6.2606,-6.209,-6.139,-6.0532,-5.9441,-5.8029,-5.8312,-5.8974,-5.998,-6.2327,-6.472,-6.7015,-6.7311,-6.5875,-6.3188,-6.2837,-6.1008,-5.8534,-6.0541,-6.1424,-6.1491,-6.0883,-5.973,-5.8447,-5.7977,-5.7335,-5.6898,-5.7744,0.0,0.0,0.0,0.0,-5.6539,-5.6862,-5.7234,-5.8925,-6.5388,-6.8456,-7.1199,-7.6927,-7.9735,-8.0953,-8.0479,-8.1257,-8.1866,-8.1224,-8.1799,-8.2408,-8.2408,-8.1799,-8.1494,-8.2103,-8.0832,-7.9867,-8.0077,-7.8946,-7.7566,-7.631,-7.5728,-7.5132,-7.4288,-7.4221,-7.4221,-7.4221,-7.4785,-7.48,-7.4255,-7.4818,-7.4469,-7.3144,-7.3541,-7.326,-7.2067,-7.1885,-7.1667,-7.1275,-7.0744,-7.0779,-7.1312,-7.1312,-7.1244,-7.1075,-7.0466,-7.0128,-6.9891,-6.847,-6.8057,-6.82,-6.7445,-6.7263,-6.7428,-6.7263,-6.718,-6.718,0.0,0.0,0.0,0.0,0.0,0.0,0.0,0.0,0.0,0.0,-6.2658,-6.2471,0.0,0.0,0.0,0.0,0.0,0.0,-6.2705,0.0,0.0,-6.1072,-6.118,-6.1398,-6.1816,-6.0403,-5.9667,-5.9582,-5.8968,-5.9703,-6.1795,-6.3579,-6.5587,-6.7692,-6.634,-6.4806,-6.3013,-6.0454,-5.8253,-5.656,-5.708,-5.7618,-5.8039,-5.7939,-5.7368,-5.6664,-5.7201,-5.7006,-5.6749,-5.813,-5.8781,0.0,0.0,0.0,-5.6157,-5.5766,-5.6392,-5.7678,-6.0147,-6.6599,-7.3831,-7.8671,-8.0141,-8.0479,-8.1021,-8.0818,-8.0479,-8.0378,-8.146,-8.2408,-8.2408,-8.1799,-8.1325,-8.1426,-8.0546,-7.9497,-7.8703,-7.866,-7.7932,-7.5713,-7.586,-7.5628,-7.4354,-7.4221,-7.4221,-7.4221,-7.4321,-7.4321,-7.4221,-7.4321,-7.3939,-7.3144,-7.2581,-7.2315,-7.2359,-7.1452,-7.1136,-7.1275,-7.0744,-7.0779,-7.1312,-7.1312,-7.0973,-7.0331,-7.0229,-6.9823,-6.918,-6.8267,-6.8057,-6.82,-6.7243,-6.7014,-6.7222,-6.718,-6.718,-6.718,0.0,0.0,0.0,0.0,0.0,0.0,0.0,0.0,0.0,0.0,0.0,-6.2265,0.0,0.0,0.0,-6.1832,-6.2051,-6.2158,-6.2068,-6.1365,-6.1011,-6.126,-6.07,-6.0426,-6.0611,-5.9633,-5.8856,-5.8451,-5.9031,-6.0684,-6.3384,-6.5073,-6.6373,-6.7218,-6.5647,-6.3843,-6.1801,-5.9208,-5.7144,-5.5688,-5.6127,-5.7812,-5.9766,-5.7096,-5.7268,-5.8585,-5.6292,-5.5319,-5.5324,-5.6945,-5.7793,-5.8174,-5.7879,0.0,0.0,0.0,-5.5427,-5.7502,-6.3698,-6.8897,-7.402,-7.9955,-8.0513,-7.9904,-8.1021,-8.0412,-7.96,-7.96,-7.9769,-8.0225,-8.1224,-8.1326,-8.1207,-8.0953,-8.0073,-7.9162,-7.8419,-7.8114,-7.7289,-7.5481,-7.5529,-7.533,-7.4321,-7.4221,-7.4221,-7.4221,-7.4221,-7.4221,-7.4221,-7.3807,-7.3243,-7.2515,-7.2183,-7.1868,-7.1534,-7.125,-7.1123,-7.1097,-7.0855,-7.0916,-7.1312,-7.1312,-7.1142,-7.077,-6.9925,-6.9471,-6.9151,-6.8006,-6.7656,-6.7789,-6.7074,-6.6854,-6.6938,-6.6686,-6.6728,-6.6972,0.0,0.0,0.0,0.0,0.0,0.0,0.0,0.0,0.0,0.0,0.0,0.0,0.0,0.0,0.0,0.0,-6.1448,-6.1468,-6.1343,-6.0659,-6.0512,-6.1008,-6.0044,-5.9389,-5.9096,-5.8804,-5.8238,-5.7364,-5.9069,-6.1604,-6.4982,-6.639,-6.759,-6.8436,-6.6534,-6.4356,-6.1936,-5.9232,-5.7372,-5.6251,-5.6456,-5.8241,-6.0539,-5.7834,-5.8648,-6.0679,-5.663,-5.5185,-5.5358,-5.6205,-5.7018,-5.7631,-5.7439,-5.7067,0.0,0.0,0.0,-5.6502,-6.4749,-6.8267,-7.1288,-7.8366,-7.9194,-7.8788,-8.0818,-8.031,-7.9397,-7.9397,-7.8788,-7.8718,-8.0149,-8.046,-8.0445,-8.0322,-7.9445,-7.8605,-7.7951,-7.7514,-7.6743,-7.5302,-7.5267,-7.5101,-7.4288,-7.4221,-7.4105,-7.3906,-7.4122,-7.4056,-7.3641,-7.331,-7.268,-7.1753,-7.172,-7.1404,-7.0722,-7.0961,-7.0991,-7.0916,-7.0916,-7.1007,-7.1312,-7.1312,-7.1312,-7.1244,-6.9958,-6.9335,-6.9237,-6.7996,-6.7577,-6.7708,-6.7173,-6.6938,-6.6854,-6.6482,-6.6567,-6.6854,0.0,0.0,0.0,0.0,0.0,0.0,0.0,0.0,0.0,0.0,0.0,-6.2449,-6.1572,-6.0832,-6.0547,-6.0802,-6.0131,-6.0054,-6.0777,-6.0101,-5.9514,-5.9149,-5.8727,0.0,-5.7695,-5.8239,-5.8239,-5.7588,-5.9257,-6.2308,-6.6669,-6.7489,-6.9722,-7.3003,-6.995,-6.7334,-6.4933,-6.1098,-5.9326,-5.897,-5.7787,-5.7352,-5.7673,-6.0409,-6.1595,-6.1461,-5.9108,-5.8383,-5.8332,-5.6948,-5.7091,-5.8017,-5.8693,-5.7769,-5.6441,0.0,0.0,0.0,-5.7964,-6.0841,-6.4435,-7.2044,-7.4931,-7.6826,-8.0445,-8.0682,-8.0141,-8.0141,-7.9566,-7.9207,-7.9732,-7.8929,-7.848,-7.9405,-7.8714,-7.7675,-7.6721,-7.7143,-7.6759,-7.4856,-7.5272,-7.5304,-7.4288,-7.4221,-7.3906,-7.321,-7.3773,-7.3575,-7.2183,-7.2746,-7.2448,-7.0991,-7.0958,-7.0722,-7.0243,-7.0443,-7.0641,-7.0916,-7.0916,-7.1007,-7.1312,-7.1312,-7.1312,-7.1278,-7.0466,-6.9722,-6.9089,-6.849,-6.8368,-6.8466,-6.7783,-6.7312,-6.7071,-6.7071,-6.7071,-6.7029,0.0,0.0,0.0,0.0,0.0,0.0,0.0,0.0,0.0,0.0,0.0,0.0,0.0,-5.907,-5.9173,-5.9319,-5.9198,-5.9284,-5.9774,-5.9203,-5.8803,-5.8632,-5.8288,-5.8041,-5.7991,-5.7918,-5.7881,-5.7772,-5.8859,-6.1231,-6.4749,-6.6406,-6.8436,-7.0601,-6.8958,-6.7269,-6.5343,-6.0959,-5.8144,-5.675,-5.7729,-5.8935,-6.0136,-6.0315,-6.2582,-6.5018,-6.0763,-5.8567,-5.7725,-5.7771,-5.663,-5.5386,-5.6379,-5.5977,-5.4961,-5.4421,-5.4209,-5.4965,-5.8983,-6.0751,-6.3087,-7.032,-7.2834,-7.4322,-7.7063,-7.8619,-7.9363,-7.8889,-7.8213,-7.7938,-7.8769,-7.8536,-7.8385,-7.8899,-7.832,-7.7454,-7.6601,-7.6009,-7.5392,-7.4705,-7.4006,-7.3741,-7.4155,-7.331,-7.2879,-7.3078,-7.3343,-7.3045,-7.2051,-7.225,-7.1951,-7.0924,-7.0428,-7.0254,-7.041,-7.0363,-7.0595,-7.1176,-7.0961,-7.1007,-7.1312,-7.1312,-7.1312,-7.1312,-7.1041,-7.0554,-6.994,-6.9279,-6.8921,-6.8734,-6.8137,-6.7721,-6.7312,-6.7022,-6.6896,-6.6862,0.0,0.0,0.0,-6.1127,0.0,-6.0947,-6.0195,-6.044,-6.0372,-5.9448,0.0,0.0,0.0,0.0,-5.7867,-5.775,-5.8317,-5.876,-5.8978,-5.8632,-5.8351,-5.8244,-5.83,-5.8262,-5.7991,-5.8315,-5.8278,-5.7881,-5.8896,-6.0791,-6.3565,-6.5256,-6.7151,-6.9045,-6.7489,-6.7083,-6.732,-6.3168,-6.0348,-5.8753,-5.9923,-6.0998,-6.2011,-6.2831,-6.4765,-6.65,-6.2515,-6.0281,-5.9242,-5.9203,-5.7993,-5.6482,-5.6505,-5.5465,-5.405,-5.3208,-5.3641,-5.4912,-5.7544,-5.8736,-6.084,-6.7717,-6.9214,-7.0263,-7.5033,-7.6487,-7.7063,-7.7841,-7.7604,-7.7498,-7.8215,-7.8224,-7.8,-7.7822,-7.7268,-7.6535,-7.56,-7.4911,-7.4424,-7.4213,-7.3265,-7.292,-7.3641,-7.2646,-7.2117,-7.2349,-7.2614,-7.2316,-7.1322,-7.1488,-7.1289,-7.056,-7.0063,-7.0035,-7.0515,-7.0316,-7.0595,-7.1367,-7.1143,-7.1143,-7.1367,-7.1367,-7.1356,-7.1312,-7.1312,-7.1096,-7.0721,-7.0061,-6.9535,-6.9111,-6.863,-6.8042,-6.7435,-6.7146,-6.7022,-6.698,-6.2078,-6.1579,-6.1081,-6.0524,-5.9729,-5.9329,-5.9721,-5.9727,-5.9727,-5.9727,0.0,0.0,0.0,0.0,0.0,-5.6303,-5.7568,-5.8386,-5.8386,-5.8386,-5.8209,-5.7881,-5.8773,-5.8733,-5.7588,-5.919,-5.937,-5.7881,-5.9302,-6.1163,-6.3396,-6.414,-6.6068,-6.8774,-6.5899,-6.7015,-7.0793,-6.7689,-6.5918,-6.5202,-6.4529,-6.3417,-6.2784,-6.8079,-6.8335,-6.5722,-6.4572,-6.3882,-6.3248,-6.14,-6.126,-6.1486,-5.9376,-5.6539,-5.3841,-5.2894,-5.2937,-5.3212,0.0,0.0,0.0,-6.3802,-6.3869,-6.4816,-7.4289,-7.4289,-7.3341,-7.7063,-7.7874,-7.8006,-7.8283,-7.7911,-7.7255,-7.6237,-7.5674,-7.4878,-7.3705,-7.389,-7.4026,-7.3557,-7.3244,-7.2976,-7.2692,-7.2244,-7.1653,-7.0958,-7.1554,-7.1322,-6.9864,-7.0461,-7.0527,-6.9798,-6.9798,-7.0035,-7.0515,-7.0316,-7.0687,-7.16,-7.1412,-7.1412,-7.16,-7.16,-7.1501,-7.1312,-7.1312,-7.1312,-7.1244,-7.0721,-7.0234,-6.9696,-6.9152,-6.8357,-6.751,-6.751,-6.751,-6.7353,-6.2435,-6.2385,-6.2169,-6.1069,-5.9946,-5.9001,-5.8634,-5.8153,-5.781,0.0,0.0,0.0,-5.6918,-5.7021,-5.7261,-5.7669,-5.7755,-5.7775,-5.7845,-5.7406,-5.7181,-5.7252,-5.8144,-5.8324,-5.7621,-5.8717,-5.8829,-5.7881,-5.778,-5.8592,-6.0283,-6.0994,-6.2381,-6.4275,-6.4315,-6.4559,-6.4647,-6.1598,-6.1042,-6.2239,-6.2502,-6.3377,-6.4765,-6.7334,-6.8948,-6.9586,-6.8171,-6.6137,-6.4166,-6.4723,-6.2152,-5.8375,-5.6811,-5.5331,-5.4085,-5.3414,-5.3987,-5.4695,-5.4259,0.0,0.0,0.0,0.0,0.0,-6.4821,-6.7689,-7.0602,-7.3409,-7.4796,-7.6217,-7.848,-7.7997,-7.6972,-7.5954,-7.5846,-7.5616,-7.4923,-7.4148,-7.3714,-7.373,-7.2392,-7.1787,-7.2591,-7.128,-7.0527,-7.0891,-7.109,-7.0792,-6.9831,-6.9997,-6.9997,-6.9798,-6.9798,-7.0035,-7.0515,-7.0316,-7.0687,-7.16,-7.1412,-7.1412,-7.16,-7.16,-7.1501,-7.1312,-7.1312,-7.1312,-7.1312,-7.112,-7.0755,-7.0259,-7.0097,-6.9423,-6.8501,-6.8501,-6.8077,-6.7394,-6.1242,-6.1292,-6.1149,-6.0151,-5.9353,-5.8719,-5.8467,-5.782,-5.7285,0.0,0.0,0.0,-5.6347,-5.7904,-5.8616,-5.7698,-5.7331,-5.7043,-5.678,-5.6483,-5.6478,-5.6667,-5.8165,-5.8724,-5.8204,-5.9633,-5.9573,-5.7881,-5.778,-5.7712,-5.7645,-5.8389,-5.9201,-6.008,-6.0767,-6.0873,-6.0465,-5.7608,-5.8042,-6.084,-6.3431,-6.4679,-6.5361,-6.8128,-6.9252,-6.9373,-6.9059,-6.7511,-6.5977,-6.7762,-6.4992,-6.0365,-5.8249,-5.6673,-5.5366,-5.3718,-5.4527,-5.5845,-5.5138,-5.5849,-5.7135,-5.8579,0.0,0.0,-6.3505,-6.553,-6.7766,-7.2022,-7.3781,-7.5168,-7.6927,-7.7188,-7.6924,-7.6035,-7.6439,-7.6392,-7.4935,-7.4086,-7.3635,-7.3649,-7.209,-7.131,-7.2014,-7.069,-6.9964,-7.0394,-7.0428,-7.0262,-6.9798,-6.9798,-6.9798,-6.9798,-6.9798,-6.9988,-7.0363,-7.027,-7.0641,-7.1467,-7.1367,-7.1412,-7.16,-7.16,-7.1501,-7.1312,-7.1312,-7.1312,-7.1267,-7.0791,-7.058,-7.0435,-6.9712,-6.92,-6.8735,-6.7352,-6.7167,-6.7463,0.0,-5.9285,-5.9072,-5.861,-5.8423,-5.8503,-5.894,-5.8237,-5.7541,0.0,-5.7216,-5.7249,-5.7354,-5.9804,-6.0277,-5.7526,-5.7089,-5.6652,-5.5918,-5.5871,-5.5992,-5.6281,-5.8383,-5.9347,-5.9032,-6.1061,-6.0723,-5.7881,-5.849,-5.778,-5.5852,-5.6427,-5.6697,-5.6697,-5.6484,-5.6829,-5.742,-5.5442,-5.6689,-6.0419,-6.5181,-6.6271,-6.5425,-6.9542,-6.9576,-6.7548,-6.8624,-6.8436,-6.8031,-6.9816,-6.8345,-6.5101,-6.1837,-5.9626,-5.7621,-5.4382,-5.5233,-5.6966,-5.608,-5.6489,-5.7915,-6.1057,-5.9163,0.0,-6.579,-6.5249,-6.4877,-7.0804,-7.2665,-7.3375,-7.368,-7.5085,-7.5905,-7.509,-7.6495,-7.6953,-7.4662,-7.4209,-7.3973,-7.3679,-7.2311,-7.1356,-7.121,-7.0423,-6.9846,-6.9798,-6.9798,-6.9798,-6.9798,-6.9798,-6.9798,-6.9798,-6.9798,-6.9941,-7.0176,-7.0223,-7.0595,-7.1323,-7.1323,-7.1457,-7.16,-7.16,-7.1457,-7.1098,-7.1098,-7.1052,-7.087,-6.9935,-6.9829,-7.0104,-6.8493,-6.8114,-6.8127,-6.5318,-6.5552,-6.7022,-5.931,-5.9047,-5.898,-5.9434,-5.8641,-5.8356,-5.9562,-5.8138,-5.7707,-5.996,-6.0388,-6.0791,-6.1588,-6.1662,-6.1394,-6.0792,-5.9491,-5.8374,-5.7642,-5.6397,-5.6112,-5.7055,-5.7528,-5.8152,-5.8961,-6.0013,-5.9674,-5.7881,-5.7442,-5.7002,-5.6596,-5.6156,-5.5919,-5.5919,-5.585,-5.4972,-5.3585,-5.5478,-5.7439,-5.9366,-6.1442,-6.4248,-6.7446,-6.9366,-7.0591,-7.1278,-7.0929,-6.9938,-6.8654,-6.7877,-6.7548,-6.6804,-6.3174,-6.2201,-6.1626,-5.8011,-5.8149,-5.9302,-5.8521,-5.8859,-5.9299,-5.8676,-6.0155,0.0,-5.7897,-5.9414,-6.1717,-6.2544,-6.3802,-6.5493,-6.7895,-6.9089,-6.9301,-6.7946,-7.2311,-7.6223,-7.7056,-7.631,-7.5386,-7.4722,-7.3494,-7.2335,-7.1289,-7.0666,-7.019,-6.9846,-6.9798,-6.9798,-6.9798,-6.9798,-6.9798,-6.9798,-6.9798,-6.9941,-7.0176,-7.0363,-7.0699,-7.1323,-7.1467,-7.1556,-7.16,-7.16,-7.103,-7.0029,-7.0029,-6.9523,-6.8699,-6.8502,-6.8533,-6.8572,-6.7949,-6.6841,-6.5724,-6.5884,-6.5304,-6.4513,-5.8312,-5.8278,-5.8474,-5.9209,-5.8806,-5.8833,-6.0324,-5.9297,-5.8906,-6.0488,-6.1558,-6.2022,-6.1654,-6.1922,-6.1439,-5.9891,-5.864,-5.7537,-5.6521,-5.5755,-5.5466,-5.5794,-5.6609,-5.7628,-5.8961,-5.8998,-5.8626,-5.7881,-5.6799,-5.5886,-5.5141,-5.4665,-5.5273,-5.6731,-5.4663,-5.4091,-5.4703,-5.4497,-5.5208,-5.6838,-6.2234,-6.6492,-6.9755,-7.1109,-7.2201,-7.28,-7.1718,-7.1075,-7.0466,-6.8571,-6.7971,-6.7514,-6.4451,-6.4165,-6.4081,-5.9749,-6.0359,-6.2029,-5.9678,-5.9844,-6.0752,-6.1013,-6.1076,0.0,0.0,-5.9962,-6.0541,-6.2516,-6.2347,-6.2651,-6.5222,-6.5696,-6.5831,-6.6203,-7.0682,-7.4287,-7.4798,-7.6575,-7.7361,-7.6179,-7.5172,-7.4083,-7.2835,-7.1947,-7.099,-6.9879,-6.9798,-6.9798,-6.9798,-6.9798,-6.9798,-6.9798,-6.9798,-6.9988,-7.0363,-7.0423,-7.0699,-7.1098,-7.1323,-7.1109,-7.0448,-7.0586,-6.9996,-6.8895,-6.8895,-6.8568,-6.8072,-6.7548,-6.7048,-6.6574,-6.6588,-6.639,-6.5975,-6.4684,-6.4409,-6.457,-5.7248,-5.7376,-5.7806,-5.8568,-5.88,-5.9396,-6.0887,-6.049,-6.0107,-6.0484,-6.2215,-6.2932,-6.1573,-6.2599,-6.2557,-6.0503,-5.892,-5.7664,-5.6863,-5.5973,-5.5417,-5.5295,-5.5845,-5.7,-5.8964,-5.8017,-5.734,-5.7036,-5.6021,-5.4735,-5.3281,-5.3146,-5.4564,-5.7137,-5.419,-5.4362,-5.6673,-5.4261,-5.4228,-5.6469,-6.4146,-6.803,-6.9383,-7.1413,-7.2293,-7.2293,-7.1582,-7.1684,-7.1898,-6.9755,-6.8667,-6.786,-6.5413,-6.5617,-6.5818,-6.1079,-6.2407,-6.4557,-6.0863,-6.1095,-6.2584,-6.3497,-6.2212,-6.1231,0.0,0.0,0.0,-6.2753,-6.1467,-6.0351,-6.2144,-6.2212,-6.2584,-6.4377,-6.8515,-7.1236,-7.0531,-7.4851,-7.7581,-7.6203,-7.596,-7.5344,-7.3898,-7.2671,-7.1437,-7.0254,-6.9775,-6.9595,-6.9765,-6.9798,-6.9798,-6.9798,-6.9798,-6.9988,-7.0376,-7.0515,-7.0561,-7.0515,-7.0916,-7.0343,-6.9074,-6.9283,-6.8765,-6.7719,-6.777,-6.7618,-6.7311,-6.6544,-6.5721,-6.4977,-6.5219,-6.5681,-6.5954,-6.3262,-6.3356,-6.4599,-5.689,-5.6785,-5.7044,-5.7806,-5.8469,-5.9396,-6.0887,-6.049,-6.0306,-6.1183,-6.3724,-6.5477,-6.545,-6.6186,-6.7401,-6.9267,-6.5364,-6.3133,-6.3894,-5.9443,-5.7435,-5.8835,-5.5497,-5.527,-5.893,-5.7002,-5.531,-5.3991,-5.4499,-5.3923,-5.2435,-5.2601,-5.3482,-5.5041,-5.6165,-5.6368,-5.5955,-5.7043,-5.979,-6.3469,-6.4546,-6.3531,-6.1839,-6.6,-6.7963,-6.8774,-7.0635,-7.148,-7.141,-6.9708,-6.8829,-6.8144,-6.5657,-6.633,-6.7248,-6.3401,-6.4335,-6.6076,-6.3666,-6.458,-6.529,-6.1535,-6.3768,-6.4952,-5.7543,0.0,-5.822,-5.5446,0.0,-5.4465,-5.4702,0.0,0.0,-5.6934,-6.2547,-6.6616,-6.5868,-7.0028,-7.2897,-7.1961,-7.3731,-7.4297,-7.2439,-7.1128,-7.0658,-7.1453,-6.962,-6.8857,-6.9779,-6.9798,-6.9798,-6.9798,-6.9798,-6.9846,-6.9893,-7.0549,-7.0283,-6.9123,-6.9808,-6.949,-6.8254,-6.8271,-6.7516,-6.6248,-6.6565,-6.596,-6.485,-6.5022,-6.4991,-6.4875,-6.4623,-6.3756,-6.269,-6.3116,-6.2652,-6.1779,-5.6514,-5.7044,-5.7442,-5.774,-5.8038,-5.8767,-6.0258,-6.19,-6.2733,-6.2116,-6.4103,-6.5368,-6.4933,-6.4756,-6.5426,-6.7156,-6.501,-6.3024,-6.1747,-5.9125,-5.7468,-5.7174,-5.4591,-5.4832,-5.8287,-5.531,-5.3856,-5.4126,-5.3112,-5.2365,-5.1853,-5.1788,-5.3517,-5.667,-5.6909,-5.823,-6.0216,-6.0054,-6.0291,-6.0791,-6.1637,-6.0723,-5.9641,-6.7184,-6.9992,-6.9992,-7.1073,-7.1457,-7.1175,-6.977,-6.8336,-6.7127,-6.7426,-6.7025,-6.633,-6.5204,-6.5635,-6.5963,-6.3158,-6.4606,-6.62,-6.2894,-6.4038,-6.4681,-5.9641,-5.8084,-5.7408,-5.6292,0.0,0.0,0.0,0.0,0.0,0.0,-6.0566,-6.2876,-6.1689,-6.567,-6.9157,-7.0241,-7.1747,-7.2459,-7.1844,-7.1416,-7.1094,-7.0771,-6.9647,-6.9106,-6.9556,-6.9708,-6.9798,-6.9798,-6.9798,-6.9941,-7.019,-6.9746,-6.9283,-6.8863,-6.8503,-6.7705,-6.6428,-6.6585,-6.5982,-6.485,-6.4961,-6.4715,-6.4188,-6.4468,-6.4524,-6.4387,-6.461,-6.4315,-6.368,-6.3558,-6.3213,-6.2804,-5.5819,-5.668,-5.7276,-5.7442,-5.7674,-5.8343,-5.9842,-6.2199,-6.3434,-6.244,-6.386,-6.4925,-6.4866,-6.4933,-6.5962,-6.8349,-6.7224,-6.5511,-6.3408,-6.0832,-5.9081,-5.8421,-5.523,-5.5068,-5.8423,-5.4634,-5.2908,-5.3449,-5.179,-5.1278,-5.1779,-5.1102,-5.3107,-5.7286,-5.7248,-5.938,-6.2894,-6.2178,-6.1535,-6.0994,-6.1231,-6.1197,-6.167,-6.8098,-7.0635,-7.0703,-7.0846,-7.0982,-7.0859,-6.9431,-6.7996,-6.6916,-6.8344,-6.7407,-6.5892,-6.6438,-6.6705,-6.618,-6.3469,-6.5032,-6.6663,-6.3447,-6.3374,-6.334,-6.0495,-5.873,-5.7746,-5.7848,-5.7002,0.0,0.0,0.0,-5.6799,-5.8558,0.0,-6.1129,-5.9844,-6.2101,-6.4682,-6.6683,-6.8494,-6.9974,-7.0874,-7.0943,-7.0481,-6.9446,-6.8931,-6.8684,-6.8746,-6.9216,-6.9599,-6.9798,-6.9798,-6.9988,-7.0283,-6.9138,-6.8519,-6.8289,-6.7266,-6.6185,-6.4875,-6.5094,-6.4685,-6.388,-6.3993,-6.3936,-6.388,-6.4188,-6.4188,-6.4049,-6.4499,-6.4666,-6.4554,-6.3793,-6.3478,-6.3394,-5.4725,-5.5152,-5.5918,-5.6614,-5.7309,-5.8349,-6.0011,-6.0391,-6.0731,-6.1602,-6.3007,-6.4747,-6.6866,-6.9009,-7.2418,-7.7816,-7.5399,-7.3543,-7.3524,-6.6742,-6.3693,-6.577,-5.8417,-5.608,-5.9945,-5.5716,-5.2501,-5.0521,-5.0453,-5.1167,-5.2527,-5.0625,-5.1586,-5.5009,-5.7325,-5.9536,-6.163,-6.29,-6.5493,-6.8504,-6.5595,-6.617,-6.8538,-6.6643,-6.7252,-6.918,-6.918,-6.9751,-7.0265,-6.8522,-6.8192,-6.8349,-6.746,-6.7105,-6.7037,-6.7078,-6.7421,-6.7531,-6.6008,-6.6844,-6.6935,-6.1771,-6.1635,-6.1605,-5.7151,-5.8162,-5.9607,-5.8186,-6.0723,-6.2787,-6.14,-6.2279,-6.2753,-6.14,-6.1839,0.0,0.0,-5.9624,-5.8785,-5.9602,-6.3319,-6.6716,-6.9147,-6.8704,-6.8008,-6.7509,-6.7074,-6.6934,-6.7151,-6.82,-6.9036,-6.9765,-6.9798,-6.9798,-6.9846,-6.9138,-6.8189,-6.693,-6.6291,-6.5305,-6.4049,-6.4049,-6.388,-6.3538,-6.388,-6.3823,-6.3538,-6.388,-6.3993,-6.3993,-6.4049,-6.4049,-6.3993,-6.3592,-6.2903,-6.2175,-5.4394,-5.5085,-5.5516,-5.5289,-5.5852,-5.7089,-5.9245,-6.0784,-6.2641,-6.5091,-6.6436,-6.8539,-7.2236,-7.342,-7.5017,-7.7715,-7.6521,-7.4411,-7.1679,-6.7457,-6.5349,-6.5911,-5.9884,-5.8265,-6.2009,-5.7512,-5.4567,-5.3309,-5.2452,-5.255,-5.3507,-5.1953,-5.2843,-5.586,-5.8622,-6.1037,-6.3091,-6.544,-6.6576,-6.6711,-6.5222,-6.5222,-6.6271,-6.7489,-6.8436,-6.9113,-6.9113,-6.9292,-6.9471,-6.8919,-6.8116,-6.7633,-6.894,-6.7531,-6.5895,-6.8156,-6.78,-6.675,-6.7225,-6.9237,-6.9746,-6.3922,-6.4409,-6.4761,-5.8817,-5.9732,-6.1117,-5.8642,-6.0969,-6.2888,-6.0892,-6.1738,-6.2448,-6.1467,-6.1907,-6.1434,0.0,-5.687,-5.6332,-5.7731,-6.1428,-6.45,-6.6079,-6.6676,-6.6895,-6.6677,-6.5977,-6.6052,-6.7127,-6.7678,-6.8307,-6.9036,-6.9533,-6.9798,-6.9798,-6.8072,-6.697,-6.6533,-6.4844,-6.3789,-6.3424,-6.3424,-6.3367,-6.3252,-6.3367,-6.3367,-6.3252,-6.3538,-6.3595,-6.3424,-6.3823,-6.3652,-6.3079,-6.3134,-6.3077,-6.2991,-5.4427,-5.4854,-5.5284,-5.562,-5.6122,-5.7138,-5.9031,-6.1487,-6.4195,-6.7127,-6.8816,-7.13,-7.5518,-7.6256,-7.7183,-7.8775,-7.8471,-7.6185,-7.1446,-6.959,-6.8227,-6.7146,-6.3583,-6.2845,-6.5547,-6.1303,-5.8303,-5.6811,-5.5246,-5.4938,-5.586,-5.4106,-5.4312,-5.6304,-5.8726,-6.087,-6.2795,-6.5541,-6.6812,-6.6812,-6.5797,-6.5561,-6.5967,-6.7658,-6.7963,-6.7557,-6.8098,-6.847,-6.8673,-6.8673,-6.8199,-6.7895,-6.949,-6.8057,-6.6313,-6.905,-6.8532,-6.7327,-6.8235,-7.0187,-7.0765,-6.5989,-6.6554,-6.6923,-6.1548,-6.2638,-6.4171,-6.1961,-6.3469,-6.5244,-6.5501,-6.4871,-6.4146,-6.3481,-6.2866,-6.0892,0.0,-5.5886,-5.6228,-5.7355,-6.0057,-6.2398,-6.4074,-6.4679,-6.501,-6.5155,-6.4103,-6.4075,-6.539,-6.6245,-6.6959,-6.7492,-6.9035,-6.9622,-6.9204,-6.7311,-6.6375,-6.6375,-6.4183,-6.3079,-6.3079,-6.3079,-6.3079,-6.3079,-6.3079,-6.3079,-6.3137,-6.3309,-6.3252,-6.3137,-6.3538,-6.3309,-6.2789,-6.2933,-6.2961,-6.2933,-5.4792,-5.4626,-5.5388,-5.7442,-5.7897,-5.833,-5.9399,-6.2246,-6.521,-6.7818,-7.0161,-7.3037,-7.6826,-7.7807,-7.9025,-8.1088,-8.1291,-7.8926,-7.3424,-7.3191,-7.2216,-6.9891,-6.9189,-6.9309,-7.0263,-6.6609,-6.334,-6.0649,-5.8486,-5.8075,-5.9324,-5.6849,-5.5886,-5.6269,-5.7771,-5.9202,-6.0734,-6.3447,-6.6305,-6.8876,-6.7455,-6.7218,-6.7658,-6.7049,-6.5899,-6.4783,-6.6271,-6.7252,-6.7861,-6.7861,-6.8368,-6.9045,-6.9045,-6.8504,-6.8199,-6.9722,-6.9688,-6.9113,-6.9248,-6.9887,-7.0052,-6.781,-6.7986,-6.792,-6.4942,-6.6581,-6.8534,-6.7721,-6.802,-6.9807,-7.4127,-7.109,-6.7675,-6.6976,0.0,-6.0385,-5.5446,-5.6528,-5.792,-5.8135,-5.91,-6.0615,-6.289,-6.2695,-6.2578,-6.2837,-6.1583,-6.1262,-6.2263,-6.4031,-6.5158,-6.5362,-6.8161,-6.9204,-6.8072,-6.6898,-6.6322,-6.6375,-6.4183,-6.3079,-6.3079,-6.3079,-6.3079,-6.3079,-6.3079,-6.3079,-6.3079,-6.3079,-6.3079,-6.3079,-6.3079,-6.3079,-6.3079,-6.3049,-6.2613,-6.2116,-5.4655,-5.6397,-5.8008,-5.8008,-5.7066,-5.7171,-5.9895,-6.2338,-6.5823,-7.1334,-7.3911,-7.695,-8.1359,-8.1494,-8.1291,-8.1291,-8.1137,-7.9835,-7.7061,-7.5045,-7.3989,-7.4121,-7.1375,-7.0366,-7.1546,-6.7667,-6.5107,-6.3976,-6.064,-5.9479,-6.0293,-5.7944,-5.6543,-5.6132,-5.8173,-5.9261,-5.9837,-6.317,-6.5696,-6.7421,-6.7557,-6.6745,-6.5561,-6.6474,-6.5899,-6.4783,-6.6271,-6.6948,-6.7083,-6.7083,-6.759,-6.8199,-6.8199,-6.8064,-6.8199,-6.9722,-6.9688,-6.9451,-7.1109,-7.1729,-7.1503,-6.9843,-6.9712,-6.9365,-6.6916,-6.8651,-7.0284,-6.8378,-7.0386,-7.1556,-6.8685,-6.8218,-6.6826,-6.26,-5.9847,-5.7949,-5.7137,-5.707,-5.7309,-5.7887,-5.9947,-6.1163,-6.0796,-6.1251,-6.1341,-6.0808,-6.0658,-6.1198,-6.2597,-6.358,-6.4303,-6.4665,-6.7207,-6.8403,-6.8072,-6.6132,-6.5575,-6.6375,-6.4183,-6.3079,-6.3079,-6.3079,-6.3079,-6.3079,-6.3079,-6.3079,-6.3079,-6.3079,-6.3079,-6.3079,-6.3079,-6.3079,-6.3079,-6.3079,-6.2847,-6.2498,-5.5554,-5.7731,-5.9452,-5.8719,-5.9218,-6.0538,-6.2837,-6.3283,-6.5545,-7.1604,-7.4256,-7.6718,-7.9652,-8.1443,-8.2051,-8.1205,-8.0982,-7.9412,-7.5974,-7.5905,-7.5402,-7.4003,-7.3615,-7.3662,-7.4121,-7.112,-6.8574,-6.6528,-6.3387,-6.1313,-6.0162,-5.7979,-5.6099,-5.4702,-5.688,-5.7661,-5.7659,-6.2527,-6.5256,-6.6373,-6.6779,-6.6576,0.0,-6.6237,-6.6,-6.5662,-6.6508,-6.6812,-6.6812,-6.6812,-6.7083,-6.7421,-6.7421,-6.7421,-6.7726,-6.9248,-6.9417,-6.9519,-7.1413,-7.2157,-7.2191,-7.1379,-7.1592,-7.1386,-6.911,-6.9977,-7.1085,-7.0472,-7.0896,-7.143,-7.1396,-6.8795,-6.5087,-6.0095,-5.7887,-5.6904,-5.715,-5.6974,-5.7105,-5.7959,-5.9439,-6.0134,-5.935,-6.0594,-6.0981,-5.9895,-5.9069,-5.9103,-5.9987,-6.1271,-6.2017,-6.2093,-6.5223,-6.6838,-6.6606,-6.5359,-6.5032,-6.5629,-6.3902,-6.3079,-6.3079,-6.3079,-6.3079,-6.3079,-6.3079,-6.3079,-6.3079,-6.3079,-6.3079,-6.3079,-6.3079,-6.3079,-6.3079,-6.3079,-6.2963,-6.2789,-5.6752,-5.8813,-6.0265,-5.9391,-6.2606,-6.574,-6.7055,-6.5749,-6.6345,-7.1243,-7.3851,-7.5455,-7.6129,-7.9719,-8.1711,-8.0778,-8.0692,-7.847,-7.3289,-7.6091,-7.6191,-7.2256,-7.5314,-7.6956,-7.6661,-7.4748,-7.1919,-6.8056,-6.5467,-6.2459,-5.8968,-5.6953,-5.4727,-5.255,-5.4736,-5.5655,-5.6027,-6.1946,-6.4986,-6.5831,-6.5933,-6.6677,-6.7624,-6.6339,-6.6237,-6.6812,-6.6812,-6.6812,-6.6812,-6.6812,-6.6812,-6.6812,-6.6812,-6.6812,-6.7117,-6.8639,-6.9113,-6.9417,-7.0906,-7.1785,-7.2259,-7.2259,-7.3017,-7.3187,-7.1206,-7.0974,-7.1557,-7.2887,-7.0974,-7.0862,-7.6573,-7.0512,-6.3379,-5.9465,-5.8167,-5.7624,-5.7636,-5.7799,-5.8128,-5.8751,-5.9341,0.0,-5.8593,-6.0437,-6.1015,-5.9547,-5.767,-5.6657,-5.6774,-5.8556,-5.9504,-5.9267,-6.3096,-6.5017,-6.4703,-6.4568,-6.4568,-6.4678,-6.3592,-6.3079,-6.3079,-6.3079,-6.3079,-6.3079,-6.3079,-6.3079,-6.3079,-6.3079,-6.3079,-6.3079,-6.3079,-6.3079,-6.3079,-6.3079,-6.3079,-6.3079,-5.7082,-5.9561,-6.1306,-5.9734,-6.3213,-6.7392,-7.085,-7.2481,-7.4155,-7.6473,-7.8671,-8.0074,-7.9954,-8.0122,-8.0087,-7.9693,-7.9399,-7.8341,-7.6189,-7.6089,-7.5573,-7.4172,-7.4384,-7.4814,-7.5317,-7.2808,-7.0085,-6.7191,-6.3158,-5.9436,-5.6095,-5.4154,-5.2354,-5.0825,-5.3007,-5.6259,-6.0321,-6.2685,-6.4816,-6.6677,-6.7286,-6.732,-6.6981,-6.6711,-6.6711,-6.6812,-6.6812,-6.6812,-6.6812,-6.6812,-6.6812,-6.6812,-6.6812,-6.6812,-6.7117,-6.8639,-6.9113,-6.9417,-7.0906,-7.1413,-7.1515,-7.1515,-7.2101,-7.2541,-7.2135,-7.2553,-7.3107,-7.3378,-7.3651,-7.3357,-7.1965,-6.7938,-6.4262,-6.245,-6.2006,-6.2552,-6.4376,-6.4127,-6.3406,-6.2279,-6.4594,-6.4263,-5.9147,-5.9961,-6.0194,-5.8728,-5.8239,-5.8058,-5.8224,-5.908,-5.9653,-5.9897,-6.2632,-6.4274,-6.4734,-6.3789,-6.3789,-6.4678,-6.3592,-6.3079,-6.3079,-6.3079,-6.3079,-6.3079,-6.3079,-6.3079,-6.3079,-6.3079,-6.3079,-6.3079,-6.3079,-6.3079,-6.3079,-6.3079,-6.3079,-6.3079,-5.9706,-6.0891,-6.2078,-6.2482,-6.6069,-6.9996,-7.3392,-7.6545,-7.7945,-7.6275,-7.692,-7.7277,-7.6758,-7.8421,-7.9492,-7.9146,-7.8655,-7.7718,-7.6151,-7.5404,-7.4656,-7.3669,-7.351,-7.3821,-7.456,-7.315,-7.0209,-6.567,-6.2719,-5.8645,-5.3587,-5.148,-4.9949,-4.8928,-5.1374,-5.4669,-5.8592,-6.1637,-6.3768,-6.5189,-6.6305,-6.6542,-6.6203,-6.5797,-6.5662,-6.573,-6.6102,-6.6237,-6.6305,-6.6677,-6.6896,-6.7014,-6.6854,-6.698,-6.7384,-6.8379,-6.8761,-6.9152,-7.0517,-7.088,-7.0938,-7.121,-7.1582,-7.1853,-7.1853,-7.209,-7.2462,-7.2834,-7.3298,-7.2756,-6.9961,-6.7151,-6.4945,-6.3752,-6.3091,-6.3344,-6.5295,-6.5682,-6.5312,-6.4298,-6.4937,-6.4027,-6.0247,-6.0177,-5.9481,-5.7234,-5.7523,-5.7535,-5.6776,-5.7613,-5.8568,-5.9537,-6.1388,-6.2845,-6.3845,-6.3337,-6.3337,-6.3845,-6.3337,-6.3079,-6.3079,-6.3079,-6.3079,-6.3079,-6.3079,-6.3079,-6.3079,-6.3079,-6.3079,-6.3079,-6.3079,-6.3079,-6.3079,-6.3079,-6.3079,-6.3079,-6.2589,-6.2918,-6.3717,-6.5892,-6.9547,-7.2847,-7.5037,-7.8656,-7.9854,-7.626,-7.5396,-7.4899,-7.4247,-7.7228,-7.9046,-7.8364,-7.7998,-7.6882,-7.4803,-7.4439,-7.3738,-7.251,-7.2546,-7.2976,-7.385,-7.339,-7.0431,-6.4971,-6.2588,-5.8431,-5.2626,-4.9512,-4.7946,-4.7923,-5.0348,-5.3381,-5.69,-6.0588,-6.2956,-6.4309,-6.529,-6.5696,-6.5595,-6.4884,-6.4681,-6.4918,-6.5493,-6.5797,-6.6,-6.6609,-6.6938,-6.7097,-6.6854,-6.7063,-6.7482,-6.8106,-6.8394,-6.8793,-6.9986,-7.042,-7.0605,-7.0995,-7.1255,-7.1312,-7.1312,-7.1312,-7.1481,-7.2056,-7.2293,-7.1672,-6.9221,-6.7868,-6.6669,-6.521,-6.4457,-6.4559,-6.6045,-6.6916,-6.6964,-6.5954,-6.5133,-6.3776,-6.1579,-6.1141,-5.982,-5.6834,-5.7125,-5.6768,-5.5265,-5.6276,-5.7524,-5.8851,-6.0259,-6.1614,-6.2871,-6.3012,-6.3079,-6.3079,-6.3079,-6.3079,-6.3079,-6.3079,-6.3079,-6.3079,-6.3079,-6.3079,-6.3079,-6.3079,-6.3079,-6.3079,-6.3079,-6.3079,-6.3079,-6.3079,-6.3079,-6.3079,-6.4397,-6.6042,-6.7463,-6.8864,-7.2895,-7.5796,-7.5392,-7.8286,-8.0588,-8.0665,-7.982,-7.9161,-7.8837,-7.886,-7.8298,-7.6674,-7.7139,-7.6063,-7.2892,-7.3158,-7.2971,-7.174,-7.1084,-7.1386,-7.284,-7.152,-6.939,-6.6483,-6.1621,-5.7757,-5.4861,-4.8933,-4.7126,-4.8944,-5.0539,-5.4363,-5.9776,-6.0926,-6.3362,-6.644,-6.5899,-6.5696,-6.5595,-6.4884,-6.5019,-6.5595,-6.5662,-6.6136,-6.6711,-6.6779,-6.6812,-6.6812,-6.6812,-6.6812,-6.7032,-6.8022,-6.831,-6.8523,-6.9509,-7.0132,-7.0512,-7.0537,-7.0938,-7.1312,-7.1312,-7.1312,-7.1345,-7.1413,-7.1954,-7.1718,-6.9397,-7.0523,-7.0883,-6.8277,-6.8692,-6.9775,-7.0808,-7.1231,-7.0601,-6.82,-6.8656,-6.7407,-6.2867,-6.3231,-6.2503,-5.9584,-5.8386,-5.7258,-5.595,-5.6805,-5.7597,-5.8169,-5.9737,-6.1068,-6.2165,-6.2768,-6.3079,-6.3079,-6.3079,-6.3079,-6.3079,-6.3079,-6.3079,-6.3079,-6.3079,-6.3079,-6.3079,-6.3079,-6.3079,-6.3079,-6.3079,-6.3079,-6.3079,-6.3079,-6.3079,-6.3079,-6.8896,-6.8729,-6.9477,-7.2445,-7.3543,-7.4917,-7.7597,-7.9041,-7.9928,-8.0136,-7.966,-7.9083,-7.8578,-7.7799,-7.6892,-7.5794,-7.5285,-7.4256,-7.2492,-7.2529,-7.215,-7.1203,-7.1039,-7.1421,-7.2244,-7.1707,-6.9816,-6.6516,-6.1846,-5.7749,-5.4257,-4.9998,-4.9362,-5.1922,-5.4296,-5.7107,-6.025,-6.2381,-6.414,-6.5493,-6.5628,-6.5155,-6.441,-6.4546,-6.4512,-6.4512,-6.5358,-6.5865,-6.6203,-6.6677,-6.6896,-6.7056,-6.7056,-6.7188,-6.7503,-6.7892,-6.8083,-6.8336,-6.9008,-6.9594,-7.0106,-7.0454,-7.0914,-7.1312,-7.1312,-7.1312,-7.1312,-7.1312,-7.1413,-7.1175,-7.0085,-6.9581,-6.9222,-6.9176,-6.9077,-6.9536,-7.0974,-7.1501,-7.1163,-6.9525,-6.7479,-6.5073,-6.2211,-6.1278,-6.0236,-5.8819,-5.946,-5.9003,-5.6873,-5.7803,-5.8617,-5.9061,-6.0258,-6.1575,-6.3047,-6.3101,-6.3079,-6.3079,-6.3079,-6.3079,-6.3079,-6.3079,-6.3079,-6.3079,-6.3079,-6.3079,-6.3079,-6.3079,-6.3079,-6.3079,-6.3079,-6.3079,-6.3079,-6.3079,-6.3079,-6.3079,-7.24,-7.137,-7.1637,-7.567,-7.5055,-7.5256,-7.8956,-7.9135,-7.8845,-7.8983,-7.8488,-7.7998,-7.7603,-7.6613,-7.5562,-7.4403,-7.3691,-7.2892,-7.1904,-7.1868,-7.1598,-7.1041,-7.1222,-7.1458,-7.1816,-7.1724,-7.0411,-6.7839,-6.3627,-6.0106,-5.7216,-5.3647,-5.3172,-5.5348,-5.7654,-5.9719,-6.1569,-6.37,-6.4715,-6.4918,-6.5019,-6.4444,-6.3531,-6.3835,-6.3903,-6.3971,-6.4986,-6.5703,-6.6185,-6.6643,-6.7022,-6.7263,-6.7222,-6.7387,-6.7638,-6.7759,-6.8017,-6.8366,-6.8795,-6.9404,-7.0004,-7.042,-7.0914,-7.1312,-7.1312,-7.1312,-7.1312,-7.1312,-7.1086,-7.0825,-7.0561,-6.9185,-6.8402,-6.9409,-6.9097,-6.9073,-6.9903,-7.058,-7.0429,-6.8991,-6.5825,-6.3125,-6.1567,-5.9936,-5.8913,-5.8591,-6.0287,-6.0263,-5.772,-5.8645,-5.9249,-5.9259,-6.0312,-6.1655,-6.3241,-6.3105,-6.3079,-6.3079,-6.3079,-6.3079,-6.3079,-6.3079,-6.3079,-6.3079,-6.3079,-6.3079,-6.3079,-6.3079,-6.3079,-6.3079,-6.3079,-6.3079,-6.3079,-6.3079,-6.3079,-6.3079,-7.3924,-7.394,-7.4573,-7.8236,-7.8303,-7.807,-7.8802,-7.804,-7.7556,-7.7903,-7.703,-7.6461,-7.6771,-7.5934,-7.4403,-7.2216,-7.268,-7.2346,-7.0636,-7.1172,-7.1505,-7.13,-7.1312,-7.1312,-7.1345,-7.1041,-7.1007,-7.1278,-6.7232,-6.5462,-6.5739,-6.0547,-5.8366,-5.8964,-5.9742,-6.1738,-6.4546,-6.458,-6.5019,-6.5561,-6.4106,-6.3531,-6.3429,-6.2685,-6.3328,-6.458,-6.4613,-6.5684,-6.7139,-6.6896,-6.7105,-6.7469,-6.7263,-6.718,-6.7263,-6.7678,-6.8152,-6.861,-6.885,-6.9696,-7.0478,-7.0512,-7.0914,-7.1312,-7.1312,-7.1312,-7.1312,-7.1312,-7.1086,-7.0825,-7.0561,-7.033,-6.9943,-6.9197,-6.9476,-6.9362,-6.8199,-6.8839,-6.8517,-6.6124,-6.46,-6.3027,-6.1251,-6.0413,-5.9913,-5.9708,-6.0806,-6.0526,-5.8303,-5.9107,-5.9126,-5.8145,-5.9675,-6.1009,-6.2094,-6.2789,-6.3079,-6.3079,-6.3079,-6.3079,-6.3079,-6.3079,-6.3079,-6.3079,-6.3079,-6.3079,-6.3079,-6.3079,-6.3079,-6.3079,-6.3079,-6.3079,-6.3079,-6.3079,-6.3079,-6.3079,-7.5566,-7.5532,-7.5701,-7.6571,-7.6749,-7.6797,-7.6737,-7.6299,-7.6011,-7.6115,-7.4951,-7.3989,-7.3592,-7.3691,-7.3111,-7.1388,-7.128,-7.1098,-7.0536,-7.106,-7.1367,-7.1267,-7.1312,-7.1312,-7.1312,-7.1222,-7.1222,-7.1312,-6.7438,-6.464,-6.2764,-6.1104,-6.1201,-6.2821,-6.3057,-6.3971,-6.5324,-6.4816,-6.4444,-6.4174,-6.37,-6.3193,-6.2787,-6.3057,-6.3768,-6.4681,-6.5155,-6.6008,-6.6938,-6.7056,-6.718,-6.7346,-6.7516,-6.7597,-6.7741,-6.8377,-6.8679,-6.8871,-6.9301,-6.9979,-7.0512,-7.0512,-7.0914,-7.1312,-7.1312,-7.1312,-7.1312,-7.1312,-7.0916,-7.0608,-7.0515,-7.0223,-6.9874,-6.9595,-6.9282,-6.9011,-6.8961,-6.8361,-6.7557,-6.6608,-6.476,-6.2835,-6.105,-6.0426,-6.0032,-5.9791,-5.9685,-5.9247,-5.8323,-5.9804,-6.0259,-5.9209,-6.0761,-6.2105,-6.3179,-6.3105,-6.3079,-6.3079,-6.3079,-6.3079,-6.3079,-6.3079,-6.3079,-6.3079,-6.3079,-6.3079,-6.3079,-6.3079,-6.3079,-6.3079,-6.3079,-6.3079,-6.3079,-6.3079,-6.3079,-6.3079,-7.596,-7.5927,-7.5846,-7.5586,-7.555,-7.5514,-7.5553,-7.4953,-7.4469,-7.4469,-7.3442,-7.2415,-7.1686,-7.2018,-7.1786,-7.0593,-7.0315,-7.0283,-7.041,-7.0687,-7.095,-7.1007,-7.1131,-7.1131,-7.1007,-7.1222,-7.1222,-7.1007,-6.8196,-6.5782,-6.3768,-6.3193,-6.37,-6.4986,-6.4715,-6.485,-6.5222,-6.4512,-6.3937,-6.3497,-6.3193,-6.2821,-6.2448,-6.2922,-6.3734,-6.4647,-6.5121,-6.5974,-6.6972,-6.7139,-6.7304,-6.7503,-6.798,-6.813,-6.8314,-6.8754,-6.9056,-6.9309,-6.9851,-7.042,-7.0822,-7.0822,-7.1029,-7.1312,-7.1312,-7.1312,-7.1312,-7.1312,-7.0961,-7.0608,-7.0515,-7.0223,-6.9941,-6.9798,-6.9169,-6.8746,-6.8723,-6.7468,-6.6256,-6.5554,-6.3945,-6.2329,-6.0894,-6.0328,-5.9869,-5.9444,-5.9345,-5.8967,-5.8293,-5.9637,-6.0248,-5.9884,-6.1313,-6.2521,-6.3462,-6.324,-6.3079,-6.3079,-6.3079,-6.3079,-6.3079,-6.3079,-6.3079,-6.3079,-6.3079,-6.3079,-6.3079,-6.3079,-6.3079,-6.3079,-6.3079,-6.3079,-6.3079,-6.3079,-6.3079,-6.3079,-7.5198,-7.5098,-7.5098,-7.4999,-7.4436,-7.4237,-7.4867,-7.384,-7.2945,-7.2945,-7.2316,-7.1587,-7.0891,-7.0792,-7.0461,-6.9765,-6.9765,-6.9907,-7.011,-7.0143,-7.0316,-7.0469,-7.0733,-7.0779,-7.0515,-7.1007,-7.0973,-7.0448,-6.9267,-6.8378,-6.7751,-6.6373,-6.5662,-6.5561,-6.485,-6.4512,-6.4478,-6.3734,-6.3429,-6.3362,-6.2685,-6.2381,-6.2381,-6.2381,-6.326,-6.4546,-6.458,-6.5691,-6.7112,-6.7222,-6.7503,-6.7965,-6.8446,-6.8768,-6.8925,-6.8987,-6.9336,-6.9885,-7.042,-7.0948,-7.1312,-7.1312,-7.1312,-7.1312,-7.1312,-7.1312,-7.1312,-7.1312,-7.1086,-7.0825,-7.0561,-7.0363,-7.0129,-6.9827,-6.915,-6.8387,-6.7671,-6.6299,-6.4906,-6.3547,-6.2647,-6.1819,-6.1069,-6.0407,-5.9777,-5.9024,-5.9524,-5.9423,-5.8278,-5.8837,-5.9471,-6.0141,-6.1463,-6.245,-6.3079,-6.3079,-6.3079,-6.3079,-6.3079,-6.3079,-6.3079,-6.3079,-6.3079,-6.3079,-6.3079,-6.3079,-6.3079,-6.3079,-6.3079,-6.3079,-6.3079,-6.3079,-6.3079,-6.3079,-6.3079,-6.3079,-7.3011,-7.3243,-7.3276,-7.2117,-7.225,-7.2382,-7.1985,-7.1653,-7.1421,-7.1421,-7.0792,-7.0262,-7.0063,-6.9566,-6.9136,-6.897,-6.9656,-6.9896,-6.9377,-7.0029,-7.0423,-7.0515,-7.0561,-7.0561,-7.0515,-7.0825,-7.0647,-6.9951,-6.9121,-6.8055,-6.6828,-6.6052,-6.5392,-6.4816,-6.4106,-6.3768,-6.3734,-6.2956,-6.2651,-6.2651,-6.2448,-6.2381,-6.2381,-6.2381,-6.2956,-6.3835,-6.441,-6.5311,-6.6398,-6.7182,-6.7885,-6.8487,-6.8741,-6.885,-6.909,-6.9885,-7.0234,-7.041,-7.0971,-7.1221,-7.1312,-7.1312,-7.1312,-7.1312,-7.1312,-7.1312,-7.1312,-7.1312,-7.1086,-7.0825,-7.0561,-7.0363,-7.0056,-6.9549,-6.8894,-6.8048,-6.7026,-6.5837,-6.4953,-6.4653,-6.4573,-6.4416,-6.3988,-6.3098,-6.2234,-6.1451,-5.9152,-5.8189,-5.9152,-5.9122,-5.9657,-6.0835,-6.2151,-6.2929,-6.3079,-6.3079,-6.3079,-6.3079,-6.3079,-6.3079,-6.3079,-6.3079,-6.3079,-6.3079,-6.3079,-6.3079,-6.3079,-6.3079,-6.3079,-6.3079,-6.3079,-6.3079,-6.3079,-6.3079,-6.3079,-6.3079,-7.2216,-7.2316,-7.225,-7.109,-7.1223,-7.1355,-7.0958,-7.0593,-7.0394,-7.0394,-7.003,-6.9798,-6.9798,-6.9434,-6.8937,-6.8274,-6.8712,-6.8825,-6.8427,-6.8898,-6.9144,-6.9144,-6.9282,-6.9449,-6.969,-7.0046,-6.986,-6.9088,-6.8294,-6.7399,-6.6507,-6.5859,-6.541,-6.5053,-6.4343,-6.4005,-6.3971,-6.3226,-6.2888,-6.2854,-6.2516,-6.2381,-6.2381,-6.2381,-6.2854,-6.3599,-6.4464,-6.5257,-6.6167,-6.7277,-6.7912,-6.8289,-6.8747,-6.9049,-6.9438,-7.0259,-7.0318,-7.0327,-7.1096,-7.1312,-7.1312,-7.1312,-7.1312,-7.1312,-7.1312,-7.1312,-7.1312,-7.1312,-7.1176,-7.1007,-7.0733,-7.0385,-7.005,-6.9647,-6.789,-6.6522,-6.644,-6.4715,-6.3902,-6.5057,-6.5293,-6.5598,-6.6143,-6.5514,-6.4261,-6.2432,-6.1184,-6.0206,-5.9357,-6.0331,-6.0984,-6.1104,-6.2391,-6.3079,-6.3079,-6.3079,-6.3079,-6.3079,-6.3079,-6.3079,-6.3079,-6.3079,-6.3079,-6.3079,-6.3079,-6.3079,-6.3079,-6.3079,-6.3079,-6.3079,-6.3079,-6.3079,-6.3079,-6.2905,-6.2847,-6.2847,-7.1852,-7.1852,-7.172,-7.0891,-7.0726,-7.0726,-7.0726,-7.0196,-6.9798,-6.9798,-6.9798,-6.9798,-6.9798,-6.9699,-6.9069,-6.7698,-6.7466,-6.74,-6.74,-6.7533,-6.7566,-6.7566,-6.7796,-6.814,-6.8506,-6.8957,-6.8851,-6.8082,-6.7302,-6.67,-6.6262,-6.5665,-6.5454,-6.5493,-6.4884,-6.4546,-6.441,-6.3768,-6.3463,-6.3294,-6.2651,-6.2381,-6.2415,-6.2516,-6.2956,-6.3632,-6.4686,-6.5481,-6.6242,-6.7439,-6.7868,-6.8074,-6.8685,-6.9213,-6.973,-7.0327,-7.014,-6.9944,-7.0995,-7.1312,-7.1312,-7.1312,-7.1312,-7.1312,-7.1312,-7.1312,-7.1312,-7.1312,-7.1312,-7.1222,-7.0961,-7.0513,-7.0062,-6.9581,-6.6981,-6.5234,-6.5706,-6.3701,-6.2991,-6.5094,-6.5603,-6.6287,-6.7645,-6.7327,-6.588,-6.3196,-6.3867,-6.3012,-5.9722,-6.1702,-6.2421,-6.1313,-6.245,-6.3079,-6.3079,-6.3079,-6.3079,-6.3079,-6.3079,-6.3079,-6.3079,-6.3079,-6.3079,-6.3079,-6.3079,-6.3079,-6.3079,-6.3079,-6.3079,-6.3021,-6.3021,-6.3021,-6.2905,-6.2615,-6.2498,-6.2498,-7.0527,-7.1156,-7.1587,-7.0196,-6.9964,-6.9964,-6.9964,-6.9864,-6.9798,-6.9798,-6.9798,-6.9798,-6.9798,-6.9235,-6.8539,-6.7632,-6.7003,-6.6684,-6.6684,-6.7235,-6.7566,-6.7566,-6.7612,-6.7724,-6.7777,-6.7824,-6.7629,-6.7123,-6.6945,-6.6345,-6.5234,-6.5346,-6.5185,-6.4783,-6.4647,-6.4241,-6.3666,-6.3565,-6.3159,-6.255,-6.2448,-6.2381,-6.2448,-6.3091,-6.3429,-6.37,-6.5298,-6.6078,-6.6485,-6.7479,-6.8211,-6.8754,-6.8857,-6.8953,-6.9255,-7.0414,-7.0269,-6.9944,-7.0995,-7.1312,-7.1312,-7.1312,-7.1312,-7.1312,-7.1312,-7.1312,-7.1312,-7.1312,-7.1312,-7.1222,-7.0961,-7.0815,-7.0198,-6.8475,-6.7879,-6.6818,-6.447,-6.4681,-6.5068,-6.5039,-6.6379,-6.7612,-6.844,-6.7637,-6.6735,-6.5868,-6.4106,-6.2646,-6.1669,-6.2032,-6.2151,-6.1942,-6.269,-6.3079,-6.3079,-6.3079,-6.3079,-6.3079,-6.3079,-6.3079,-6.3079,-6.3079,-6.3079,-6.3079,-6.3079,-6.3079,-6.3079,-6.3079,-6.2905,-6.2673,-6.2673,-6.2468,-6.2234,-6.2175,-6.2175,-6.2175,-7.0593,-7.0626,-7.0593,-6.9931,-6.9798,-6.9798,-6.9798,-6.9798,-6.9798,-6.9798,-6.9798,-6.9798,-6.9798,-6.95,-6.9003,-6.8274,-6.7546,-6.6904,-6.6552,-6.6485,-6.6452,-6.6452,-6.6452,-6.6452,-6.6452,-6.6452,-6.6332,-6.6057,-6.6057,-6.5946,-6.5593,-6.5722,-6.5564,-6.5189,-6.5189,-6.4783,-6.4072,-6.3666,-6.3328,-6.2956,-6.255,-6.2618,-6.3024,-6.3396,-6.3768,-6.4282,-6.5691,-6.6302,-6.6559,-6.7639,-6.8166,-6.8475,-6.8475,-6.8979,-6.968,-7.0283,-7.0584,-7.0837,-7.1198,-7.1312,-7.1312,-7.1312,-7.1312,-7.1312,-7.1312,-7.1312,-7.1312,-7.1312,-7.1312,-7.1267,-7.1131,-7.085,-7.0419,-6.9585,-6.7584,-6.5989,-6.5495,-6.4857,-6.4757,-6.5724,-6.7343,-6.8705,-6.9577,-6.8549,-6.7404,-6.6345,-6.4764,-6.3318,-6.2148,-6.2421,-6.263,-6.263,-6.2929,-6.3079,-6.3079,-6.3079,-6.3079,-6.3079,-6.3079,-6.3079,-6.3079,-6.3079,-6.3079,-6.3079,-6.3079,-6.3021,-6.2847,-6.2847,-6.2615,-6.2292,-6.2292,-6.2234,-6.2116,-6.191,-6.185,-6.1791,-7.0693,-7.0328,-6.9997,-6.9831,-6.9798,-6.9798,-6.9798,-6.9798,-6.9732,-6.9566,-6.9666,-6.9666,-6.9334,-6.9599,-6.9368,-6.8274,-6.7844,-6.7202,-6.6275,-6.5724,-6.5425,-6.5425,-6.526,-6.5094,-6.4929,-6.5094,-6.5194,-6.5194,-6.5326,-6.5614,-6.6095,-6.5928,-6.5816,-6.5662,-6.5493,-6.5019,-6.4309,-6.3768,-6.3429,-6.3193,-6.2618,-6.2854,-6.3531,-6.37,-6.4248,-6.5074,-6.6261,-6.6696,-6.6844,-6.7792,-6.8221,-6.8359,-6.8359,-6.9204,-7.0216,-7.0388,-7.1054,-7.1688,-7.1401,-7.1312,-7.1312,-7.1312,-7.1312,-7.1312,-7.1312,-7.1312,-7.1312,-7.1312,-7.1312,-7.1312,-7.1312,-7.0982,-7.0624,-7.0285,-6.7625,-6.5875,-6.6464,-6.5493,-6.527,-6.6801,-6.8548,-6.9695,-7.009,-6.9187,-6.7813,-6.602,-6.5156,-6.3995,-6.2418,-6.281,-6.3079,-6.3079,-6.3079,-6.3079,-6.3079,-6.3079,-6.3079,-6.3079,-6.3079,-6.3079,-6.3079,-6.3079,-6.3079,-6.3079,-6.3021,-6.2847,-6.2615,-6.2498,-6.2292,-6.1969,-6.1969,-6.1939,-6.188,-6.1613,-6.1494,-6.1494,-7.003,-7.0394,-7.0593,-6.9931,-6.9798,-6.9798,-6.9798,-6.9798,-6.9533,-6.8871,-6.9368,-6.9268,-6.7943,-6.9003,-6.8937,-6.6883,-6.7235,-6.697,-6.5591,-6.5459,-6.5425,-6.5425,-6.4763,-6.41,-6.3481,-6.41,-6.4465,-6.4465,-6.5094,-6.5614,-6.6095,-6.5426,-6.5312,-6.5662,-6.4986,-6.4275,-6.3599,-6.3531,-6.3125,-6.2482,-6.2415,-6.2854,-6.3599,-6.4275,-6.5108,-6.6058,-6.7052,-6.7529,-6.7731,-6.8004,-6.8601,-6.9187,-6.9187,-6.9739,-7.0532,-7.1222,-7.1805,-7.2115,-7.1491,-7.1312,-7.1312,-7.1312,-7.1312,-7.1312,-7.1312,-7.1312,-7.1312,-7.1312,-7.1312,-7.1312,-7.1312,-7.1423,-7.0852,-6.8821,-6.8955,-6.847,-6.6117,-6.7557,-6.8802,-6.856,-7.0007,-7.0486,-6.9073,-6.883,-6.7673,-6.5025,-6.4758,-6.4178,-6.3104,-6.3049,-6.3079,-6.3079,-6.3079,-6.3079,-6.3079,-6.3079,-6.3079,-6.3079,-6.3079,-6.3079,-6.3079,-6.3079,-6.3079,-6.3079,-6.2789,-6.2615,-6.2556,-6.2234,-6.191,-6.1673,-6.1673,-6.1523,-6.1253,-6.1253,-6.1253,-6.1253,-6.9864,-7.003,-7.0129,-6.9831,-6.9798,-6.9798,-6.9798,-6.9798,-6.9699,-6.9401,-6.9235,-6.9069,-6.897,-6.9069,-6.897,-6.8572,-6.8374,-6.8042,-6.7479,-6.6585,-6.569,-6.4763,-6.3603,-6.2875,-6.2652,-6.2917,-6.305,-6.305,-6.3736,-6.4241,-6.4543,-6.437,-6.4254,-6.4139,-6.3836,-6.3296,-6.2554,-6.2554,-6.2386,-6.2189,-6.2341,-6.2854,-6.3599,-6.447,-6.5298,-6.6167,-6.7283,-6.7719,-6.7908,-6.863,-6.9015,-6.94,-6.9808,-7.0463,-7.1181,-7.1813,-7.2133,-7.2245,-7.181,-7.159,-7.1501,-7.1501,-7.1367,-7.1312,-7.1312,-7.1312,-7.1312,-7.1312,-7.1312,-7.1312,-7.1312,-7.1356,-7.1185,-7.0478,-6.997,-6.9467,-6.877,-6.9203,-6.9569,-6.961,-7.069,-7.13,-7.086,-6.9103,-6.7641,-6.6771,-6.4868,-6.3535,-6.3137,-6.3079,-6.3079,-6.3079,-6.3079,-6.3079,-6.3079,-6.3079,-6.3079,-6.3079,-6.3079,-6.3079,-6.3079,-6.3079,-6.3079,-6.3079,-6.2963,-6.2673,-6.2292,-6.2175,-6.1821,-6.1344,-6.1344,-6.1313,-6.1193,-6.1193,-6.1193,-6.1193,-6.9798,-6.9798,-6.9798,-6.9798,-6.9798,-6.9798,-6.9798,-6.9599,-6.9368,-6.9136,-6.8871,-6.8705,-6.8771,-6.8937,-6.9069,-6.9103,-6.8837,-6.8606,-6.8374,-6.6982,-6.5525,-6.4034,-6.2808,-6.2122,-6.1848,-6.2089,-6.2221,-6.2221,-6.2951,-6.3401,-6.3615,-6.3517,-6.3316,-6.306,-6.2825,-6.2461,-6.1997,-6.1917,-6.1997,-6.215,-6.2183,-6.2837,-6.3903,-6.4538,-6.5515,-6.6589,-6.7585,-6.8062,-6.8401,-6.9157,-6.9652,-7.0049,-7.0567,-7.1256,-7.1939,-7.2329,-7.2416,-7.2373,-7.2159,-7.1942,-7.1688,-7.16,-7.1457,-7.1312,-7.1312,-7.1312,-7.1312,-7.1312,-7.1312,-7.1312,-7.1312,-7.1401,-7.1433,-7.1294,-7.084,-7.0516,-7.0617,-7.0542,-7.0619,-7.0828,-7.1513,-7.161,-7.0793,-6.8829,-6.7304,-6.6459,-6.4346,-6.3137,-6.3252,-6.3137,-6.3137,-6.3252,-6.3137,-6.3079,-6.3079,-6.3079,-6.3079,-6.3079,-6.3079,-6.3079,-6.3079,-6.3079,-6.3079,-6.3079,-6.3021,-6.2673,-6.2234,-6.2116,-6.1821,-6.1344,-6.1344,-6.1253,-6.1193,-6.1193,-6.1193,-6.1193,-6.9798,-6.9798,-6.9798,-6.9798,-6.9798,-6.9798,-6.9798,-6.9169,-6.844,-6.7744,-6.8241,-6.8142,-6.6684,-6.8473,-6.9202,-6.7731,-6.8307,-6.8407,-6.7678,-6.6254,-6.4796,-6.3415,-6.2619,-6.1848,-6.1152,-6.1815,-6.2221,-6.2221,-6.2951,-6.3401,-6.3581,-6.2849,-6.2607,-6.2747,-6.2011,-6.183,-6.1997,-6.179,-6.1984,-6.2341,-6.187,-6.2858,-6.458,-6.462,-6.5814,-6.7537,-6.8038,-6.8686,-6.9354,-6.9617,-7.0504,-7.1498,-7.1498,-7.205,-7.2713,-7.2713,-7.2713,-7.2628,-7.2373,-7.2159,-7.1942,-7.1644,-7.1457,-7.1312,-7.1312,-7.1312,-7.1312,-7.1312,-7.1312,-7.1312,-7.1312,-7.1712,-7.1659,-7.0692,-7.1516,-7.197,-7.0926,-7.1645,-7.2331,-7.2331,-7.2544,-7.142,-6.8257,-6.796,-6.6615,-6.3394,-6.3137,-6.3252,-6.3481,-6.3252,-6.3252,-6.3481,-6.3252,-6.3079,-6.3079,-6.3079,-6.3079,-6.3079,-6.3079,-6.3079,-6.3079,-6.3079,-6.3079,-6.3079,-6.2731,-6.2615,-6.2556,-6.2234,-6.191,-6.1613,-6.1613,-6.1464,-6.1193,-6.1193,-6.1193,-6.1193,-6.9798,-6.9798,-6.9798,-6.9798,-6.9798,-6.9798,-6.9798,-6.9599,-6.9401,-6.9169,-6.844,-6.8175,-6.8738,-6.8473,-6.8506,-6.9103,-6.9334,-6.9169,-6.8407,-6.7479,-6.632,-6.4829,-6.3603,-6.2842,-6.2643,-6.2884,-6.2719,-6.2221,-6.242,-6.2288,-6.1832,-6.1767,-6.1758,-6.1806,-6.1606,-6.1506,-6.1588,-6.1506,-6.1547,-6.1736,-6.2238,-6.2822,-6.3523,-6.5236,-6.6238,-6.6905,-6.8276,-6.9135,-6.9659,-7.0285,-7.095,-7.1601,-7.2153,-7.254,-7.2713,-7.2713,-7.2586,-7.2416,-7.2331,-7.2029,-7.1688,-7.16,-7.1457,-7.1312,-7.1312,-7.1412,-7.1546,-7.1546,-7.1678,-7.1766,-7.1766,-7.1766,-7.162,-7.1294,-7.1727,-7.2004,-7.1678,-7.2193,-7.2586,-7.2586,-7.2628,-7.2339,-7.1376,-7.0235,-6.8796,-6.6894,-6.4899,-6.3766,-6.388,-6.3538,-6.3424,-6.3538,-6.3252,-6.3079,-6.3079,-6.3079,-6.3079,-6.3079,-6.3079,-6.3079,-6.3079,-6.3079,-6.3079,-6.3079,-6.3021,-6.2643,-6.2234,-6.2116,-6.1821,-6.1284,-6.1284,-6.1253,-6.1193,-6.1193,-6.1193,-6.1193,-6.9798,-6.9798,-6.9798,-6.9798,-6.9798,-6.9798,-6.9798,-6.9533,-6.9268,-6.897,-6.8175,-6.7976,-6.8837,-6.8407,-6.8506,-6.9699,-6.9798,-6.9599,-6.9169,-6.844,-6.7645,-6.6751,-6.5326,-6.4167,-6.3348,-6.3315,-6.3083,-6.2652,-6.2354,-6.1947,-6.1516,-6.1343,-6.1293,-6.1293,-6.1293,-6.1334,-6.1383,-6.1334,-6.1542,-6.2007,-6.2733,-6.345,-6.4321,-6.6057,-6.6916,-6.7483,-6.8827,-6.9659,-7.0234,-7.0899,-7.1482,-7.205,-7.2575,-7.2713,-7.2713,-7.2713,-7.2586,-7.2459,-7.2331,-7.2081,-7.1864,-7.1776,-7.159,-7.1457,-7.158,-7.1678,-7.1732,-7.1732,-7.1898,-7.1985,-7.1985,-7.1942,-7.1864,-7.1776,-7.2072,-7.2202,-7.2029,-7.2331,-7.2544,-7.2544,-7.2544,-7.2339,-7.1805,-7.0861,-6.9599,-6.7894,-6.5406,-6.4141,-6.4527,-6.4001,-6.3709,-6.3709,-6.3424,-6.3194,-6.3079,-6.3079,-6.3079,-6.3079,-6.3079,-6.3079,-6.3079,-6.3079,-6.3021,-6.2905,-6.2905,-6.2615,-6.2116,-6.2116,-6.1821,-6.1344,-6.1344,-6.1284,-6.1193,-6.1193,-6.1193,-6.1193,-6.9798,-6.9798,-6.9798,-6.9798,-6.9798,-6.9798,-6.9798,-6.9235,-6.8539,-6.791,-6.7665,-6.7645,-6.7665,-6.8175,-6.8837,-6.9633,-6.9765,-6.9798,-6.9798,-6.9103,-6.8672,-6.8606,-6.7247,-6.5558,-6.3504,-6.3471,-6.3481,-6.3415,-6.2685,-6.2288,-6.2188,-6.1516,-6.1218,-6.1218,-6.1218,-6.131,-6.1442,-6.1335,-6.1891,-6.2891,-6.3378,-6.4627,-6.6243,-6.7012,-6.7848,-6.873,-6.9547,-7.0263,-7.0942,-7.1494,-7.2081,-7.2671,-7.2671,-7.2671,-7.2713,-7.2713,-7.2671,-7.2586,-7.2373,-7.2288,-7.2245,-7.2072,-7.182,-7.1732,-7.1942,-7.1985,-7.2029,-7.2029,-7.2029,-7.2072,-7.2072,-7.2202,-7.2245,-7.2029,-7.2373,-7.2501,-7.2072,-7.2202,-7.2331,-7.2331,-7.2331,-7.1873,-7.0635,-7.0373,-6.943,-6.7313,-6.5355,-6.4575,-6.5417,-6.4554,-6.4049,-6.4049,-6.3709,-6.3424,-6.3194,-6.3194,-6.3137,-6.3079,-6.3079,-6.3079,-6.3079,-6.3079,-6.2905,-6.2615,-6.2556,-6.2351,-6.2057,-6.2057,-6.185,-6.1554,-6.1554,-6.1404,-6.1193,-6.1193,-6.1193,-6.1193,-6.9798,-6.9798,-6.9798,-6.9798,-6.9798,-6.9798,-6.9798,-6.9666,-6.95,-6.9334,-6.8341,-6.7844,-6.8407,-6.7579,-6.7512,-6.8804,-6.9467,-6.9798,-6.9798,-6.9103,-6.844,-6.7877,-6.7016,-6.6022,-6.4962,-6.4962,-6.4697,-6.4133,-6.3448,-6.2785,-6.2221,-6.2056,-6.1947,-6.1947,-6.1947,-6.1989,-6.2065,-6.2619,-6.2993,-6.3335,-6.5105,-6.6034,-6.6555,-6.7849,-6.8493,-6.8818,-6.977,-7.0556,-7.123,-7.1883,-7.2288,-7.2416,-7.2416,-7.2544,-7.2713,-7.2713,-7.2544,-7.2373,-7.2331,-7.2202,-7.2072,-7.2202,-7.2202,-7.2115,-7.2029,-7.2115,-7.2245,-7.2245,-7.2416,-7.2544,-7.2544,-7.2416,-7.2288,-7.2245,-7.2331,-7.2373,-7.2245,-7.2459,-7.2628,-7.2628,-7.2628,-7.2501,-7.2219,-7.1243,-7.0196,-6.9231,-6.7301,-6.6081,-6.5786,-6.4835,-6.427,-6.427,-6.4019,-6.388,-6.3823,-6.3823,-6.3595,-6.3079,-6.3079,-6.3079,-6.3079,-6.2847,-6.2673,-6.2615,-6.2292,-6.2057,-6.1732,-6.1732,-6.1554,-6.1313,-6.1313,-6.1253,-6.1193,-6.1193,-6.1193,-6.1193,-6.9268,-6.9566,-6.9798,-6.9798,-6.9798,-6.9798,-6.9798,-6.9798,-6.9666,-6.9301,-6.8307,-6.7777,-6.8142,-6.7181,-6.7115,-6.8572,-6.9368,-6.9633,-6.9301,-6.8904,-6.8374,-6.7599,-6.687,-6.6353,-6.5955,-6.5591,-6.5227,-6.4862,-6.4133,-6.357,-6.3249,-6.2917,-6.2719,-6.2719,-6.2719,-6.2719,-6.2785,-6.3471,-6.3968,-6.4465,-6.632,-6.7247,-6.7678,-6.8804,-6.9296,-6.9503,-7.0136,-7.0791,-7.1478,-7.1951,-7.2159,-7.2159,-7.2159,-7.2245,-7.2373,-7.2373,-7.2331,-7.2331,-7.2331,-7.2331,-7.2373,-7.2459,-7.2501,-7.2459,-7.2373,-7.2416,-7.2501,-7.2501,-7.2586,-7.2713,-7.2713,-7.2862,-7.2871,-7.2365,-7.2691,-7.2794,-7.2236,-7.2373,-7.2501,-7.2501,-7.2501,-7.2544,-7.2671,-7.1096,-6.9988,-6.9796,-6.7703,-6.6215,-6.5929,-6.509,-6.4579,-6.4382,-6.43,-6.4284,-6.4448,-6.4448,-6.4314,-6.3977,-6.3348,-6.2991,-6.2847,-6.2468,-6.2292,-6.2116,-6.191,-6.1673,-6.1404,-6.1404,-6.1344,-6.1193,-6.1193,-6.1193,-6.1193,-6.1193,-6.1193,-6.1193,-6.8639,-6.9169,-6.9633,-6.9765,-6.9798,-6.9798,-6.9798,-6.9798,-6.9566,-6.897,-6.8241,-6.7665,-6.7433,-6.6784,-6.6883,-6.8208,-6.9003,-6.9202,-6.8705,-6.844,-6.8042,-6.7446,-6.6717,-6.632,-6.632,-6.5724,-6.5492,-6.5591,-6.473,-6.4399,-6.4531,-6.3802,-6.3514,-6.3514,-6.3514,-6.3514,-6.3504,-6.42,-6.4929,-6.5724,-6.7214,-6.8241,-6.8937,-6.9614,-6.9988,-7.0223,-7.0502,-7.0973,-7.1556,-7.1854,-7.1942,-7.1942,-7.1942,-7.1942,-7.1985,-7.2029,-7.2159,-7.2331,-7.2373,-7.2544,-7.2671,-7.2628,-7.2628,-7.2628,-7.2586,-7.2628,-7.2713,-7.2713,-7.2816,-7.2877,-7.2835,-7.3421,-7.3611,-7.264,-7.3189,-7.3362,-7.2218,-7.2304,-7.2459,-7.2416,-7.2416,-7.2502,-7.275,-7.1084,-7.0026,-7.0089,-6.7991,-6.6592,-6.6242,-6.5596,-6.5053,-6.4677,-6.4677,-6.4784,-6.5136,-6.5167,-6.5125,-6.5083,-6.3767,-6.2967,-6.2676,-6.2352,-6.1968,-6.1613,-6.1554,-6.1404,-6.1193,-6.1193,-6.1193,-6.1193,-6.1193,-6.1193,-6.1193,-6.1193,-6.1193,-6.1193,-6.844,-6.8771,-6.9036,-6.9666,-6.9798,-6.9798,-6.9798,-6.9798,-6.9765,-6.9666,-6.9003,-6.8076,-6.6817,-6.6022,-6.5922,-6.6751,-6.7479,-6.8142,-6.8639,-6.7512,-6.6784,-6.6639,-6.5955,-6.5558,-6.5558,-6.5459,-6.5724,-6.6386,-6.5028,-6.4697,-6.526,-6.4564,-6.4233,-6.4233,-6.4233,-6.4233,-6.4266,-6.4962,-6.569,-6.6485,-6.7943,-6.897,-6.9713,-7.0002,-7.0176,-7.0223,-7.0687,-7.1052,-7.1401,-7.1556,-7.1644,-7.1644,-7.1644,-7.181,-7.2029,-7.2202,-7.2288,-7.2373,-7.2586,-7.2671,-7.2628,-7.2416,-7.2373,-7.2331,-7.2115,-7.2416,-7.2713,-7.2713,-7.3188,-7.3594,-7.3378,-7.3953,-7.4228,-7.3395,-7.336,-7.3154,-7.2391,-7.2837,-7.3205,-7.303,-7.2986,-7.303,-7.303,-7.2788,-7.2257,-7.1425,-7.0442,-6.9255,-6.7711,-6.7012,-6.6309,-6.5724,-6.5693,-6.5699,-6.5791,-6.5791,-6.5674,-6.5439,-6.4363,-6.3593,-6.306,-6.2671,-6.2229,-6.1613,-6.1344,-6.1253,-6.1193,-6.1193,-6.1193,-6.1193,-6.1193,-6.1193,-6.1193,-6.1193,-6.1193,-6.1193,-6.7281,-6.8142,-6.8804,-6.9103,-6.9533,-6.9798,-6.9798,-6.9798,-6.9798,-6.9798,-6.8804,-6.7844,-6.7214,-6.6485,-6.6154,-6.6485,-6.7135,-6.7579,-6.7479,-6.7281,-6.6949,-6.6552,-6.6585,-6.6651,-6.6651,-6.6651,-6.7016,-6.7744,-6.5856,-6.5326,-6.6022,-6.5293,-6.4962,-6.4962,-6.4962,-6.4962,-6.4995,-6.5724,-6.6452,-6.7214,-6.8274,-6.923,-7.0035,-7.0129,-7.0363,-7.0641,-7.0995,-7.1222,-7.1312,-7.1412,-7.1412,-7.1412,-7.1412,-7.1501,-7.1634,-7.182,-7.2029,-7.2159,-7.2288,-7.2373,-7.2519,-7.2716,-7.2731,-7.2834,-7.3147,-7.3382,-7.342,-7.3008,-7.3523,-7.3993,-7.3861,-7.4477,-7.4535,-7.3205,-7.384,-7.4022,-7.2727,-7.2917,-7.3074,-7.2532,-7.2498,-7.2507,-7.2638,-7.27,-7.2458,-7.162,-7.0726,-6.967,-6.8388,-6.744,-6.6611,-6.5934,-6.6273,-6.6287,-6.5914,-6.5945,-6.57,-6.5171,-6.4457,-6.3593,-6.2789,-6.2136,-6.1695,-6.1344,-6.1253,-6.1193,-6.1193,-6.1193,-6.1193,-6.1193,-6.1193,-6.1193,-6.1193,-6.1193,-6.1193,-6.1193]},{"header":{"parameterUnit":"m.s-1","parameterCategory":1,"la1":30.6,"la2":28.766,"lo1":-90.7593,"lo2":-88.6598,"dy":0.0162,"dx":0.0183,"nx":116,"ny":114,"refTime":"2024-04-13T12:00:00:Z","depth":0,"parameterNumber":3,"parameterNumberName":"V-component_of_WINDS"},"data":[0.0,0.0,0.0,0.0,0.0,0.0,0.0,0.0,0.0,0.0,0.0,0.0,0.0,0.0,0.0,0.0,0.0,0.0,0.0,0.0,0.0,0.0,0.0,0.0,0.0,0.0,0.0,0.0,0.0,0.0,0.0,0.0,0.0,0.0,0.0,0.0,0.0,0.0,0.0,0.0,0.0,0.0,0.0,0.0,0.0,0.0,0.0,0.0,0.0,0.0,0.0,0.0,0.0,0.0,0.0,0.0,0.0,0.0,0.0,0.0,0.0,0.0,0.0,0.0,0.0,0.0,0.0,0.0,0.0,0.0,0.0,0.0,0.0,0.0,0.0,0.0,0.0,0.0,0.0,0.0,0.0,0.0,0.0,0.0,0.0,0.0,0.0,0.0,0.0,0.0,0.0,0.0,0.0,0.0,0.0,0.0,0.0,0.0,0.0,0.0,0.0,0.0,0.0,0.0,0.0,0.0,0.0,0.0,0.0,0.0,0.0,0.0,0.0,0.0,0.0,0.0,0.0,0.0,0.0,0.0,0.0,0.0,0.0,0.0,0.0,0.0,0.0,0.0,0.0,0.0,0.0,0.0,0.0,0.0,0.0,0.0,0.0,0.0,0.0,0.0,0.0,0.0,0.0,0.0,0.0,0.0,0.0,0.0,0.0,0.0,0.0,0.0,0.0,0.0,0.0,0.0,0.0,0.0,0.0,0.0,0.0,0.0,0.0,0.0,0.0,0.0,0.0,0.0,0.0,0.0,0.0,0.0,0.0,0.0,0.0,0.0,0.0,0.0,0.0,0.0,0.0,0.0,0.0,0.0,0.0,0.0,0.0,0.0,0.0,0.0,0.0,0.0,0.0,0.0,0.0,0.0,0.0,0.0,0.0,0.0,0.0,0.0,0.0,0.0,0.0,0.0,0.0,0.0,0.0,0.0,0.0,0.0,0.0,0.0,0.0,0.0,0.0,0.0,0.0,0.0,0.0,0.0,0.0,0.0,0.0,0.0,0.0,0.0,0.0,0.0,0.0,0.0,0.0,0.0,0.0,0.0,0.0,0.0,0.0,0.0,0.0,0.0,0.0,0.0,0.0,0.0,0.0,0.0,0.0,0.0,0.0,0.0,0.0,0.0,0.0,0.0,0.0,0.0,0.0,0.0,0.0,0.0,0.0,0.0,0.0,0.0,0.0,0.0,0.0,0.0,0.0,0.0,0.0,0.0,0.0,0.0,0.0,0.0,0.0,0.0,0.0,0.0,0.0,0.0,0.0,0.0,0.0,0.0,0.0,0.0,0.0,0.0,0.0,0.0,0.0,0.0,0.0,0.0,0.0,0.0,0.0,0.0,0.0,0.0,0.0,0.0,0.0,0.0,0.0,0.0,0.0,0.0,0.0,0.0,0.0,0.0,0.0,0.0,0.0,0.0,0.0,0.0,0.0,0.0,0.0,0.0,0.0,0.0,0.0,0.0,0.0,0.0,0.0,0.0,0.0,0.0,0.0,0.0,0.0,0.0,0.0,0.0,0.0,0.0,0.0,0.0,0.0,0.0,0.0,0.0,0.0,0.0,0.0,0.0,0.0,0.0,0.0,0.0,0.0,0.0,0.0,0.0,0.0,0.0,0.0,0.0,0.0,0.0,0.0,0.0,0.0,0.0,0.0,0.0,0.0,0.0,0.0,0.0,0.0,0.0,0.0,0.0,0.0,0.0,0.0,0.0,0.0,0.0,0.0,0.0,0.0,0.0,0.0,0.0,0.0,0.0,0.0,0.0,0.0,0.0,0.0,0.0,0.0,0.0,0.0,0.0,0.0,0.0,0.0,0.0,0.0,0.0,0.0,0.0,0.0,0.0,0.0,0.0,0.0,0.0,0.0,0.0,0.0,0.0,0.0,0.0,0.0,0.0,0.0,0.0,0.0,0.0,0.0,0.0,0.0,0.0,0.0,0.0,0.0,0.0,0.0,0.0,0.0,0.0,0.0,0.0,0.0,0.0,0.0,0.0,0.0,0.0,0.0,0.0,0.0,0.0,0.0,0.0,0.0,0.0,0.0,0.0,0.0,0.0,0.0,0.0,0.0,0.0,0.0,0.0,0.0,0.0,0.0,0.0,0.0,0.0,0.0,0.0,0.0,0.0,0.0,0.0,0.0,0.0,0.0,0.0,0.0,0.0,0.0,0.0,0.0,0.0,0.0,0.0,0.0,0.0,0.0,0.0,0.0,0.0,0.0,0.0,0.0,0.0,0.0,0.0,0.0,0.0,0.0,0.0,0.0,0.0,0.0,0.0,0.0,0.0,0.0,0.0,0.0,0.0,0.0,0.0,0.0,0.0,0.0,0.0,0.0,0.0,0.0,0.0,0.0,0.0,0.0,0.0,0.0,0.0,0.0,0.0,0.0,0.0,0.0,0.0,0.0,0.0,0.0,0.0,0.0,0.0,0.0,0.0,0.0,0.0,0.0,0.0,0.0,0.0,0.0,0.0,0.0,0.0,0.0,0.0,0.0,0.0,0.0,0.0,0.0,0.0,0.0,0.0,0.0,0.0,0.0,0.0,0.0,0.0,0.0,0.0,0.0,0.0,0.0,0.0,0.0,0.0,0.0,0.0,0.0,0.0,0.0,0.0,0.0,0.0,0.0,0.0,0.0,0.0,0.0,0.0,0.0,0.0,0.0,0.0,0.0,0.0,0.0,0.0,0.0,0.0,0.0,0.0,0.0,0.0,0.0,0.0,0.0,0.0,0.0,0.0,0.0,0.0,0.0,0.0,0.0,0.0,0.0,0.0,0.0,0.0,0.0,0.0,0.0,0.0,0.0,0.0,0.0,0.0,0.0,0.0,0.0,0.0,0.0,0.0,0.0,0.0,0.0,0.0,0.0,0.0,0.0,0.0,0.0,0.0,0.0,0.0,0.0,0.0,0.0,0.0,0.0,0.0,0.0,0.0,0.0,0.0,0.0,0.0,0.0,0.0,0.0,0.0,0.0,0.0,0.0,0.0,0.0,0.0,0.0,0.0,0.0,0.0,0.0,0.0,0.0,0.0,0.0,0.0,0.0,0.0,0.0,0.0,0.0,0.0,0.0,0.0,0.0,0.0,0.0,0.0,0.0,0.0,0.0,0.0,0.0,0.0,0.0,0.0,0.0,0.0,0.0,0.0,0.0,0.0,0.0,0.0,0.0,0.0,0.0,0.0,0.0,0.0,0.0,0.0,0.0,0.0,0.0,0.0,0.0,0.0,0.0,0.0,0.0,0.0,0.0,0.0,0.0,0.0,0.0,0.0,0.0,0.0,0.0,0.0,0.0,0.0,0.0,0.0,0.0,0.0,0.0,0.0,0.0,0.0,0.0,0.0,0.0,0.0,0.0,0.0,0.0,0.0,0.0,0.0,0.0,0.0,0.0,0.0,0.0,0.0,0.0,0.0,0.0,0.0,0.0,0.0,0.0,0.0,0.0,0.0,0.0,0.0,0.0,0.0,0.0,0.0,0.0,0.0,0.0,0.0,0.0,0.0,0.0,0.0,0.0,0.0,0.0,0.0,0.0,0.0,0.0,0.0,0.0,0.0,0.0,0.0,0.0,0.0,0.0,0.0,0.0,0.0,0.0,0.0,0.0,0.0,0.0,0.0,0.0,0.0,0.0,0.0,0.0,0.0,0.0,0.0,0.0,0.0,0.0,0.0,0.0,0.0,0.0,0.0,0.0,0.0,0.0,0.0,0.0,0.0,0.0,0.0,0.0,0.0,0.0,0.0,0.0,0.0,0.0,0.0,0.0,0.0,0.0,0.0,0.0,0.0,0.0,0.0,0.0,0.0,0.0,0.0,0.0,0.0,0.0,0.0,0.0,0.0,0.0,0.0,0.0,0.0,0.0,0.0,0.0,0.0,0.0,0.0,0.0,0.0,0.0,0.0,0.0,0.0,0.0,0.0,0.0,0.0,0.0,0.0,0.0,0.0,0.0,0.0,0.0,0.0,0.0,0.0,0.0,0.0,0.0,0.0,0.0,0.0,0.0,0.0,0.0,0.0,0.0,0.0,0.0,0.0,0.0,0.0,0.0,0.0,0.0,0.0,0.0,0.0,0.0,0.0,0.0,0.0,0.0,0.0,0.0,0.0,0.0,0.0,0.0,0.0,0.0,0.0,0.0,0.0,0.0,0.0,0.0,0.0,0.0,0.0,0.0,0.0,0.0,0.0,0.0,0.0,0.0,0.0,0.0,0.0,0.0,0.0,0.0,0.0,0.0,0.0,0.0,0.0,0.0,0.0,0.0,0.0,0.0,0.0,0.0,0.0,0.0,0.0,0.0,0.0,0.0,0.0,0.0,0.0,0.0,0.0,0.0,0.0,0.0,0.0,0.0,0.0,0.0,0.0,0.0,0.0,0.0,0.0,0.0,0.0,0.0,0.0,0.0,0.0,0.0,0.0,0.0,0.0,0.0,0.0,0.0,0.0,0.0,0.0,0.0,0.0,0.0,0.0,0.0,0.0,0.0,0.0,0.0,0.0,0.0,0.0,0.0,0.0,0.0,0.0,0.0,0.0,0.0,0.0,0.0,0.0,0.0,0.0,0.0,0.0,0.0,0.0,0.0,0.0,0.0,0.0,0.0,0.0,0.0,0.0,0.0,0.0,0.0,0.0,0.0,0.0,0.0,0.0,0.0,0.0,0.0,0.0,0.0,0.0,0.0,0.0,0.0,0.0,0.0,0.0,0.0,0.0,0.0,0.0,0.0,0.0,0.0,0.0,0.0,0.0,0.0,0.0,0.0,0.0,0.0,0.0,0.0,0.0,0.0,0.0,0.0,0.0,0.0,0.0,0.0,0.0,0.0,0.0,0.0,0.0,0.0,0.0,0.0,0.0,0.0,0.0,0.0,0.0,0.0,0.0,0.0,0.0,0.0,0.0,0.0,0.0,0.0,0.0,0.0,0.0,0.0,0.0,0.0,0.0,0.0,0.0,0.0,0.0,0.0,0.0,0.0,0.0,0.0,0.0,0.0,0.0,0.0,0.0,0.0,0.0,0.0,0.0,0.0,0.0,0.0,0.0,0.0,0.0,0.0,0.0,0.0,0.0,0.0,0.0,0.0,0.0,0.0,0.0,0.0,0.0,0.0,0.0,0.0,0.0,0.0,0.0,0.0,0.0,0.0,0.0,0.0,0.0,0.0,0.0,0.0,0.0,0.0,0.0,0.0,0.0,0.0,0.0,0.0,0.0,0.0,0.0,0.0,0.0,0.0,0.0,0.0,0.0,0.0,0.0,0.0,0.0,0.0,0.0,0.0,0.0,0.0,0.0,0.0,0.0,0.0,0.0,0.0,0.0,0.0,0.0,0.0,0.0,0.0,0.0,0.0,0.0,0.0,0.0,0.0,0.0,0.0,0.0,0.0,0.0,0.0,0.0,0.0,0.0,0.0,0.0,0.0,0.0,0.0,0.0,0.0,0.0,0.0,0.0,0.0,0.0,0.0,0.0,0.0,0.0,0.0,0.0,0.0,0.0,0.0,0.0,0.0,0.0,0.0,0.0,0.0,0.0,0.0,0.0,0.0,0.0,0.0,0.0,0.0,0.0,0.0,0.0,0.0,0.0,0.0,0.0,0.0,0.0,0.0,0.0,0.0,0.0,0.0,0.0,0.0,0.0,0.0,0.0,0.0,0.0,0.0,0.0,0.0,0.0,0.0,0.0,0.0,0.0,0.0,0.0,0.0,0.0,0.0,0.0,0.0,0.0,0.0,0.0,0.0,0.0,0.0,0.0,0.0,0.0,0.0,0.0,0.0,0.0,0.0,0.0,0.0,0.0,0.0,0.0,0.0,0.0,0.0,0.0,0.0,0.0,0.0,0.0,0.0,0.0,0.0,0.0,0.0,0.0,0.0,0.0,0.0,0.0,0.0,0.0,0.0,0.0,0.0,0.0,0.0,0.0,0.0,0.0,0.0,0.0,0.0,0.0,0.0,0.0,0.0,0.0,0.0,0.0,0.0,0.0,0.0,0.0,0.0,0.0,0.0,0.0,0.0,0.0,0.0,0.0,0.0,0.0,0.0,0.0,0.0,0.0,0.0,0.0,0.0,0.0,0.0,0.0,0.0,0.0,0.0,0.0,0.0,0.0,0.0,0.0,0.0,0.0,3.6827,3.5569,0.0,0.0,0.0,0.0,0.0,0.0,0.0,0.0,0.0,0.0,0.0,0.0,0.0,0.0,0.0,0.0,0.0,0.0,0.0,0.0,0.0,0.0,0.0,2.4075,2.4163,2.4512,2.3788,2.3443,2.3729,2.299,0.0,0.0,0.0,0.0,2.3143,2.3752,2.4182,2.4327,2.4829,2.5638,2.6774,2.6613,2.5932,2.4836,0.0,0.0,0.0,0.0,0.0,0.0,0.0,0.0,0.0,0.0,0.0,0.0,0.0,0.0,0.0,0.0,0.0,0.0,0.0,0.0,0.0,0.0,0.0,0.0,0.0,0.0,0.0,0.0,0.0,0.0,0.0,0.0,0.0,0.0,0.0,0.0,0.0,0.0,0.0,0.0,0.0,0.0,0.0,0.0,0.0,0.0,0.0,0.0,0.0,0.0,0.0,0.0,0.0,0.0,0.0,0.0,0.0,0.0,0.0,0.0,0.0,0.0,0.0,0.0,0.0,0.0,0.0,0.0,0.0,0.0,3.9338,3.808,0.0,0.0,0.0,0.0,0.0,0.0,0.0,0.0,0.0,0.0,0.0,0.0,0.0,0.0,0.0,0.0,0.0,0.0,0.0,0.0,0.0,2.3808,2.4102,2.3843,2.3845,2.4275,2.3494,2.2875,2.2805,2.1995,2.1521,2.1645,2.2186,2.2573,2.2691,2.3554,2.4376,2.5162,2.6186,2.7295,2.8623,2.8791,2.803,2.6413,2.5852,0.0,0.0,0.0,0.0,0.0,0.0,0.0,0.0,0.0,0.0,0.0,0.0,0.0,0.0,0.0,0.0,0.0,0.0,0.0,0.0,0.0,0.0,0.0,0.0,0.0,0.0,0.0,0.0,0.0,0.0,0.0,0.0,0.0,0.0,0.0,0.0,0.0,0.0,0.0,0.0,0.0,0.0,0.0,0.0,0.0,0.0,0.0,0.0,0.0,0.0,0.0,0.0,0.0,0.0,0.0,0.0,0.0,0.0,0.0,0.0,0.0,0.0,0.0,4.418,4.4082,4.3848,4.3574,4.3789,4.4277,4.26,4.1523,4.1014,3.9781,0.0,0.0,0.0,0.0,0.0,0.0,0.0,0.0,0.0,0.0,0.0,0.0,0.0,0.0,0.0,0.0,0.0,0.0,0.0,2.35,2.3794,2.3509,2.3951,2.5588,2.3766,2.3053,2.4074,2.2522,2.1534,2.1498,2.214,2.2383,2.2191,2.3353,2.4423,2.5373,2.8061,2.9619,3.0074,3.0114,3.0114,3.0034,2.8444,2.7575,2.7241,0.0,0.0,0.0,0.0,0.0,0.0,0.0,0.0,0.0,0.0,0.0,0.0,0.0,0.0,0.0,0.0,0.0,0.0,0.0,0.0,0.0,0.0,0.0,0.0,0.0,0.0,0.0,0.0,0.0,0.0,0.0,0.0,0.0,0.0,0.0,0.0,0.0,0.0,0.0,0.0,0.0,4.1328,4.0957,0.0,0.0,0.0,0.0,0.0,0.0,0.0,0.0,0.0,0.0,0.0,0.0,0.0,4.3711,4.4766,4.6289,4.6699,4.5976,4.7812,4.8086,4.6992,4.7305,4.7305,4.7051,4.7218,0.0,4.3339,4.2823,0.0,0.0,0.0,0.0,0.0,0.0,0.0,0.0,0.0,0.0,0.0,0.0,0.0,0.0,0.0,0.0,0.0,0.0,0.0,0.0,0.0,2.4648,2.5368,2.6743,2.6596,2.5878,2.4655,2.3978,2.2804,2.1147,2.1839,2.2283,2.2228,2.4292,2.6387,2.8413,3.041,3.1637,3.2091,3.2265,3.2412,3.2492,3.153,3.0114,2.8444,2.8217,0.0,0.0,0.0,0.0,0.0,0.0,0.0,0.0,0.0,0.0,0.0,0.0,0.0,0.0,0.0,0.0,0.0,0.0,0.0,0.0,0.0,0.0,0.0,0.0,0.0,0.0,0.0,0.0,0.0,0.0,0.0,0.0,0.0,0.0,0.0,0.0,0.0,0.0,0.0,4.0739,4.1465,4.0566,4.0332,3.9453,0.0,0.0,0.0,0.0,0.0,0.0,0.0,0.0,0.0,4.5098,4.6094,4.7129,4.8262,4.9492,4.9922,4.9551,5.0254,5.0176,4.9394,4.959,4.9433,4.9023,4.9321,4.8494,4.6955,4.5038,4.2839,4.0538,0.0,0.0,0.0,0.0,3.7043,3.7421,0.0,0.0,0.0,0.0,0.0,0.0,0.0,0.0,0.0,0.0,0.0,0.0,2.517,2.6027,2.7065,2.828,2.8945,2.8432,2.6216,2.5533,2.4227,2.2091,2.2166,2.2497,2.3014,2.5806,2.8591,3.1236,3.2492,3.3414,3.4002,3.4229,3.4376,3.4442,3.4202,3.2625,3.0154,2.9993,2.9071,2.7636,0.0,0.0,0.0,0.0,0.0,0.0,0.0,0.0,0.0,0.0,0.0,0.0,0.0,0.0,0.0,0.0,0.0,0.0,0.0,0.0,0.0,0.0,0.0,0.0,0.0,0.0,0.0,0.0,0.0,0.0,0.0,0.0,0.0,0.0,0.0,0.0,0.0,4.1287,4.1855,4.0684,4.1406,4.0937,0.0,0.0,0.0,0.0,0.0,0.0,4.4766,4.5391,4.6445,4.8066,4.9336,5.0527,5.1621,5.2266,5.2578,5.2578,5.2246,5.1875,5.1465,5.1348,5.1055,5.0625,5.0506,5.0218,4.9683,4.6875,4.4601,4.2737,4.0848,3.94,3.8345,3.8232,3.8406,3.8899,0.0,0.0,0.0,0.0,0.0,0.0,0.0,0.0,0.0,0.0,0.0,2.4609,2.5785,2.7112,2.8622,3.0436,2.973,2.939,2.9913,2.6847,2.515,2.5426,2.3455,2.314,2.4851,2.8087,3.0635,3.2549,3.3935,3.495,3.5525,3.5538,3.5698,3.5965,3.5939,3.4923,3.3106,3.1717,3.1131,3.0849,2.8504,0.0,0.0,0.0,0.0,0.0,0.0,0.0,0.0,0.0,0.0,0.0,0.0,0.0,0.0,0.0,0.0,0.0,0.0,0.0,0.0,0.0,0.0,0.0,0.0,0.0,0.0,0.0,0.0,0.0,0.0,0.0,0.0,0.0,0.0,0.0,0.0,0.0,0.0,4.2402,4.4492,0.0,0.0,0.0,0.0,4.291,4.375,4.5351,4.7851,4.8789,5.041,5.293,5.3086,5.3379,5.3867,5.3906,5.3926,5.3926,5.3906,5.3672,5.3223,5.2793,5.2383,5.1914,5.1237,5.0853,5.0655,4.8504,4.6299,4.4112,4.2387,4.0428,3.8627,3.8965,3.9394,3.9863,0.0,0.0,0.0,0.0,0.0,2.1724,2.171,2.1949,2.2258,2.2645,2.4075,2.5718,2.7468,2.9651,3.154,3.3213,3.3629,3.3281,3.1986,2.9611,2.7908,2.6825,2.524,2.5816,2.8964,3.0863,3.2853,3.4817,3.5538,3.6086,3.646,3.646,3.654,3.662,3.6433,3.6099,3.5591,3.4322,3.2915,3.1549,3.0947,3.0504,0.0,0.0,0.0,0.0,0.0,0.0,0.0,0.0,0.0,0.0,0.0,0.0,0.0,0.0,0.0,0.0,0.0,0.0,0.0,0.0,0.0,0.0,0.0,0.0,0.0,0.0,0.0,0.0,0.0,0.0,0.0,0.0,0.0,0.0,0.0,0.0,0.0,4.4883,4.6719,0.0,4.4902,4.5723,4.6484,4.6777,4.8125,4.9805,5.1836,5.2519,5.3379,5.457,5.5156,5.5371,5.5254,5.5254,5.5254,5.5254,5.4707,5.4219,5.3769,5.3047,5.2324,5.1582,5.0502,4.9871,4.9497,4.8162,4.7021,4.5956,4.4444,4.2891,4.1465,4.1328,4.1387,4.1504,0.0,0.0,0.0,0.0,0.0,2.1203,2.1574,2.1695,2.215,2.318,2.4943,2.6934,2.9112,3.1704,3.3801,3.5084,3.5912,3.5671,3.4003,3.1343,2.9468,2.8442,2.7184,2.8016,3.1303,3.2719,3.4402,3.6366,3.6754,3.7088,3.7382,3.7489,3.7555,3.7529,3.7448,3.7382,3.7342,3.654,3.5065,3.3171,3.3058,3.2425,3.1799,0.0,0.0,0.0,0.0,0.0,0.0,0.0,0.0,0.0,0.0,0.0,0.0,0.0,0.0,0.0,0.0,0.0,0.0,0.0,0.0,0.0,0.0,0.0,0.0,0.0,0.0,0.0,0.0,0.0,0.0,0.0,0.0,0.0,0.0,4.4135,4.6094,4.666,4.8887,4.9766,4.8183,4.9336,5.0351,5.0781,5.2012,5.3379,5.4824,5.571,5.6353,5.6768,5.768,5.7973,5.7534,5.7515,5.7455,5.7275,5.6369,5.5508,5.471,5.3742,5.2659,5.1562,5.0137,4.9355,4.9004,4.8169,4.7524,4.6864,4.5672,4.4531,4.3457,4.2871,4.2558,4.2363,0.0,0.0,0.0,0.0,0.0,2.1216,2.1588,2.1804,2.2512,2.4035,2.6039,2.8217,3.0581,3.3227,3.5191,3.6046,3.6112,3.6086,3.6059,3.1838,2.97,3.0341,2.9325,2.9713,3.1757,3.3534,3.5271,3.7008,3.7595,3.8036,3.829,3.8611,3.8758,3.8758,3.9052,3.8838,3.829,3.829,3.7494,3.6148,3.4744,3.4342,3.4561,0.0,0.0,0.0,0.0,0.0,0.0,0.0,0.0,0.0,0.0,0.0,0.0,0.0,0.0,0.0,0.0,0.0,0.0,0.0,0.0,0.0,0.0,0.0,0.0,0.0,0.0,0.0,0.0,0.0,0.0,0.0,0.0,0.0,4.308,4.5785,4.7715,4.7903,5.1249,5.3069,5.1836,5.3245,5.4419,5.483,5.526,5.5867,5.6708,5.8192,5.9256,5.9679,6.0798,6.1234,6.0777,6.0736,6.0382,5.9906,5.8806,5.7594,5.6313,5.4823,5.3449,5.2032,5.0329,4.9473,4.9449,4.861,4.7731,4.6836,4.6016,4.5176,4.4316,4.3437,4.2832,4.2363,0.0,0.0,0.0,2.1162,2.1109,2.1283,2.179,2.1815,2.2499,2.4569,2.7001,2.9366,3.1503,3.4683,3.6834,3.7301,3.6941,3.6433,3.5792,3.2394,3.0396,3.0368,3.149,3.2973,3.4817,3.6166,3.7301,3.825,3.8838,3.9159,3.9239,3.9306,3.9346,3.9346,3.9225,3.9199,3.9199,3.8771,3.8204,3.7643,3.6313,3.4981,3.3958,0.0,0.0,0.0,0.0,0.0,0.0,0.0,0.0,0.0,0.0,0.0,0.0,0.0,0.0,0.0,0.0,0.0,0.0,0.0,0.0,0.0,0.0,0.0,0.0,0.0,0.0,0.0,0.0,0.0,0.0,0.0,4.5127,4.7474,4.6509,4.8431,5.101,5.4105,5.5985,5.7318,5.8087,5.8863,5.8954,5.7906,5.9051,5.9557,5.9258,6.0483,6.1234,6.1357,6.1702,6.1582,6.1254,6.0464,6.005,5.9906,5.8252,5.7226,5.6837,5.5083,5.3801,5.2788,5.1209,4.9833,4.8583,4.8413,4.7789,4.6971,4.6753,4.6121,4.5292,4.4719,4.3993,4.326,0.0,0.0,0.0,2.1162,2.1109,2.1309,2.1897,2.1844,2.2712,2.5451,2.7696,3.0007,3.2572,3.5124,3.6794,3.7235,3.6393,3.5471,3.4576,3.2064,3.0755,3.1076,3.2839,3.4629,3.6393,3.7595,3.8437,3.8905,3.9493,3.9786,3.9786,3.9893,3.996,3.996,3.9786,3.9746,3.9746,3.9412,3.9012,3.8592,3.788,3.6803,3.5777,3.6371,3.64,3.6285,3.8204,3.91,3.9502,4.0393,0.0,0.0,0.0,0.0,0.0,0.0,0.0,0.0,0.0,0.0,0.0,0.0,0.0,0.0,0.0,0.0,0.0,0.0,0.0,0.0,0.0,0.0,0.0,0.0,4.8419,5.1046,5.1335,5.2675,5.4741,5.7922,5.9108,6.0117,6.1396,6.1727,6.1573,6.0638,6.1424,6.18,6.1325,6.2395,6.3045,6.3045,6.3478,6.3483,6.2826,6.1748,6.1074,6.0674,5.8507,5.731,5.6784,5.5144,5.3698,5.2424,5.1259,4.9879,4.8586,4.8464,4.7941,4.7228,0.0,0.0,0.0,0.0,4.4,4.3315,0.0,0.0,0.0,2.1162,2.1136,2.1349,2.1897,2.2017,2.318,2.64,2.815,3.0287,3.344,3.4923,3.5872,3.6366,3.5124,3.3908,3.2946,3.1517,3.1223,3.2398,3.3935,3.5525,3.7155,3.8317,3.9052,3.9306,3.9853,4.0147,4.0174,4.0401,4.0508,4.0508,4.0481,4.0334,4.0067,4.0067,3.9773,3.9199,3.9114,3.8954,3.8673,3.7939,3.8508,3.9611,4.0298,4.061,4.0796,4.1931,0.0,0.0,0.0,0.0,0.0,0.0,0.0,0.0,0.0,0.0,0.0,0.0,0.0,0.0,0.0,0.0,0.0,0.0,0.0,0.0,0.0,0.0,0.0,0.0,5.1366,5.4122,5.6696,5.7713,5.8635,6.0219,6.1132,6.2113,6.3033,6.3137,6.3007,6.2919,6.3007,6.3007,6.2919,6.3987,0.0,0.0,0.0,6.5683,6.4809,6.3634,6.267,6.1763,5.9378,5.7711,5.6696,5.5276,5.3644,5.1849,5.1057,5.0094,4.9162,4.8846,4.8265,4.7652,4.678,4.6417,4.6115,4.4482,4.3574,4.3072,0.0,0.0,0.0,2.1162,2.1309,2.1655,2.1937,2.2178,2.342,2.6426,2.8323,3.0354,3.2879,3.4843,3.5939,3.5805,3.4897,3.3734,3.2358,3.2612,3.336,3.4549,3.6473,3.7889,3.8602,3.9666,4.0147,4.0214,4.0575,4.0869,4.1082,4.0909,4.0842,4.0802,4.0588,4.0441,4.0401,4.0401,4.0187,3.9813,3.9584,3.9311,3.8972,3.8891,3.9047,3.9577,4.0932,4.1611,4.2046,4.281,4.3346,4.3396,4.2134,4.0913,0.0,0.0,0.0,0.0,0.0,0.0,0.0,0.0,0.0,0.0,0.0,0.0,0.0,0.0,0.0,0.0,0.0,0.0,0.0,5.1146,5.4668,5.7863,5.994,6.1648,6.2658,6.2549,6.3249,6.4229,6.5391,6.552,6.509,6.4095,6.4961,6.509,6.4095,6.5176,6.5842,6.5842,6.5664,6.5465,6.529,6.3571,6.248,6.1891,5.9843,0.0,5.725,5.6207,5.4909,5.3443,5.3271,5.1998,5.0165,5.0461,4.9446,4.769,4.7106,4.643,4.5759,4.4998,4.4457,4.4004,0.0,0.0,0.0,2.1336,2.1521,2.1762,2.2138,2.2325,2.3327,2.5838,2.7321,2.8938,3.1009,3.2291,3.2879,3.2572,3.1877,3.1463,3.145,3.2826,3.4442,3.6206,3.8116,3.9279,3.9599,4.0468,4.0842,4.0695,4.0976,4.1203,4.1336,4.1203,4.1056,4.0909,4.0762,4.0615,4.0481,4.0481,4.0401,4.0214,3.9786,3.9628,3.9775,3.9518,3.9661,4.0258,4.1666,4.2899,4.3897,4.508,4.6001,4.6485,4.5395,4.3955,4.227,0.0,0.0,0.0,0.0,0.0,0.0,0.0,0.0,0.0,0.0,0.0,0.0,0.0,0.0,4.4684,4.6327,0.0,5.2066,5.4445,5.7436,5.9938,6.162,6.3302,6.4251,6.3966,6.4723,6.552,6.6186,6.6186,6.595,6.5305,6.5842,6.595,6.5305,6.5842,6.6055,6.5814,6.5552,6.5072,6.4351,6.2727,6.146,6.0722,5.8502,5.7147,5.6371,5.5429,5.4049,5.2528,5.2528,5.1458,4.9721,4.9721,4.8672,4.701,4.6784,4.6146,4.5283,4.482,4.4215,4.3573,0.0,0.0,0.0,2.1574,2.1668,2.1817,2.2338,2.2472,2.3207,2.517,2.6146,2.7281,2.8951,2.9392,2.9406,2.9005,2.9005,2.9606,3.0955,3.3253,3.5538,3.7716,3.9412,4.0321,4.0361,4.1122,4.1376,4.1163,4.1376,4.1523,4.1523,4.1456,4.131,4.1096,4.0949,4.0762,4.0548,4.0508,4.0481,4.0441,3.9827,3.9901,4.0315,3.992,4.0226,4.1079,4.2094,4.3496,4.4989,4.6448,4.7635,4.8633,4.7921,4.6473,4.4453,4.1601,4.084,0.0,0.0,0.0,0.0,0.0,0.0,0.0,0.0,3.8994,3.9815,4.345,4.5339,4.7203,5.046,5.2736,5.5024,5.7536,5.9414,6.1074,6.2516,6.3892,6.4766,6.4853,6.5639,6.6186,6.6186,6.6186,6.6186,6.6186,6.6186,6.6186,6.6186,6.6186,6.5945,6.5443,6.5334,6.4591,6.3171,6.1785,6.0467,5.9312,5.7133,5.5859,5.5177,5.4335,5.2904,5.123,5.1043,5.0398,4.9334,4.8669,4.7672,4.6575,4.6223,4.5643,4.4919,4.4381,4.3635,4.2911,0.0,0.0,0.0,0.0,0.0,2.2044,2.2365,2.2645,2.3367,2.493,2.5665,2.652,2.7762,2.8163,2.8016,2.7188,2.9219,3.0942,3.1891,3.5124,3.7702,3.9279,4.0548,4.131,4.1563,4.1924,4.2111,4.2071,4.2111,4.2111,4.2111,4.1857,4.171,4.167,4.1136,4.0869,4.0842,4.0588,4.0481,4.0441,3.9827,3.9793,4.0172,4.0073,4.0603,4.1429,4.1751,4.2532,4.3417,4.414,4.5906,4.7926,4.8188,4.7812,4.6777,4.4551,4.207,3.9512,3.7109,3.6406,3.6953,3.9414,3.918,3.9668,0.0,4.5044,4.531,4.925,5.1543,5.3238,5.4561,5.6443,5.8104,5.9261,6.0332,6.1533,6.2996,6.4089,6.4875,6.529,6.5836,6.6186,6.6186,6.6186,6.6186,6.6186,6.6186,6.6186,6.6186,6.6186,6.5945,6.5443,6.5028,6.4132,6.2691,6.1586,6.0191,5.8341,5.719,5.5964,5.467,5.4139,5.3119,5.1673,5.0825,5.0463,5.0202,4.8987,4.8087,4.7382,4.5768,4.5084,4.4877,4.4008,4.3366,4.287,0.0,0.0,0.0,0.0,0.0,2.2338,2.2632,2.2779,2.3153,2.3955,2.4422,2.4877,2.5358,2.5211,2.4997,2.481,2.7522,2.9913,3.149,3.5231,3.8116,3.9773,4.0802,4.1483,4.179,4.2071,4.2298,4.2472,4.2472,4.2472,4.2472,4.2365,4.2004,4.1523,4.1269,4.0976,4.0655,4.0508,4.0481,4.0441,3.9827,3.9557,3.9546,3.9678,3.9419,3.9192,4.0574,4.1665,0.0,4.2821,4.5083,4.7602,4.7253,4.6786,4.6094,4.418,4.2383,4.0801,3.9902,3.916,3.9121,4.1133,4.1797,4.2715,4.5547,4.5942,4.6723,4.9912,5.2412,5.423,5.5564,5.8053,6.0069,6.0463,6.1555,6.2691,6.3564,6.4045,6.4373,6.4569,6.4788,6.5246,6.6098,6.6186,6.6186,6.6186,6.6186,6.6186,6.6186,6.5902,6.5508,6.5028,6.3973,6.2886,6.1751,6.0473,5.9159,5.7821,5.6887,5.5786,5.4663,5.417,5.3156,5.1741,5.0528,4.9723,4.9175,4.8315,4.7231,4.6037,4.5291,4.467,4.4132,4.376,4.3159,4.2538,0.0,0.0,0.0,0.0,0.0,2.2619,2.2832,2.2928,2.2939,2.3166,2.338,2.3487,2.3407,2.3006,2.2832,2.306,2.5879,2.8604,3.0835,3.4696,3.7809,3.9813,4.0829,4.1523,4.1897,4.2191,4.2445,4.2659,4.2659,4.2619,4.2552,4.2552,4.2191,4.1563,4.1416,4.1122,4.0695,4.0548,4.0441,4.0294,3.9706,3.9199,3.878,3.8761,3.7885,3.6923,3.9262,4.0432,4.0845,4.1363,4.3556,4.5898,4.5457,4.4991,4.4336,4.2949,4.1601,4.0586,4.0703,4.0723,4.1074,4.2598,4.4141,4.5527,4.6504,4.6973,4.7906,5.0515,5.2649,5.4549,5.6104,5.8783,6.0856,6.1249,6.2319,6.3302,6.3914,6.4001,6.3914,6.3652,6.3608,6.3979,6.4897,6.5356,6.5683,6.5945,6.5967,6.5967,6.5967,6.5618,6.5093,6.4351,6.3321,6.2046,6.0747,5.9637,5.8413,5.7132,5.6304,5.5401,5.4474,5.3416,5.236,5.1376,4.9934,4.9028,4.8504,4.7834,4.6772,4.5491,4.5039,4.4381,4.376,4.3511,4.3014,4.2476,0.0,0.0,0.0,0.0,0.0,2.2914,2.2928,2.2928,2.2928,2.2873,2.2954,2.2779,2.2485,2.2445,2.2432,2.2445,2.489,2.7562,3.0207,3.3708,3.6861,3.9493,4.0722,4.1603,4.2178,4.2512,4.2659,4.2659,4.2659,4.2512,4.2218,4.2218,4.2218,4.2178,4.1603,4.1336,4.1269,4.0722,4.0294,4.0,3.9412,3.8651,3.7716,3.6911,3.5961,3.5378,3.7983,3.8607,3.834,3.9418,4.0697,4.1954,4.2723,4.2525,4.1816,4.1367,3.9434,3.7519,3.793,3.957,4.166,4.3808,4.5918,4.7812,4.9121,4.9414,5.0087,5.2439,5.3794,5.5154,5.7133,5.8697,6.02,6.1598,6.2254,6.2931,6.387,6.4001,6.3674,6.2756,6.2647,6.2472,6.2035,6.3259,6.446,6.5377,6.5443,6.5443,6.5443,6.5421,6.4766,6.3368,6.3302,6.2145,5.9764,5.972,5.8452,5.6192,5.5673,5.4926,5.3889,5.1622,5.0498,5.0414,4.9024,4.8608,4.8861,4.7568,4.7006,4.6745,4.5013,4.4298,4.4174,4.3263,4.2932,4.2849,0.0,0.0,0.0,0.0,0.0,0.0,2.2928,2.2928,2.2928,2.2928,2.2928,0.0,0.0,0.0,0.0,0.0,2.4796,2.6894,2.8764,3.2398,3.5391,3.7448,3.9412,4.0762,4.135,4.163,4.1964,4.2365,4.2365,4.2325,4.2218,4.2405,4.2191,4.163,4.1416,4.1122,4.0735,4.0361,4.0,3.9666,3.8651,3.7742,3.6917,3.6176,3.5365,3.4744,0.0,3.6203,3.5736,3.6479,3.7832,3.8924,3.8095,3.8271,3.8472,3.7238,3.7891,3.918,3.9883,4.207,4.4668,4.6816,4.8555,4.9902,5.0625,5.1016,5.1366,5.1794,5.2795,5.381,5.4477,5.6864,5.8912,5.9392,6.1227,6.2581,6.2581,6.3127,6.2822,6.0899,6.1227,6.1162,6.0048,6.1839,6.3455,6.4416,6.4482,6.4482,6.4482,6.4176,6.363,6.2844,6.1582,6.044,5.9698,5.8356,5.7041,5.5582,5.4212,5.3174,5.2506,5.1376,5.0782,5.0422,4.8921,4.8291,4.8042,4.6643,4.5732,4.5195,4.4562,4.4112,4.3801,4.3491,4.318,4.2849,0.0,0.0,0.0,0.0,0.0,0.0,0.0,0.0,0.0,0.0,0.0,0.0,0.0,0.0,0.0,0.0,0.0,2.5692,2.7336,3.0368,3.2986,3.4857,3.658,3.7742,3.821,3.8317,3.8798,3.9706,4.0027,4.0441,4.0976,4.139,4.131,4.0869,4.0762,4.0508,4.0107,3.9493,3.8905,3.8223,3.6941,3.5752,3.4643,3.376,3.3061,0.0,3.3198,3.3304,3.3451,3.4622,3.5722,3.6386,3.5188,3.5606,3.6366,3.5634,3.7539,4.0254,4.1894,4.4297,4.6875,4.9023,5.041,5.1367,5.1797,5.1992,5.1953,5.1523,5.2007,5.2569,5.2569,5.4555,5.6443,5.7142,5.9239,6.0899,6.1271,6.2013,6.1861,6.0157,6.0332,6.0179,5.9065,6.0375,6.1751,6.2887,6.3127,6.3237,6.3237,6.3106,6.2669,6.1839,6.0505,5.9539,5.8908,5.7517,5.6114,5.4813,5.3302,5.2272,5.1804,5.0994,5.0358,4.9955,4.8626,4.7809,4.7349,4.6141,4.517,4.4509,4.4189,4.378,4.3346,4.318,4.2828,4.2435,0.0,0.0,0.0,0.0,0.0,0.0,0.0,0.0,0.0,0.0,0.0,0.0,0.0,0.0,0.0,0.0,0.0,0.0,2.5769,2.7749,2.9793,3.177,3.2519,3.304,3.3374,3.312,3.3681,3.5124,3.5965,3.7088,3.8504,3.9052,3.9452,3.9666,3.9412,3.9279,3.9199,3.8036,3.6901,3.5752,3.4309,3.2853,3.141,2.998,2.9533,2.9552,2.9443,3.0216,3.1698,3.3719,3.4443,3.4487,3.4195,3.4792,3.5742,3.6641,3.8437,4.0801,4.373,4.6113,4.8242,5.0351,5.1504,5.2207,5.2598,5.2363,5.1933,5.1387,5.1249,5.1321,5.1308,5.1913,5.2992,5.4893,5.6574,5.83,6.02,6.0899,6.1009,6.0463,6.0048,5.9567,5.8977,5.8955,5.9523,6.0856,6.1446,6.173,6.1773,6.2188,6.1817,6.0441,6.0234,5.9365,5.7522,5.6983,5.5714,5.3847,5.2932,5.2251,5.1741,5.0419,4.9511,4.9049,4.8088,4.738,4.6891,4.5948,4.5299,4.4754,4.3933,4.3346,4.2911,4.2456,4.2073,4.1731,0.0,0.0,0.0,0.0,0.0,0.0,0.0,0.0,0.0,0.0,0.0,0.0,0.0,0.0,0.0,0.0,0.0,0.0,2.3607,2.5798,2.7495,2.8457,3.0541,3.1917,3.2438,3.2799,3.3387,3.4215,3.4442,3.475,3.5124,3.5271,3.5271,3.5124,3.5044,3.4883,3.4643,3.4336,3.3788,3.3026,3.1998,3.0969,2.9953,2.9138,2.9049,2.936,2.9946,3.0729,3.1635,3.2625,3.3904,3.5387,3.6818,3.7507,3.8066,3.959,4.1777,4.4082,4.582,4.8086,5.0273,5.1465,5.2148,5.25,5.2285,5.2148,5.1504,4.9453,4.8295,4.7281,4.6269,4.8286,5.0706,5.2427,5.6334,5.9567,6.0768,6.197,6.2013,6.0113,6.0725,6.055,5.865,5.8759,5.8977,5.8999,5.9764,6.0397,6.0768,6.0572,6.0266,5.9895,5.8812,5.7984,5.7522,5.5943,5.4717,5.3916,5.2619,5.1741,5.1273,5.0186,4.949,4.9007,4.734,4.6554,4.6405,4.4753,4.4085,4.3933,4.3656,4.3532,4.3387,4.2911,4.2456,4.2136,0.0,0.0,0.0,0.0,0.0,0.0,0.0,0.0,0.0,0.0,0.0,0.0,0.0,0.0,0.0,0.0,0.0,0.0,0.0,2.3888,2.5104,2.5705,2.7041,2.7976,2.843,2.8511,2.9085,3.0207,3.0474,3.1062,3.1957,3.2091,3.2118,3.2091,3.2091,3.2064,3.1998,3.161,3.1102,0.0,0.0,2.8524,2.7696,2.7228,2.7309,2.7781,2.8234,3.0002,3.2379,3.4532,3.6042,3.7395,3.9087,3.9916,4.0644,4.2578,4.457,4.6504,4.8183,4.9961,5.1562,5.2422,5.2676,5.2402,5.123,5.0801,4.9824,4.6836,4.55,4.4502,4.3433,4.5721,4.8285,4.9962,5.4477,5.8366,5.9938,6.1402,6.1904,6.079,6.1358,6.114,5.9392,5.9458,5.9414,5.8934,5.9196,5.9414,5.948,5.9611,5.9405,5.8799,5.7966,5.7084,5.6272,5.4995,5.4044,5.3566,5.2163,5.1503,5.1379,4.9826,4.9028,4.8693,4.7007,4.6119,4.5664,4.4422,4.3801,4.3594,4.3387,4.318,4.2952,4.2497,4.2042,4.1607,0.0,0.0,0.0,0.0,0.0,0.0,0.0,0.0,0.0,0.0,2.2512,2.2205,0.0,0.0,0.0,0.0,0.0,0.0,0.0,0.0,2.2979,2.3514,2.3327,2.334,2.3647,2.3276,2.3754,2.5344,2.5892,2.7081,2.8845,2.9058,2.9299,2.9539,2.9539,2.97,2.9927,2.9205,2.8604,2.8043,2.7014,2.6106,2.5371,0.0,0.0,2.5653,2.5726,2.8762,3.3219,3.7276,3.907,3.998,4.1465,4.2519,4.3594,4.5605,4.7012,4.8359,5.0351,5.1465,5.2266,5.3066,5.2949,5.207,4.9922,4.9004,4.7598,4.4101,4.2883,4.2306,4.1686,4.3572,4.5962,4.8087,5.2271,5.6225,5.8868,6.0332,6.1271,6.1708,6.1817,6.1467,6.0528,6.0419,6.02,5.9633,5.9196,5.8802,5.8293,5.9021,5.8808,5.735,5.7228,5.643,5.4698,5.4134,5.3719,5.3319,5.19,5.1369,5.1675,4.9509,4.8505,4.8399,4.6862,4.5809,4.5043,4.4443,4.3967,4.3573,4.318,4.2745,4.229,4.1835,4.1358,4.0965,0.0,0.0,0.0,0.0,0.0,0.0,0.0,0.0,0.0,0.0,2.3033,2.2205,0.0,0.0,0.0,0.0,0.0,0.0,0.0,0.0,0.0,2.2298,2.2472,2.2712,2.3088,2.3407,2.3888,2.4436,2.477,2.513,2.5478,2.5277,2.5224,2.5277,2.5277,2.5438,2.5705,2.5798,2.5785,2.5678,2.5464,2.5144,2.4783,0.0,0.0,0.0,2.558,2.8399,3.2375,3.6253,3.9721,4.2812,4.5176,4.6523,4.7422,4.8535,4.9277,4.9961,5.1035,5.1699,5.2207,5.2695,5.25,5.1621,4.9473,4.8086,4.6191,4.2402,4.072,3.9612,3.8904,4.1117,4.4419,4.8648,5.2424,5.6181,6.0179,6.0943,6.114,6.1227,6.1598,6.1467,6.0528,6.0419,6.0048,5.9152,5.9021,5.8743,5.8274,5.7952,5.7365,5.6336,5.5954,5.5301,5.4655,5.4113,5.3878,5.3744,5.236,5.1717,5.1762,4.9849,4.9028,4.8861,4.6756,4.5705,4.5478,4.4236,4.3677,4.3594,4.3532,4.3221,4.2745,4.2311,4.1908,4.14,0.0,0.0,0.0,0.0,0.0,0.0,0.0,2.318,2.3367,2.4703,2.4249,2.346,2.2579,2.179,2.1269,0.0,0.0,0.0,0.0,0.0,0.0,0.0,0.0,0.0,2.2405,2.2699,2.306,2.35,0.0,2.3647,2.3955,2.3647,2.35,2.3514,2.3674,2.3915,2.4209,2.4502,2.4716,2.485,2.485,2.4756,2.4636,0.0,0.0,0.0,0.0,2.8029,3.1602,3.5114,3.9384,4.3716,4.6962,4.8672,4.9648,5.0058,5.0664,5.1308,5.1933,5.2422,5.2793,5.2988,5.2558,5.1172,4.7656,4.6016,4.3965,3.9434,3.8275,3.7848,3.7164,3.9929,4.3273,4.618,5.0087,5.4128,5.7972,5.9152,6.0004,6.0987,6.1533,6.1467,6.0528,6.0637,6.0375,5.9414,5.9108,5.8642,5.7857,5.7163,5.6577,5.6099,5.5328,5.4672,5.4288,5.4019,5.3673,5.3113,5.197,5.1416,5.14,4.9322,4.8526,4.8609,4.661,4.554,4.525,4.4339,4.3822,4.3594,4.3346,4.3118,4.287,4.2414,4.2032,4.1545,0.0,0.0,0.0,0.0,0.0,0.0,2.3821,2.3768,2.4102,2.5758,2.5611,2.4983,2.3995,2.2565,2.1523,0.0,0.0,0.0,0.0,0.0,0.0,0.0,0.0,0.0,0.0,0.0,0.0,2.2646,2.2539,0.0,0.0,0.0,0.0,0.0,2.3086,2.3394,2.3701,2.3981,2.4275,0.0,0.0,2.4636,0.0,0.0,0.0,0.0,0.0,2.7305,3.0123,3.3737,3.798,4.249,4.6423,4.8965,5.0527,5.0527,5.1133,5.1933,5.2539,5.3027,5.334,5.3242,5.2578,5.0703,4.5976,4.4141,4.2031,3.7051,3.6479,3.6729,3.6346,3.9045,4.1963,4.3769,4.7378,5.131,5.5111,5.6815,5.8409,6.0419,6.1074,6.1096,6.0332,6.0594,6.0419,5.9458,5.8846,5.8169,5.7405,5.6463,5.5895,5.5782,5.4943,5.422,5.3765,5.3655,5.3152,5.233,5.1404,5.0854,5.0716,4.8651,4.7859,4.8025,4.6322,4.5254,4.4783,4.4303,4.3946,4.3573,4.3201,4.3014,4.287,4.2538,4.2104,4.1783,0.0,0.0,0.0,0.0,0.0,0.0,2.346,2.3981,2.493,2.7201,2.6787,2.6132,2.5758,2.4409,2.2873,0.0,0.0,0.0,0.0,0.0,0.0,0.0,0.0,0.0,0.0,0.0,0.0,2.1735,2.2512,0.0,0.0,0.0,0.0,0.0,0.0,2.3073,2.338,2.3688,0.0,0.0,0.0,0.0,0.0,0.0,0.0,0.0,0.0,2.5579,2.7372,3.2053,3.5251,3.7917,4.2308,4.6387,4.9648,4.9648,5.0254,5.1191,5.2383,5.3027,5.3262,5.2871,5.2129,5.0254,4.5527,4.3457,4.1308,3.6914,3.6222,3.6512,3.6717,3.7886,4.0094,4.3943,4.5609,4.8274,5.3407,5.5002,5.6531,5.889,5.9589,5.9851,5.9764,5.9807,5.9436,5.8497,5.7536,5.6968,5.6858,5.5964,5.5215,5.4853,5.4266,5.3719,5.323,5.2872,5.235,5.1888,5.0897,5.0264,4.9874,4.8398,4.7526,4.709,4.567,4.4786,4.4369,4.3875,4.3656,4.3615,4.3573,4.3284,4.2911,4.287,4.258,4.2198,0.0,0.0,0.0,0.0,0.0,0.0,2.3701,2.3981,2.4917,2.7615,2.7509,2.7068,2.6774,2.5905,2.4342,2.1857,0.0,0.0,0.0,0.0,0.0,0.0,0.0,0.0,0.0,0.0,2.2271,2.2405,2.2512,0.0,0.0,0.0,0.0,0.0,0.0,2.3207,2.3354,2.3834,0.0,0.0,0.0,0.0,0.0,0.0,0.0,0.0,0.0,0.0,2.9472,3.1605,3.4574,3.777,3.9969,4.2762,4.553,4.7363,4.8945,5.0371,5.1914,5.3027,5.3652,5.3223,5.1875,4.9707,4.6016,4.3359,4.0664,3.7148,3.638,3.6471,3.6758,3.7507,3.8959,4.161,4.2551,4.443,4.858,5.0502,5.2817,5.6378,5.7492,5.8409,5.9589,5.9436,5.8999,5.8322,5.7361,5.657,5.6013,5.5285,5.487,5.4698,5.3934,5.3081,5.236,5.2161,5.1626,5.0631,5.0181,4.9783,4.9307,4.8189,4.7465,4.6969,4.5612,4.4749,4.4235,4.3865,4.3633,4.3615,4.3615,4.3491,4.3325,4.3325,4.3056,4.26,0.0,0.0,0.0,0.0,0.0,2.1617,2.3514,2.4008,2.4997,2.7321,2.7669,2.7615,2.7415,2.656,2.5157,2.3086,2.2498,0.0,0.0,0.0,0.0,0.0,0.0,0.0,0.0,0.0,2.2485,2.2605,2.2659,2.2552,0.0,0.0,2.2592,2.2445,0.0,0.0,0.0,0.0,0.0,0.0,0.0,0.0,0.0,0.0,0.0,0.0,0.0,0.0,0.0,0.0,0.0,3.675,3.7975,3.9406,4.1282,4.4596,4.7187,4.9277,5.0742,5.2461,5.373,5.3281,5.166,4.9355,4.6211,4.3242,4.0273,3.7129,3.642,3.6406,3.65,3.7232,3.821,3.9347,4.0367,4.2027,4.4954,4.692,4.9454,5.3232,5.4281,5.5548,5.7776,5.8322,5.8409,5.8082,5.705,5.6078,5.5457,5.4513,5.4011,5.4011,5.3272,5.2402,5.1621,5.1496,5.086,4.9763,4.9763,4.9514,4.9038,4.8107,4.7444,4.6928,4.5472,4.4532,4.4075,4.3673,4.3464,4.3462,4.3539,4.3615,4.3615,4.3615,4.3325,4.2849,0.0,0.0,0.0,0.0,0.0,2.1176,2.2713,2.4128,2.5384,2.6293,2.7161,2.7696,2.7696,2.6132,2.5077,2.505,2.3701,0.0,0.0,0.0,0.0,0.0,0.0,0.0,0.0,0.0,2.2271,2.1991,2.2886,2.2859,2.2004,2.2899,2.2993,2.2432,0.0,0.0,0.0,0.0,0.0,0.0,0.0,0.0,2.4636,0.0,0.0,0.0,0.0,0.0,0.0,0.0,0.0,0.0,0.0,3.6681,3.7332,4.1289,4.4902,4.7793,4.8691,5.1094,5.3262,5.2832,5.1445,4.9277,4.582,4.3027,4.0195,3.6738,3.6202,3.6274,3.5831,3.6827,3.7806,3.7806,3.9585,4.1677,4.3692,4.5129,4.6942,4.9388,4.9694,5.083,5.3713,5.6138,5.7536,5.7536,5.6181,5.5457,5.5436,5.3539,5.2492,5.2492,5.2051,5.1621,5.1108,5.0653,5.0197,4.9763,4.9763,4.9514,4.9038,4.8107,4.7526,4.7006,4.5227,4.4114,4.3696,4.3217,4.3024,4.3004,4.3462,4.3615,4.3615,4.3615,4.3325,4.2849,0.0,0.0,0.0,0.0,0.0,0.0,2.2766,2.333,2.4035,2.5317,2.5558,2.5919,2.672,2.5585,2.4783,2.4783,2.3607,0.0,0.0,0.0,0.0,0.0,0.0,0.0,0.0,2.2726,2.2886,2.3207,2.3287,2.3287,2.3207,2.3287,2.3113,2.2726,2.2819,2.2928,0.0,0.0,0.0,0.0,0.0,2.4262,2.4415,0.0,0.0,0.0,0.0,0.0,0.0,0.0,0.0,0.0,0.0,0.0,0.0,3.7269,4.0273,4.3594,4.5351,4.7148,4.8437,4.8008,4.6816,4.5312,4.3633,4.125,3.8926,3.7246,3.6446,3.6368,3.7187,3.7446,3.8138,4.0146,4.078,4.1328,4.2245,4.5063,4.7662,4.941,5.3123,5.5586,5.5878,5.6892,5.7197,5.6593,5.5803,5.5124,5.4417,5.2872,5.2009,5.2009,5.1527,5.0975,5.0197,5.0032,4.9742,4.9287,4.9287,4.9038,4.8583,4.7962,4.7258,4.6454,4.4701,4.3852,4.3606,4.2631,4.2467,4.3004,4.3157,4.3386,4.3615,4.3615,4.3325,4.2849,0.0,0.0,0.0,0.0,0.0,0.0,2.2498,2.2819,2.3327,2.4142,2.4275,2.4756,2.5932,2.4917,2.4315,2.477,2.3607,0.0,0.0,0.0,0.0,0.0,0.0,0.0,2.2928,2.2979,2.3327,2.3928,2.4075,2.4195,2.4262,2.4182,2.3808,2.3193,2.3086,2.2966,0.0,0.0,0.0,0.0,2.4155,2.4345,2.4754,0.0,0.0,0.0,0.0,0.0,0.0,0.0,0.0,0.0,0.0,0.0,0.0,0.0,3.6836,3.9336,4.2168,4.4355,4.5801,4.5703,4.4687,4.3437,4.2422,4.0312,3.8281,3.7266,3.6504,3.6355,3.7528,3.7703,3.8211,3.9928,4.0541,4.0956,4.1612,4.4255,4.6789,4.8602,5.3123,5.5716,5.4788,5.6082,5.6582,5.5656,5.5071,5.4481,5.366,5.2303,5.1449,5.1282,5.085,5.0322,4.9849,4.9576,4.9349,4.9059,4.8893,4.8645,4.8355,4.7713,4.7134,4.6473,4.4561,4.3695,0.0,4.2341,4.2082,4.2544,4.2851,4.3157,4.3365,4.3332,4.3056,4.26,0.0,0.0,0.0,0.0,0.0,0.0,0.0,2.2726,2.314,2.2968,2.334,2.4102,2.5211,2.4115,2.3728,2.4823,2.3661,0.0,0.0,0.0,0.0,0.0,0.0,0.0,2.2928,2.314,2.3607,2.4235,2.505,2.5344,2.5144,2.5371,2.4877,2.3794,2.3544,2.3305,2.305,2.3346,2.3584,2.3892,2.4147,2.4712,0.0,0.0,0.0,0.0,0.0,0.0,0.0,0.0,0.0,0.0,0.0,0.0,0.0,0.0,0.0,0.0,0.0,4.2226,4.4473,4.4883,4.4062,4.2851,4.166,3.9844,0.0,3.6875,3.6309,3.6219,3.6984,3.7683,3.8058,3.7996,3.9325,4.0694,4.1612,4.3206,4.5172,4.7597,5.0764,5.2363,5.1291,5.4103,5.5639,5.4683,5.4166,5.3618,5.31,5.1812,5.0839,5.0384,4.9949,4.9787,4.9787,4.9287,4.9059,4.9059,4.8603,4.8355,4.8293,4.7424,4.701,4.6783,4.4642,4.3678,4.3577,4.2266,4.1773,4.185,4.2621,4.2907,4.2922,4.2926,4.2621,4.2145,0.0,0.0,0.0,0.0,0.0,0.0,0.0,0.0,0.0,0.0,2.2792,2.2926,2.3434,2.318,2.3086,0.0,0.0,0.0,0.0,0.0,0.0,0.0,0.0,0.0,2.2928,2.2939,2.3487,2.4529,2.4743,2.5157,2.5745,2.5358,2.4796,2.4147,2.4385,2.451,2.444,2.4524,2.4384,2.416,2.4844,2.5229,0.0,0.0,0.0,0.0,2.9747,3.1528,0.0,0.0,0.0,0.0,0.0,0.0,0.0,0.0,3.418,3.498,3.625,0.0,3.8164,3.8262,3.8047,3.7754,0.0,3.6992,3.6543,3.623,3.6094,3.6318,3.7385,3.7887,3.8474,3.9735,4.0751,4.1568,4.2158,4.5718,4.917,5.1572,5.3866,5.4428,5.2407,5.4242,5.5033,5.3668,5.3429,5.296,5.2156,5.1147,5.0384,4.9928,4.9473,4.9224,4.9224,4.9121,4.9059,4.9059,4.8603,4.8189,4.7817,4.7279,4.6658,4.5874,4.4398,4.3596,4.3154,4.1855,4.156,4.185,4.237,4.2474,4.2473,4.2802,4.2192,4.1366,0.0,0.0,0.0,0.0,0.0,0.0,0.0,0.0,0.0,0.0,2.2632,2.2686,2.2914,2.2928,2.2928,0.0,0.0,0.0,0.0,0.0,0.0,0.0,0.0,2.2928,2.2928,2.3006,2.3661,2.4836,2.5104,2.5625,2.6346,2.5892,2.5513,2.5157,2.5363,2.5584,2.5864,2.5322,2.5398,2.5827,2.5655,0.0,0.0,0.0,0.0,0.0,3.0423,3.1872,0.0,3.4495,3.5401,3.5846,0.0,0.0,0.0,0.0,3.3887,3.4512,3.4961,3.582,3.666,3.6855,3.6894,3.6836,3.666,3.6465,3.6269,3.6055,3.6016,3.6298,3.7245,3.8173,3.9,3.9544,4.1183,4.2922,4.4517,4.775,5.0764,5.2948,5.4346,5.4448,5.3,5.4155,5.441,5.273,5.2981,5.275,5.1888,5.0866,5.0301,5.0073,4.9411,4.9059,4.9059,4.9059,4.9059,4.9059,4.8207,4.7774,4.7651,4.6557,4.5898,4.5643,4.4094,4.3354,4.3014,4.1738,4.1327,4.154,4.2005,4.2108,4.2084,4.2235,4.1723,4.0963,0.0,0.0,0.0,0.0,0.0,0.0,0.0,0.0,0.0,0.0,0.0,0.0,0.0,0.0,0.0,0.0,0.0,0.0,0.0,0.0,0.0,0.0,2.2928,2.2954,2.2939,2.314,2.3808,2.4943,2.5531,2.6276,2.708,2.6876,2.6794,2.675,2.6694,2.6914,2.7223,2.6195,2.6528,2.7519,2.6553,0.0,0.0,0.0,0.0,0.0,0.0,0.0,0.0,3.5089,3.5821,3.5879,3.5684,0.0,0.0,0.0,0.0,0.0,3.4766,3.6211,3.7578,3.7539,3.7539,3.7422,3.6992,3.668,3.6367,3.5996,3.5976,3.6278,3.7069,3.8425,3.9322,3.888,4.1525,4.4626,4.7509,4.9417,5.1184,5.2905,5.3496,5.3514,5.2889,5.3814,5.3676,5.1882,5.2513,5.2539,5.1605,5.0839,5.0363,5.0218,4.9473,4.9059,4.9059,4.9059,4.9017,4.8955,4.7686,4.7214,4.7444,4.5738,4.5203,4.5436,4.3769,4.3092,4.2913,4.1698,4.1172,4.125,4.1618,4.1745,4.161,4.1597,4.1298,4.0776,0.0,0.0,0.0,0.0,0.0,0.0,0.0,0.0,0.0,0.0,0.0,0.0,0.0,0.0,0.0,0.0,0.0,0.0,0.0,0.0,0.0,2.2928,2.2928,2.2993,2.3247,2.3046,2.3394,2.4342,2.493,2.633,2.8366,2.8443,2.8777,2.9352,2.9404,2.8822,2.796,2.7757,2.7498,2.7153,2.7551,0.0,0.0,0.0,0.0,0.0,0.0,0.0,0.0,3.3058,3.4393,3.5293,3.418,0.0,0.0,0.0,0.0,0.0,3.5586,3.7324,3.8398,3.6309,3.5781,3.5664,3.5195,3.5351,3.5566,3.5508,3.5781,3.6348,3.7563,3.8217,3.8987,4.0241,4.3299,4.657,4.9475,5.0869,5.1848,5.2555,5.3059,5.2786,5.157,5.2263,5.2581,5.1882,5.1882,5.164,5.0673,5.0487,5.0073,4.9307,4.9142,4.9059,4.9059,4.9059,4.8873,4.8479,4.7522,4.6886,4.6452,4.5451,4.4854,4.4427,4.3485,4.291,4.247,4.158,4.1172,4.125,4.1618,4.1572,4.1211,4.1522,4.0928,3.9898,0.0,0.0,0.0,0.0,0.0,0.0,0.0,0.0,0.0,0.0,0.0,0.0,0.0,0.0,0.0,0.0,0.0,0.0,0.0,0.0,2.3075,2.334,2.3193,2.318,2.3327,2.35,2.4182,2.5384,2.5972,2.7731,3.0403,3.0761,3.0713,3.0252,3.0016,2.9648,2.8993,2.837,2.8361,2.8806,0.0,0.0,0.0,0.0,0.0,0.0,0.0,0.0,0.0,0.0,3.4077,3.5195,3.4121,0.0,0.0,0.0,0.0,0.0,3.5195,3.6543,3.7656,3.6934,3.7461,3.7988,3.7285,3.7129,3.7051,3.6816,3.6914,3.7226,3.7812,3.953,4.1979,4.5006,4.6701,4.8318,5.0415,5.0873,5.1503,5.271,5.2583,5.2421,5.2294,5.258,5.2602,5.1882,5.1833,5.1396,5.0446,4.9949,4.9494,4.908,4.881,4.8686,4.8686,4.8686,4.8583,4.8376,4.7255,4.6556,4.6291,4.5166,4.4512,4.4239,4.3204,4.2628,4.237,4.154,4.1172,4.125,4.1405,4.1361,4.1059,4.0998,4.0484,3.979,0.0,0.0,0.0,0.0,0.0,0.0,0.0,0.0,0.0,0.0,0.0,0.0,0.0,0.0,0.0,0.0,0.0,0.0,0.0,2.2928,2.31,2.3647,2.3447,2.3487,2.3834,2.4275,2.5157,2.6493,2.769,2.9953,3.3199,3.3506,3.2865,3.1321,3.0583,3.0085,2.9695,2.8793,2.9077,3.0071,0.0,0.0,0.0,0.0,0.0,0.0,0.0,0.0,0.0,0.0,0.0,0.0,0.0,0.0,0.0,3.4043,3.4258,3.4902,3.5098,3.6113,3.7266,3.791,3.8926,3.9746,3.9687,3.9258,3.8887,3.8848,3.875,3.8633,3.8418,4.1043,4.4419,4.7991,4.9133,5.0087,5.1362,5.1246,5.1551,5.3148,5.2407,5.2178,5.2987,5.2961,5.2602,5.1902,5.1715,5.1194,5.0301,4.9597,4.9121,4.8914,4.8562,4.8376,4.8376,4.8169,4.8065,4.8045,4.6968,4.627,4.6025,4.4701,4.4132,4.4068,4.2789,4.2293,4.237,4.154,4.1172,4.1172,4.1172,4.113,4.1079,4.0591,4.0191,3.9957,0.0,0.0,0.0,0.0,0.0,0.0,0.0,0.0,0.0,0.0,0.0,0.0,0.0,0.0,0.0,0.0,0.0,0.0,0.0,2.2928,2.3006,2.334,2.334,2.3968,2.5331,2.5398,2.5865,2.6787,2.9713,3.3097,3.6841,3.6693,3.5575,3.3658,3.2141,3.0682,2.935,2.9285,2.9302,2.9384,2.9285,0.0,0.0,0.0,0.0,0.0,0.0,0.0,0.0,0.0,0.0,0.0,0.0,0.0,3.5293,3.4766,3.4961,3.5508,3.6309,3.7461,3.8457,3.8516,3.8027,3.8144,4.0488,4.0391,4.0117,4.1289,4.1211,4.0703,3.9902,4.1913,4.4106,4.5339,4.8908,5.1928,5.2887,5.3052,5.3195,5.3814,5.2677,5.2,5.2492,5.2152,5.1882,5.1812,5.1377,5.0824,4.9845,4.9742,4.9307,4.8459,4.8396,4.8376,4.8376,4.7548,4.7134,4.7134,4.6578,4.5943,4.5026,4.4178,4.3713,4.362,4.2359,4.2082,4.237,4.154,4.1172,4.1172,4.1172,4.113,4.1022,4.0641,4.0468,4.0305,0.0,0.0,0.0,0.0,0.0,0.0,0.0,0.0,0.0,0.0,0.0,0.0,0.0,0.0,0.0,0.0,0.0,0.0,0.0,2.2752,2.3086,2.3581,2.3607,2.4115,2.5224,2.5959,2.7757,3.0596,3.4463,3.6533,3.7024,3.7126,3.6054,3.4131,3.2905,3.218,3.1679,3.1385,3.1327,3.1414,3.106,3.0926,0.0,0.0,0.0,0.0,0.0,0.0,0.0,0.0,3.3974,3.473,3.3647,3.4443,3.5594,3.4536,3.4544,3.5039,3.5351,3.6582,3.7773,3.7773,3.8144,3.9023,4.1094,4.1523,4.168,4.2441,4.2676,4.2562,4.2047,4.3861,4.5799,4.6691,5.0179,5.2713,5.2752,5.3021,5.323,5.3409,5.2513,5.1972,5.2402,5.2062,5.1688,5.1398,5.0694,4.999,4.9369,4.879,4.8314,4.7962,4.7941,4.7817,4.7548,4.6618,4.6311,4.6535,4.6453,4.5718,4.4603,4.4317,4.3713,4.2779,4.2106,4.1927,4.2005,4.1405,4.1172,4.1172,4.1172,4.0976,4.0737,4.0604,4.0112,3.9643,0.0,0.0,0.0,0.0,0.0,0.0,0.0,0.0,0.0,0.0,0.0,0.0,0.0,0.0,0.0,0.0,0.0,0.0,2.2405,2.2605,2.2953,2.346,2.3557,2.4309,2.5937,2.7052,2.9295,3.2675,3.7254,3.9063,3.8376,3.7581,3.6459,3.5014,3.3629,3.3113,3.3185,3.2693,3.2506,3.2464,3.1958,3.1837,0.0,0.0,0.0,0.0,0.0,0.0,0.0,0.0,3.3701,3.4405,3.359,3.4364,3.5391,3.4615,3.5008,3.5583,3.5195,3.6112,3.7271,3.7473,3.8021,3.921,4.1621,4.2539,4.3144,4.4277,4.3965,4.3467,4.3221,4.4798,4.6319,4.7106,5.048,5.2866,5.2531,5.2677,5.2758,5.2728,5.2034,5.1612,5.1804,5.1536,5.117,5.0715,4.9845,4.9183,4.8873,4.8252,4.7838,4.7693,4.7693,4.7486,4.6969,4.6126,4.582,4.6104,4.6104,4.5534,4.4422,4.4237,4.3555,4.2387,4.1815,4.1695,4.1773,4.1405,4.1172,4.1172,4.1172,4.0898,4.0527,4.0527,4.0036,3.9441,0.0,0.0,0.0,0.0,0.0,0.0,0.0,0.0,0.0,0.0,0.0,0.0,0.0,0.0,0.0,0.0,0.0,0.0,2.2405,2.2418,2.2552,2.2914,2.2928,2.4453,2.7682,2.892,3.0373,3.2167,3.7397,4.0453,4.1417,3.8313,3.6887,3.6683,3.4343,3.3348,3.3329,3.2887,3.2482,3.2012,3.1607,3.2088,3.3074,0.0,0.0,0.0,0.0,0.0,0.0,0.0,3.3641,3.3396,3.4884,3.5059,3.4805,3.5254,3.6543,3.7629,3.6367,3.6539,3.7197,3.772,3.7496,3.8169,4.2189,4.3398,4.4453,4.7051,4.5195,4.3105,4.3086,4.4259,4.535,4.5757,4.9549,5.2475,5.2467,5.2102,5.18,5.1825,5.1355,5.0922,5.0466,5.0404,5.0218,4.987,4.8893,4.8376,4.8376,4.8376,4.8148,4.7693,4.7672,4.7465,4.703,4.6086,4.5698,4.5698,4.5698,4.521,4.4341,4.3979,4.3298,4.2309,4.1582,4.1405,4.1773,4.1327,4.1172,4.1172,4.1172,4.0898,4.0508,4.0508,4.0187,3.981,0.0,0.0,0.0,0.0,0.0,0.0,0.0,0.0,0.0,0.0,0.0,0.0,0.0,0.0,0.0,0.0,0.0,0.0,2.2405,2.2619,2.2766,2.2928,2.3818,2.4804,2.5839,2.961,3.2914,3.5858,3.9032,4.0061,3.8975,3.7913,3.7171,3.6562,3.6103,3.5976,3.6005,3.5137,3.4848,3.4768,3.4282,3.396,3.3863,0.0,0.0,0.0,0.0,0.0,0.0,0.0,0.0,0.0,3.4077,3.521,3.6318,3.5146,3.5554,3.6154,3.4902,3.5759,3.7083,3.6976,3.8655,4.0839,4.2656,4.3652,4.4922,4.75,4.6113,4.4355,4.4062,4.535,4.6287,4.584,4.9066,5.1443,5.1118,5.1176,5.1148,5.0855,5.072,5.0446,4.999,4.9949,4.9638,4.8852,4.8541,4.8376,4.8376,4.8065,4.7817,4.7693,4.7382,4.701,4.6473,4.5657,4.519,4.5208,4.4563,4.3999,4.35,4.3679,4.2902,4.1504,4.1308,4.125,4.1405,4.125,4.0996,4.0723,4.0723,4.0121,3.9235,3.944,3.9109,3.8642,0.0,0.0,0.0,0.0,0.0,0.0,0.0,0.0,0.0,0.0,2.2245,2.2031,0.0,0.0,0.0,0.0,0.0,0.0,2.2418,2.2579,2.2943,2.3529,2.4325,2.5549,2.7168,3.1683,3.4822,3.6392,3.8619,3.9107,3.803,3.8021,3.7803,3.754,3.7966,3.7896,3.7459,3.6856,3.6119,3.5469,3.5316,3.5021,3.4648,0.0,0.0,0.0,0.0,0.0,0.0,0.0,0.0,0.0,3.3717,3.4724,3.5874,3.5415,3.5739,3.6276,3.6043,3.6785,3.7758,3.8445,3.9912,4.1739,4.3715,4.4922,4.6191,4.8086,4.6894,4.5566,4.5644,4.6265,4.6781,4.6817,4.8881,5.0485,5.045,5.039,5.0178,4.9953,4.9721,4.9431,4.8976,4.8935,4.8624,4.79,4.7838,4.7838,4.7838,4.7734,4.761,4.7424,4.7175,4.674,4.6099,4.5332,4.4845,4.4479,4.392,4.33,4.2585,4.3041,4.2505,4.1172,4.1172,4.1172,4.1172,4.0976,4.0685,4.0278,4.0103,3.9316,3.8401,3.8848,3.8577,3.8082,0.0,0.0,2.2071,2.2365,0.0,0.0,0.0,0.0,0.0,0.0,2.2031,2.1804,0.0,0.0,0.0,0.0,0.0,0.0,0.0,2.2526,2.3187,2.4578,2.4921,2.6871,3.068,3.4323,3.5784,3.4789,3.6846,3.7985,3.8141,3.8295,3.8641,3.9123,3.9602,3.9121,3.791,3.7793,3.6601,3.4805,3.5234,3.5391,3.541,3.5488,0.0,0.0,0.0,0.0,0.0,0.0,0.0,0.0,3.3763,3.3942,3.4322,3.5656,3.6529,3.7353,3.8533,3.8695,3.9046,4.1307,4.1326,4.166,4.5046,4.6699,4.7773,4.8633,4.7558,4.6719,4.75,4.7074,4.6937,4.8144,4.909,4.9779,5.0177,4.9568,4.9091,4.9041,4.8624,4.8189,4.7672,4.7631,4.7444,4.701,4.701,4.703,4.703,4.7403,4.7444,4.7051,4.6947,4.6533,4.5747,4.5306,4.464,4.3777,4.3698,4.3061,4.1817,4.225,4.2033,4.1172,4.1172,4.1172,4.1133,4.0703,4.0258,3.9874,3.945,3.8801,3.8045,3.8418,3.8336,3.8082,0.0,0.0,2.2071,2.2365,0.0,0.0,0.0,0.0,0.0,0.0,0.0,0.0,0.0,2.2058,0.0,0.0,0.0,0.0,0.0,2.3582,2.432,2.4893,2.74,2.9804,3.1808,3.2856,3.3692,3.4232,3.6545,3.7378,3.6816,3.7609,3.8359,3.9103,3.9269,3.8809,3.7851,3.6855,3.5976,3.5254,3.5351,3.5391,3.5469,3.6133,3.5488,0.0,0.0,0.0,0.0,0.0,0.0,0.0,3.3443,3.414,3.4769,3.3808,3.5176,3.6876,3.6598,3.7986,3.9889,4.1756,4.3369,4.4909,4.6308,4.6875,4.7324,4.8164,4.8047,4.7851,4.8027,4.7938,4.8023,4.8217,4.8851,4.9292,4.9328,4.9186,4.8981,4.8562,4.8438,4.8065,4.7258,4.7175,4.6989,4.6452,4.6823,4.703,4.703,4.7134,4.7134,4.703,4.6347,4.6057,4.6202,4.577,4.5139,4.4292,4.3956,4.3059,4.1854,4.2268,4.2033,4.1172,4.1172,4.1172,4.1133,4.0703,4.0256,3.9829,3.9382,3.8732,3.807,3.8418,3.8379,3.8082,0.0,0.0,0.0,0.0,0.0,0.0,0.0,0.0,0.0,0.0,0.0,0.0,0.0,2.2245,0.0,0.0,0.0,0.0,0.0,2.3679,2.4491,2.625,2.9481,3.158,3.2309,3.31,3.3641,3.4018,3.5593,3.631,3.6113,3.7072,3.7983,3.8885,3.9077,3.8569,3.7477,3.669,3.579,3.5021,3.5516,3.5703,3.5723,3.5976,3.5234,3.4146,3.4275,0.0,0.0,0.0,0.0,0.0,0.0,0.0,3.4219,3.3743,3.4461,3.5818,3.757,3.8879,4.0403,4.2957,4.4909,4.6328,4.6582,4.6953,4.7305,4.7539,4.7754,4.791,4.791,4.774,4.7701,4.7919,4.8036,4.8281,4.8678,4.8589,4.8328,4.8107,4.7858,4.7465,4.67,4.6617,4.6514,4.6287,4.67,4.6865,4.672,4.6927,4.6844,4.6409,4.614,4.5912,4.5705,4.5478,4.4968,4.4045,4.3409,4.2521,4.156,4.1797,4.1621,4.1172,4.0957,4.0859,4.082,4.0156,3.9615,3.9232,3.8786,3.8256,3.7789,3.8155,3.8155,3.8082,0.0,0.0,0.0,0.0,0.0,0.0,0.0,0.0,0.0,0.0,0.0,0.0,0.0,0.0,0.0,0.0,0.0,0.0,0.0,0.0,0.0,2.8212,3.0874,3.2408,3.2814,3.3813,3.4232,3.4096,3.4692,3.526,3.5861,3.6805,3.7744,3.8691,3.896,3.8321,3.7035,3.6553,3.5579,3.4393,3.5218,3.5642,3.5681,3.5328,3.4746,3.4,3.3642,3.327,3.2933,3.3422,0.0,0.0,0.0,0.0,3.347,3.3997,3.4135,3.4883,3.8612,4.0022,4.121,4.4414,4.6035,4.6738,4.6465,4.6914,4.7266,4.6894,4.7226,4.7578,4.7578,4.7226,4.7051,4.7402,4.7258,4.728,4.7996,4.7905,4.7766,4.7568,4.732,4.6947,4.6308,4.6266,4.6266,4.6266,4.6617,4.674,4.6287,4.6638,4.6533,4.5705,4.5954,4.5667,4.4923,4.4919,4.4457,4.3678,4.2823,4.2005,4.1172,4.1172,4.1133,4.1035,4.0684,4.0488,4.0351,3.9531,3.8996,3.8586,3.8256,3.7862,3.7568,3.7862,3.8009,3.8009,0.0,0.0,0.0,0.0,0.0,0.0,0.0,0.0,0.0,0.0,2.2806,2.3202,0.0,0.0,0.0,0.0,0.0,0.0,2.3133,0.0,0.0,3.0449,3.067,3.1707,3.3913,3.3482,3.3758,3.4922,3.4735,3.5256,3.64,3.6986,3.7962,3.9082,3.8688,3.7983,3.7025,3.5521,3.4485,3.3817,3.3706,3.4024,3.4615,3.4555,3.4215,3.3795,3.4115,3.3831,3.3344,3.4156,3.428,0.0,0.0,0.0,3.3576,3.3013,3.3717,3.4914,3.5962,3.9327,4.3057,4.5535,4.6269,4.6465,4.6777,4.666,4.6465,4.6406,4.7031,4.7578,4.7578,4.7226,4.6953,4.7012,4.6973,4.7061,4.7173,4.7849,4.7991,4.7196,4.7403,4.7258,4.6349,4.6266,4.6266,4.6266,4.6328,4.6328,4.6266,4.6328,4.6202,4.5705,4.5354,4.4968,4.445,4.4432,4.4127,4.3678,4.2823,4.2005,4.1172,4.1172,4.0976,4.0605,4.0547,4.0312,3.9941,3.9414,3.8996,3.8586,3.853,3.8302,3.7936,3.8009,3.8009,3.8009,0.0,0.0,0.0,0.0,0.0,0.0,0.0,0.0,0.0,0.0,0.0,2.4292,0.0,0.0,0.0,2.5375,2.4834,2.4563,2.4684,2.6285,2.8046,2.9713,3.0928,3.2214,3.3511,3.3739,3.4152,3.4688,3.4858,3.5746,3.7243,3.7759,3.832,3.8809,3.8092,3.7232,3.6313,3.4789,3.3828,3.3296,3.3475,3.4309,3.5381,3.4138,3.4155,3.4768,3.3656,3.3075,3.2914,3.3627,3.3958,3.3926,3.3501,0.0,0.0,0.0,3.2894,3.4295,3.7709,4.0583,4.3275,4.6279,4.6484,4.6133,4.6777,4.6426,4.5957,4.5957,4.6055,4.6201,4.6423,4.6717,4.6767,4.6268,4.623,4.6398,4.6886,4.7168,4.7247,4.7051,4.7196,4.7072,4.6328,4.6266,4.6266,4.6266,4.6266,4.6266,4.6266,4.6119,4.5768,4.5312,4.5105,4.4799,4.4374,4.4091,4.3478,4.2614,4.2259,4.1773,4.1172,4.1172,4.1074,4.0859,4.0371,3.9907,3.9523,3.877,3.8278,3.7963,3.8433,3.8501,3.8355,3.8793,3.872,3.8375,0.0,0.0,0.0,0.0,0.0,0.0,0.0,0.0,0.0,0.0,0.0,0.0,0.0,0.0,0.0,0.0,2.5688,2.5539,2.6435,2.7405,2.8378,2.9427,3.1008,3.2245,3.318,3.3694,3.4049,3.4298,3.4794,3.6107,3.7992,3.8524,3.9023,3.9512,3.851,3.7437,3.6392,3.4978,3.4133,3.3799,3.3838,3.4736,3.5838,3.4579,3.4892,3.5832,3.3775,3.2995,3.2934,3.319,3.3503,3.3694,3.3246,3.3031,0.0,0.0,0.0,3.3532,3.8235,4.0112,4.1678,4.5359,4.5723,4.5488,4.666,4.6367,4.584,4.584,4.5488,4.5219,4.5231,4.587,4.6211,4.556,4.5521,4.5726,4.6376,4.6345,4.634,4.6599,4.6804,4.6701,4.6308,4.6266,4.6306,4.6182,4.6204,4.6163,4.6016,4.5809,4.5416,4.4836,4.4815,4.451,4.3978,4.3592,4.2867,4.1773,4.1773,4.1618,4.1172,4.1172,4.1172,4.1133,4.0391,3.9829,3.9372,3.8471,3.7942,3.7628,3.8101,3.8355,3.8501,3.9063,3.8918,3.8501,0.0,0.0,0.0,0.0,0.0,0.0,0.0,0.0,0.0,0.0,0.0,2.3816,2.5898,2.5743,2.6013,2.7469,2.7245,2.7131,2.7618,2.7311,2.8387,3.112,3.0409,0.0,3.3816,3.295,3.295,3.3922,3.4471,3.6064,3.8588,3.8965,4.0254,4.2148,4.0794,3.9465,3.8153,3.635,3.5735,3.5872,3.4808,3.4546,3.4997,3.6208,3.6736,3.6656,3.534,3.4648,3.4274,3.3545,3.3378,3.3496,3.3887,3.369,3.3329,0.0,0.0,0.0,3.4742,3.6017,3.7766,4.17,4.3262,4.4355,4.6445,4.6582,4.6269,4.6269,4.5937,4.5385,4.4538,4.477,4.5083,4.5039,4.4989,4.5072,4.5079,4.544,4.578,4.5759,4.6127,4.6373,4.6308,4.6266,4.6182,4.5747,4.6099,4.5975,4.5105,4.5457,4.5271,4.436,4.4339,4.3978,4.3045,4.2641,4.2236,4.1773,4.1773,4.1618,4.1172,4.1172,4.1172,4.1152,4.0684,4.0254,3.9788,3.8947,3.8288,3.7951,3.7573,3.7696,3.8044,3.8044,3.8044,3.8117,0.0,0.0,0.0,0.0,0.0,0.0,0.0,0.0,0.0,0.0,0.0,0.0,0.0,2.6842,2.6423,2.6955,2.7683,2.8595,2.9639,3.0165,3.0938,3.2001,3.2061,3.2505,3.3228,3.3355,3.3418,3.3607,3.4068,3.5351,3.7383,3.834,3.9512,4.0762,4.0014,3.9033,3.7916,3.5818,3.4592,3.4183,3.4601,3.5324,3.6133,3.6062,3.714,3.8394,3.615,3.5103,3.4685,3.4455,3.3775,3.3115,3.3127,3.2808,3.2455,3.2217,3.2572,3.3436,3.5091,3.5785,3.6976,4.0702,4.2051,4.291,4.4492,4.5391,4.582,4.5547,4.5156,4.4771,4.4339,4.4433,4.4461,4.4186,4.3861,4.4045,4.4897,4.4439,4.441,4.5556,4.5351,4.541,4.6225,4.5809,4.554,4.5664,4.583,4.5643,4.5022,4.5147,4.496,4.4319,4.4008,4.3474,4.2621,4.2697,4.2313,4.1405,4.1695,4.1618,4.1172,4.1172,4.1172,4.1172,4.1016,4.053,3.9873,3.9296,3.8499,3.7709,3.8061,3.7925,3.7696,3.8209,3.8428,3.8409,0.0,0.0,0.0,2.493,0.0,2.5871,2.6722,2.7226,2.7752,2.8435,0.0,0.0,0.0,0.0,2.7756,2.8089,2.9235,3.0345,3.1277,3.2001,3.2511,3.2702,3.3237,3.3384,3.3228,3.3838,3.3902,3.3418,3.4004,3.5098,3.6699,3.7676,3.8769,3.9863,3.8965,3.873,3.8867,3.6838,3.5547,3.4868,3.5651,3.629,3.6801,3.7103,3.8054,3.8879,3.71,3.6042,3.542,3.5485,3.4845,3.4022,3.345,3.2753,3.2077,3.1734,3.2151,3.2995,3.415,3.4512,3.5481,3.9195,3.9961,4.0566,4.332,4.416,4.4492,4.4941,4.4805,4.4518,4.4365,4.4032,4.3794,4.3471,4.2941,4.2971,4.3978,4.3141,4.2969,4.4482,4.424,4.4358,4.5349,4.5174,4.5064,4.5209,4.5374,4.5188,4.4567,4.467,4.4546,4.4091,4.378,4.3233,4.237,4.2774,4.2313,4.0997,4.1385,4.1385,4.0997,4.0997,4.1094,4.1172,4.1172,4.0841,4.0318,3.974,3.8842,3.7915,3.814,3.7911,3.7476,3.799,3.8209,3.8282,2.5081,2.5981,2.7035,2.7982,2.7931,2.814,2.9128,2.9292,2.9292,2.9292,0.0,0.0,0.0,0.0,0.0,3.1049,3.191,3.2447,3.2447,3.2447,3.2765,3.3418,3.3591,3.3739,3.3922,3.4432,3.4277,3.3418,3.4238,3.5312,3.6601,3.7031,3.8144,3.9707,3.8047,3.8691,4.0976,3.9475,3.8635,3.8311,3.7916,3.7263,3.6798,3.9504,3.9453,3.804,3.8226,3.7629,3.67,3.6529,3.6536,3.6308,3.4888,3.347,3.2351,3.2255,3.1808,3.1422,0.0,0.0,0.0,3.6836,3.6875,3.7422,4.2891,4.2891,4.2344,4.4492,4.4961,4.481,4.4403,4.3632,4.3044,4.3023,4.2271,4.1934,4.2339,4.1698,4.1456,4.2361,4.2822,4.3201,4.3678,4.4488,4.4774,4.4339,4.4712,4.4567,4.3656,4.4029,4.407,4.3615,4.3615,4.3233,4.237,4.2774,4.2159,4.0509,4.0919,4.0919,4.0509,4.0509,4.0763,4.1172,4.1172,4.1172,4.1133,4.0318,3.9433,3.8633,3.784,3.7502,3.7421,3.7421,3.7421,3.7623,2.6663,2.7369,2.8332,2.921,2.9643,3.0388,3.167,3.1574,3.1388,0.0,0.0,0.0,3.1146,3.1202,3.1496,3.2049,3.301,3.3524,3.3481,3.4153,3.4528,3.4485,3.4592,3.4441,3.3942,3.4157,3.3965,3.3418,3.3359,3.3828,3.4805,3.5215,3.6016,3.7109,3.7507,3.7555,3.7324,3.5653,3.5599,3.657,3.6816,3.7332,3.8054,3.9465,4.0109,4.0176,3.9657,3.857,3.7608,3.8125,3.6793,3.4816,3.3548,3.2674,3.2018,3.1463,3.1722,3.2137,3.1722,0.0,0.0,0.0,0.0,0.0,3.7803,3.9475,4.1071,4.2383,4.3183,4.4004,4.5083,4.4354,4.3549,4.3521,4.2042,4.1163,4.1852,4.0995,4.065,4.1821,4.2112,4.2603,4.3617,4.3894,4.407,4.4298,4.4422,4.4236,4.3635,4.3739,4.3739,4.3615,4.3615,4.3233,4.237,4.2774,4.2159,4.0509,4.0919,4.0919,4.0509,4.0509,4.0763,4.1172,4.1172,4.1172,4.1172,4.0958,4.0337,3.9548,3.9357,3.8482,3.7484,3.7484,3.7445,3.7549,2.8476,2.9646,3.0905,3.1815,3.231,3.3053,3.4354,3.4143,3.3743,0.0,0.0,0.0,3.3026,3.3769,3.4098,3.3733,3.4278,3.4529,3.4285,3.4697,3.478,3.4471,3.4863,3.4764,3.4029,3.4603,3.4394,3.3418,3.3359,3.332,3.3281,3.3711,3.418,3.4687,3.5527,3.55,3.4646,3.3344,3.3764,3.5481,3.7085,3.7814,3.8117,3.9731,4.0285,4.0154,4.0073,3.947,3.8767,3.9815,3.8283,3.5824,3.4569,3.355,3.2613,3.1563,3.1959,3.2568,3.2075,3.2407,3.307,3.4162,0.0,0.0,3.7035,3.8216,3.9421,4.1582,4.2598,4.3398,4.4414,4.4117,4.3633,4.3458,4.2262,4.137,4.1751,4.054,3.9981,4.0929,4.1307,4.1796,4.2525,4.3213,4.3718,4.3987,4.4008,4.3905,4.3615,4.3615,4.3615,4.3615,4.3615,4.331,4.2697,4.2851,4.2236,4.0744,4.0997,4.0919,4.0509,4.0509,4.0763,4.1172,4.1172,4.1172,4.125,4.1907,4.1264,3.9952,4.0349,3.9751,3.8592,3.9279,3.8975,3.8461,0.0,3.2273,3.3934,3.4956,3.5191,3.5588,3.674,3.639,3.5956,0.0,3.5666,3.5686,3.5665,3.6828,3.7028,3.5685,3.55,3.5314,3.4941,3.4574,3.4228,3.3901,3.4648,3.4784,3.4082,3.5254,3.5059,3.3418,3.3769,3.3359,3.2246,3.2578,3.2734,3.2734,3.3023,3.2976,3.2652,3.2252,3.306,3.4883,3.7727,3.8262,3.7773,4.0252,4.0271,3.9097,4.0121,4.0211,3.9974,4.1022,4.0057,3.8252,3.6789,3.5386,3.3942,3.2435,3.2454,3.2972,3.2787,3.2861,3.3437,3.534,3.4244,0.0,3.808,3.7766,3.7551,4.0879,4.1953,4.2363,4.2539,4.2915,4.3054,4.2592,4.2402,4.2218,4.192,4.0397,3.9436,3.99,4.06,4.1094,4.1113,4.2524,4.3539,4.3615,4.3615,4.3615,4.3615,4.3615,4.3615,4.3615,4.3615,4.3386,4.3004,4.2927,4.2313,4.1074,4.1074,4.0841,4.0509,4.0509,4.0841,4.1463,4.1463,4.154,4.185,4.3172,4.2373,4.0373,4.1563,4.1434,4.0733,4.2216,4.1561,4.0371,3.2876,3.3663,3.4482,3.5097,3.5585,3.62,3.7218,3.6328,3.6059,3.7467,3.7369,3.7162,3.728,3.7233,3.7072,3.6708,3.6367,3.5947,3.5496,3.4985,3.4554,3.4282,3.4481,3.4425,3.4127,3.4648,3.4453,3.3418,3.3164,3.291,3.2676,3.2422,3.2285,3.2285,3.2326,3.1738,3.0859,3.2111,3.3246,3.4362,3.5922,3.7468,3.9038,4.0555,4.1168,4.1152,4.1054,4.0582,3.9837,3.9386,3.9097,3.8667,3.675,3.6093,3.5759,3.3662,3.3657,3.4238,3.3872,3.4068,3.4322,3.4305,3.5258,0.0,3.3934,3.4823,3.5992,3.6201,3.6836,3.7812,3.9199,3.9788,3.981,3.9031,4.06,4.1925,4.2274,4.111,4.0189,3.994,4.032,4.0717,4.1055,4.2042,4.2907,4.3539,4.3615,4.3615,4.3615,4.3615,4.3615,4.3615,4.3615,4.3386,4.3004,4.2697,4.2062,4.1074,4.0744,4.0588,4.0509,4.0509,4.1424,4.3019,4.3019,4.376,4.5041,4.5341,4.4294,4.2849,4.4761,4.5085,4.4436,4.4964,4.4568,4.3925,3.3921,3.4672,3.5483,3.5929,3.6213,3.6763,3.7695,3.7053,3.672,3.7431,3.763,3.7543,3.7321,3.7483,3.7374,3.6612,3.6111,3.5518,3.4636,3.4166,3.374,3.3194,3.3428,3.3776,3.4127,3.4062,3.3848,3.3418,3.2793,3.2266,3.1836,3.18,3.2154,3.2754,3.1959,3.1466,3.1265,3.1623,3.1955,3.2568,3.6112,3.8583,4.0273,4.1366,4.1896,4.2031,4.1406,4.1035,4.0684,3.959,3.9145,3.8685,3.7117,3.6673,3.6348,3.4323,3.4673,3.5452,3.4368,3.4551,3.5164,3.5493,3.5618,0.0,0.0,3.4969,3.5218,3.6094,3.5996,3.6172,3.7656,3.793,3.8008,3.8223,3.999,4.139,4.1354,4.1361,4.1134,4.0612,4.1241,4.1594,4.1103,4.2486,4.3396,4.3559,4.3615,4.3615,4.3615,4.3615,4.3615,4.3615,4.3615,4.331,4.2697,4.2524,4.2062,4.1463,4.1074,4.1366,4.233,4.2099,4.2999,4.4741,4.4741,4.517,4.5915,4.6751,4.6513,4.5755,4.6625,4.6703,4.6411,4.7537,4.7119,4.6164,3.4568,3.5333,3.6121,3.6597,3.6742,3.7115,3.8046,3.7798,3.7377,3.7065,3.7753,3.8001,3.7455,3.8173,3.8241,3.7258,3.655,3.5684,3.4675,3.3882,3.3216,3.2734,3.2568,3.2992,3.4043,3.3496,3.3105,3.293,3.2344,3.1601,3.0762,3.0916,3.1741,3.2988,3.1762,3.1623,3.2227,3.1486,3.1387,3.2111,3.6942,3.9277,4.0059,4.123,4.1738,4.1738,4.1328,4.1387,4.1406,4.0273,3.9346,3.8394,3.7481,3.7124,3.6766,3.491,3.5578,3.6617,3.5051,3.5273,3.6133,3.666,3.5918,3.5351,0.0,0.0,0.0,3.623,3.5488,3.4844,3.5879,3.5918,3.6133,3.7168,3.906,4.0201,3.9702,4.0852,4.1468,4.0732,4.1673,4.1979,4.0963,4.2487,4.3563,4.3474,4.3283,4.3277,4.3594,4.3615,4.3615,4.3615,4.3615,4.331,4.26,4.237,4.2293,4.237,4.1773,4.258,4.4537,4.4138,4.487,4.6433,4.6359,4.6581,4.7023,4.8236,4.8631,4.852,4.826,4.8159,4.8249,4.9983,4.9611,4.8568,3.5376,3.5397,3.5645,3.6121,3.6535,3.7115,3.8046,3.7798,3.7501,3.7493,3.8955,3.983,3.9423,3.9867,4.0499,4.1107,3.9566,3.8499,3.8297,3.6071,3.4938,3.5264,3.2853,3.2314,3.4023,3.291,3.1934,3.1172,3.1465,3.1133,3.0273,3.0064,3.0568,3.1698,3.1777,3.1973,3.2224,3.2603,3.4173,3.6552,3.7266,3.668,3.5703,3.8105,3.9238,3.9707,4.0781,4.0958,4.0608,4.0043,3.914,3.7968,3.7052,3.7528,3.8047,3.5962,3.677,3.8053,3.6758,3.7285,3.7695,3.5527,3.6816,3.75,3.3223,0.0,3.3613,3.2012,0.0,3.1445,3.1582,0.0,0.0,3.2871,3.5568,3.7498,3.7077,3.8518,3.9374,3.897,3.9721,4.0235,4.005,4.055,4.1517,4.2933,4.2039,4.2092,4.3497,4.3615,4.3615,4.3615,4.3615,4.3539,4.3462,4.239,4.2754,4.4461,4.3304,4.3739,4.5714,4.5617,4.6728,4.8575,4.814,4.9031,5.0553,5.0459,5.0435,5.0458,5.0717,5.1056,5.1563,5.2029,5.2223,5.2531,3.5314,3.5645,3.5894,3.608,3.6266,3.6722,3.7653,3.8118,3.8255,3.8065,3.8707,3.918,3.8919,3.8909,3.9312,4.0451,3.9546,3.8527,3.7469,3.6143,3.4958,3.3931,3.2237,3.2057,3.3652,3.1934,3.1094,3.125,3.0664,3.0081,2.9561,2.9674,3.0665,3.239,3.2444,3.3281,3.4766,3.4498,3.4634,3.5098,3.5586,3.5059,3.4434,3.8789,4.041,4.041,4.0725,4.0841,4.0783,3.9776,3.8663,3.7786,3.8051,3.7728,3.7051,3.6423,3.6852,3.7225,3.5915,3.6925,3.7836,3.622,3.6973,3.7344,3.4434,3.3535,3.3144,3.25,0.0,0.0,0.0,0.0,0.0,0.0,3.4704,3.5937,3.5258,3.6871,3.8236,3.8535,3.8955,3.9445,4.0235,4.02,4.0531,4.148,4.1539,4.1832,4.252,4.3242,4.3615,4.3615,4.3615,4.3386,4.2907,4.3477,4.4138,4.472,4.5127,4.6315,4.8263,4.8045,4.8936,5.0553,5.0411,5.0789,5.1516,5.1165,5.1095,5.133,5.1049,5.1044,5.1338,5.2045,5.2341,5.2466,3.4879,3.5418,3.579,3.5894,3.6039,3.6368,3.7212,3.7929,3.8304,3.7983,3.8276,3.8627,3.8879,3.8919,3.9634,4.1272,4.0793,3.9851,3.8572,3.7095,3.5763,3.4585,3.2614,3.2195,3.373,3.1543,3.047,3.0704,2.975,2.9308,2.9295,2.8986,3.02,3.2493,3.2637,3.4025,3.622,3.5898,3.5527,3.5215,3.5351,3.5332,3.5605,3.9316,4.0781,4.082,4.0492,4.0569,4.0705,3.9583,3.8471,3.7763,3.8569,3.7846,3.6713,3.7017,3.7261,3.7158,3.6001,3.6887,3.7812,3.6355,3.6405,3.6385,3.4751,3.3823,3.334,3.3398,3.291,0.0,0.0,0.0,3.2793,3.3809,0.0,3.5293,3.4551,3.5404,3.6316,3.7058,3.7577,3.829,3.9489,3.9122,3.9471,4.0805,4.0908,4.1474,4.2645,4.3146,4.3491,4.3615,4.3615,4.331,4.2754,4.4365,4.5244,4.5521,4.6882,4.8529,5.0458,5.0175,5.0765,5.196,5.182,5.189,5.196,5.1516,5.1516,5.1751,5.119,5.0978,5.1119,5.2005,5.2327,5.2491,3.4196,3.4546,3.4941,3.5376,3.5811,3.6284,3.6865,3.6917,3.7034,3.7106,3.7952,3.9,4.0177,4.1464,4.3298,4.5837,4.4858,4.408,4.396,4.0004,3.8176,3.9421,3.4668,3.2787,3.4609,3.2168,3.0159,2.8584,2.8545,2.8949,2.9718,2.7918,2.8521,3.1202,3.2186,3.3513,3.5047,3.6132,3.7812,3.9551,3.7871,3.8203,3.957,3.8476,3.8828,3.9941,3.9941,3.9967,3.9855,3.9362,3.868,3.8082,3.807,3.8063,3.8024,3.7951,3.8534,3.8891,3.8014,3.8205,3.7966,3.5037,3.496,3.4854,3.2334,3.3243,3.4414,3.3594,3.5059,3.625,3.5449,3.5957,3.623,3.5449,3.5703,0.0,0.0,3.3992,3.3174,3.3635,3.4828,3.5941,3.6863,3.6531,3.7892,4.1674,3.9905,4.0517,4.4763,4.3657,4.3139,4.3594,4.3615,4.3615,4.3539,4.4365,4.567,4.7631,4.8384,4.9771,5.1751,5.1751,5.196,5.2377,5.196,5.203,5.2377,5.196,5.182,5.182,5.1751,5.1751,5.182,5.2189,5.3017,5.3929,3.3989,3.4505,3.4774,3.4548,3.49,3.55,3.6395,3.7248,3.8105,3.9111,3.9525,4.0574,4.2763,4.314,4.3968,4.5777,4.5187,4.438,4.3389,4.0633,3.9363,4.0094,3.5716,3.4235,3.6344,3.3121,3.0951,3.0161,2.9374,2.9279,2.9889,2.8502,2.8991,3.1283,3.2746,3.427,3.5877,3.7592,3.8437,3.8516,3.7656,3.7656,3.8262,3.8965,3.9512,3.9902,3.9902,3.9905,3.9907,3.969,3.9129,3.8557,3.9104,3.8499,3.7662,3.8267,3.8262,3.8054,3.8325,3.9372,3.9661,3.6627,3.6719,3.6733,3.3277,3.3881,3.4843,3.3347,3.5023,3.6309,3.5156,3.5644,3.6055,3.5488,3.5742,3.5469,0.0,3.2669,3.2115,3.2579,3.405,3.5112,3.5227,3.6014,3.708,3.8496,3.8767,3.9786,4.1844,4.229,4.2683,4.3139,4.3449,4.3615,4.3615,4.5915,4.7439,4.8118,5.0434,5.1886,5.2515,5.2515,5.2585,5.2723,5.2585,5.2585,5.2723,5.2377,5.2308,5.2515,5.203,5.2238,5.2929,5.2742,5.281,5.2973,3.401,3.436,3.4629,3.4755,3.4984,3.5272,3.5997,3.722,3.8477,3.9738,4.0334,4.1581,4.4041,4.4248,4.4674,4.6055,4.5878,4.4988,4.3248,4.1711,4.0793,4.0846,3.7828,3.6926,3.8418,3.5304,3.3154,3.2142,3.0781,3.0531,3.1283,2.953,2.9643,3.137,3.272,3.4089,3.5528,3.765,3.8574,3.8574,3.7988,3.7851,3.8086,3.9062,3.9238,3.9004,3.9316,3.9531,3.9648,3.9648,3.9375,3.9199,3.9717,3.8996,3.8189,3.9067,3.8872,3.8383,3.8999,3.9912,4.0241,3.7812,3.7846,3.7671,3.4557,3.5169,3.6029,3.47,3.6001,3.7384,3.7248,3.7171,3.6942,3.6374,3.6113,3.5156,0.0,3.2266,3.2218,3.245,3.3462,3.4233,3.4338,3.5027,3.6129,3.7617,3.8327,3.9651,4.196,4.2508,4.3276,4.446,4.3874,4.3822,4.4407,4.7023,4.8335,4.8335,5.1397,5.2929,5.2929,5.2929,5.2929,5.2929,5.2929,5.2929,5.2861,5.2654,5.2723,5.2861,5.2377,5.2654,5.3273,5.3042,5.2948,5.3042,3.4238,3.4134,3.461,3.5894,3.5828,3.557,3.569,3.6941,3.822,3.9254,4.0508,4.2168,4.4355,4.4922,4.5625,4.6816,4.6933,4.6028,4.39,4.3221,4.2645,4.1891,4.0857,4.042,4.0566,3.8457,3.6385,3.4401,3.267,3.2524,3.3649,3.0947,3.0265,3.1351,3.2188,3.307,3.4013,3.6355,3.8281,3.9766,3.8945,3.8809,3.9062,3.8711,3.8047,3.7402,3.8262,3.8828,3.918,3.918,3.9473,3.9863,3.9863,3.9551,3.9375,4.0254,4.0234,3.9902,3.998,4.0045,3.9835,3.8561,3.8171,3.7648,3.6091,3.7001,3.7989,3.7442,3.819,3.9395,4.1195,4.0221,3.8876,3.7893,0.0,3.4863,3.2012,3.2637,3.3272,3.2975,3.3013,3.3341,3.4147,3.3687,3.4956,3.898,3.8481,4.007,4.4823,4.4007,4.4573,4.7271,4.5008,4.4407,4.5915,4.7608,4.8407,4.8335,5.1397,5.2929,5.2929,5.2929,5.2929,5.2929,5.2929,5.2929,5.2929,5.2929,5.2929,5.2929,5.2929,5.2929,5.2929,5.2904,5.3359,5.3997,3.4235,3.4985,3.5722,3.5722,3.5314,3.5293,3.6078,3.7549,3.9258,4.1289,4.2996,4.4764,4.6973,4.7051,4.6933,4.6933,4.7199,4.7026,4.6189,4.4536,4.4019,4.5088,4.2148,4.0934,4.1934,3.8969,3.6836,3.5737,3.37,3.3055,3.368,3.2036,3.1423,3.1677,3.2829,3.3443,3.3854,3.6288,3.793,3.8926,3.9004,3.8535,3.7851,3.8379,3.8047,3.7402,3.8262,3.8652,3.873,3.873,3.9023,3.9375,3.9375,3.9297,3.9375,4.0254,4.0234,4.0098,4.1055,4.1308,4.1074,4.0121,3.9642,3.9145,3.7763,3.8742,3.9663,3.8588,3.9721,4.0588,3.9157,3.8793,3.8001,3.5869,3.4466,3.3457,3.2988,3.2949,3.3004,3.3253,3.3658,3.3642,3.301,3.4127,3.5237,3.5997,3.6628,3.88,4.2921,4.1092,4.2058,4.6767,4.5867,4.549,4.5915,4.8601,4.9415,4.8335,5.1397,5.2929,5.2929,5.2929,5.2929,5.2929,5.2929,5.2929,5.2929,5.2929,5.2929,5.2929,5.2929,5.2929,5.2929,5.2929,5.3204,5.3614,3.4714,3.5725,3.6432,3.5983,3.6289,3.6826,3.7477,3.8024,3.9189,4.1758,4.3413,4.4853,4.6335,4.714,4.7492,4.7239,4.7465,4.7128,4.5875,4.5383,4.5082,4.4906,4.3579,4.2958,4.3335,4.1268,3.9193,3.7257,3.559,3.4337,3.3434,3.1973,3.1096,3.0713,3.2099,3.2623,3.2705,3.5918,3.7676,3.832,3.8555,3.8437,0.0,3.8242,3.8105,3.791,3.8398,3.8574,3.8574,3.8574,3.873,3.8926,3.8926,3.8926,3.9101,3.998,4.0078,4.0137,4.123,4.166,4.168,4.1211,4.0918,4.0491,3.92,3.9491,3.9912,3.9567,4.0009,4.0413,4.0394,3.9121,3.7106,3.4347,3.3253,3.2688,3.2416,3.2646,3.2887,3.3126,3.3287,3.3162,3.2561,3.4021,3.4765,3.4146,3.5405,3.7653,4.1132,4.0554,4.2523,4.7861,4.7062,4.7018,4.7949,4.97,5.0127,4.9343,5.1747,5.2929,5.2929,5.2929,5.2929,5.2929,5.2929,5.2929,5.2929,5.2929,5.2929,5.2929,5.2929,5.2929,5.2929,5.2929,5.3067,5.3273,3.5376,3.6129,3.675,3.6306,3.771,3.9014,3.94,3.8923,3.9373,4.1756,4.3177,4.4225,4.462,4.6374,4.7533,4.7582,4.765,4.6801,4.4802,4.6059,4.5893,4.3416,4.4696,4.5218,4.4484,4.381,4.1837,3.8602,3.7228,3.5248,3.2687,3.1165,3.0024,2.9279,3.0811,3.1568,3.1941,3.5675,3.7519,3.8008,3.8066,3.8496,3.9043,3.8301,3.8242,3.8574,3.8574,3.8574,3.8574,3.8574,3.8574,3.8574,3.8574,3.8574,3.875,3.9629,3.9902,4.0078,4.0937,4.1445,4.1719,4.1719,4.1732,4.1513,4.0492,3.9951,3.9869,4.061,3.9951,3.999,4.2664,3.9894,3.6316,3.3558,3.3077,3.2768,3.1948,3.2618,3.3223,3.3155,3.3062,0.0,3.2478,3.3501,3.3908,3.3093,3.4395,3.6618,3.9938,4.1002,4.4031,4.9511,4.8415,4.8661,5.0551,5.0787,5.0787,5.0646,5.2189,5.2929,5.2929,5.2929,5.2929,5.2929,5.2929,5.2929,5.2929,5.2929,5.2929,5.2929,5.2929,5.2929,5.2929,5.2929,5.2929,5.2929,3.5066,3.5876,3.6383,3.5892,3.7608,3.9598,4.1112,4.227,4.3354,4.4263,4.5535,4.6464,4.6979,4.7078,4.7292,4.7648,4.8062,4.7772,4.6574,4.6513,4.6084,4.523,4.4805,4.462,4.492,4.3101,4.0873,3.8306,3.5915,3.3371,3.0616,3.0173,2.947,2.8682,3.0296,3.24,3.4739,3.6191,3.7422,3.8496,3.8848,3.8867,3.8672,3.8516,3.8516,3.8574,3.8574,3.8574,3.8574,3.8574,3.8574,3.8574,3.8574,3.8574,3.875,3.9629,3.9902,4.0078,4.0937,4.123,4.1289,4.1289,4.1523,4.1776,4.1542,4.1678,4.189,4.2045,4.1882,4.1609,4.1132,3.8732,3.6265,3.4705,3.4459,3.4762,3.5501,3.5546,3.5237,3.4611,3.5346,3.4892,3.2281,3.3152,3.3538,3.2637,3.295,3.5491,4.0864,3.9476,4.2159,5.0037,4.9708,4.9766,5.0576,5.1886,5.1886,5.0646,5.2189,5.2929,5.2929,5.2929,5.2929,5.2929,5.2929,5.2929,5.2929,5.2929,5.2929,5.2929,5.2929,5.2929,5.2929,5.2929,5.2929,5.2929,3.5786,3.6316,3.6841,3.708,3.8918,4.1025,4.2801,4.4528,4.5229,4.4371,4.4971,4.552,4.5553,4.6655,4.7528,4.8027,4.8082,4.7742,4.7009,4.6434,4.5637,4.4704,4.406,4.3919,4.4359,4.352,4.1356,3.7819,3.6211,3.3264,2.9095,2.8389,2.7687,2.7191,2.914,3.1404,3.3828,3.5586,3.6816,3.7637,3.8281,3.8418,3.8223,3.7988,3.791,3.7949,3.8164,3.8242,3.8281,3.8496,3.8428,3.8302,3.8501,3.8282,3.8124,3.8983,3.9101,3.9125,4.0202,4.0511,4.0647,4.1113,4.1328,4.1484,4.1484,4.1621,4.1836,4.2051,4.2106,4.1794,4.0698,3.8769,3.7119,3.653,3.5877,3.5747,3.666,3.6689,3.639,3.5641,3.5534,3.4673,3.2711,3.2758,3.2971,3.3211,3.2628,3.4999,4.1345,3.9689,4.2066,4.9736,5.038,5.1004,5.1816,5.256,5.256,5.1816,5.256,5.2929,5.2929,5.2929,5.2929,5.2929,5.2929,5.2929,5.2929,5.2929,5.2929,5.2929,5.2929,5.2929,5.2929,5.2929,5.2929,5.2929,3.7052,3.734,3.7908,3.891,4.0864,4.2803,4.409,4.5871,4.6453,4.4474,4.4634,4.4782,4.4502,4.6518,4.7966,4.8257,4.8032,4.746,4.6515,4.584,4.4966,4.3676,4.316,4.3201,4.3718,4.388,4.1902,3.77,3.6592,3.3481,2.8574,2.7023,2.6304,2.6427,2.8413,3.0587,3.2851,3.498,3.6348,3.7129,3.7695,3.793,3.7871,3.7461,3.7344,3.748,3.7812,3.7988,3.8105,3.8457,3.8355,3.8155,3.8501,3.8136,3.7792,3.8435,3.8401,3.8329,3.9395,3.974,4.0048,4.0783,4.1035,4.1172,4.1172,4.1172,4.1269,4.1601,4.1738,4.1484,4.0571,3.948,3.8588,3.822,3.7496,3.7086,3.7557,3.7763,3.7598,3.6842,3.5826,3.4808,3.3696,3.3111,3.3244,3.4573,3.3398,3.5129,4.0894,4.0234,4.2372,4.8298,4.9784,5.0904,5.1712,5.2523,5.2929,5.2929,5.2929,5.2929,5.2929,5.2929,5.2929,5.2929,5.2929,5.2929,5.2929,5.2929,5.2929,5.2929,5.2929,5.2929,5.2929,5.2929,5.2929,5.2929,3.8598,3.9194,3.9937,4.1174,4.326,4.4647,4.441,4.6575,4.7826,4.6689,4.6666,4.6862,4.7253,4.7971,4.8216,4.7795,4.8085,4.7299,4.4778,4.4941,4.4498,4.3213,4.2712,4.2893,4.3658,4.2973,4.1283,3.8675,3.5846,3.2928,2.9942,2.7264,2.6731,2.8116,2.9105,3.1387,3.4512,3.5176,3.6582,3.8359,3.8047,3.793,3.7871,3.7461,3.7539,3.7871,3.791,3.8184,3.8516,3.8555,3.8574,3.8574,3.8574,3.8574,3.8506,3.8583,3.855,3.8571,3.8728,3.9376,3.9894,4.0009,4.0647,4.1172,4.1172,4.1172,4.1191,4.123,4.1543,4.1406,4.0269,4.0819,4.0821,3.8925,3.946,4.0082,4.0164,3.9891,3.9336,3.8586,3.8253,3.7364,3.5478,3.523,3.5724,3.6962,3.5779,3.604,3.8454,3.9961,4.1942,4.4634,4.6882,4.8034,4.8025,5.1284,5.2929,5.2929,5.2929,5.2929,5.2929,5.2929,5.2929,5.2929,5.2929,5.2929,5.2929,5.2929,5.2929,5.2929,5.2929,5.2929,5.2929,5.2929,5.2929,5.2929,4.1499,4.1399,4.1746,4.31,4.408,4.4904,4.5822,4.7141,4.7789,4.7439,4.7628,4.7753,4.7682,4.7909,4.7815,4.7361,4.6701,4.5839,4.4532,4.3796,4.3138,4.2361,4.1949,4.207,4.298,4.2661,4.133,3.9083,3.6158,3.3257,3.0308,2.8,2.7857,2.9676,3.1033,3.2805,3.4785,3.6016,3.7031,3.7812,3.7891,3.7617,3.7187,3.7266,3.7246,3.7246,3.7734,3.8027,3.8223,3.8496,3.8428,3.8228,3.8228,3.7916,3.7514,3.7536,3.7352,3.7297,3.7859,3.8576,3.9261,3.9759,4.0531,4.1172,4.1172,4.1172,4.1172,4.1172,4.1542,4.1717,4.149,4.1191,4.1183,4.1565,4.1198,4.096,4.1287,4.0763,3.9853,3.8538,3.8275,3.7759,3.6463,3.6276,3.6193,3.6044,3.4589,3.5892,4.0943,4.0851,4.2198,4.5524,4.8362,4.953,4.8926,5.1555,5.2929,5.2929,5.2929,5.2929,5.2929,5.2929,5.2929,5.2929,5.2929,5.2929,5.2929,5.2929,5.2929,5.2929,5.2929,5.2929,5.2929,5.2929,5.2929,5.2929,4.3934,4.3522,4.3685,4.5243,4.5432,4.5779,4.7207,4.7667,4.7845,4.7693,4.798,4.8032,4.7555,4.7525,4.7217,4.6492,4.5713,4.4778,4.3847,4.3076,4.2385,4.1638,4.1327,4.1464,4.2092,4.2249,4.1475,3.9761,3.7292,3.4877,3.2536,3.0198,3.0007,3.1634,3.2952,3.4219,3.5547,3.6777,3.7363,3.748,3.7539,3.7207,3.668,3.6855,3.6894,3.6934,3.7519,3.7838,3.802,3.8476,3.8209,3.7862,3.7936,3.7642,3.7107,3.6886,3.6738,3.6831,3.7352,3.8274,3.9204,3.974,4.0531,4.1172,4.1172,4.1172,4.1172,4.1172,4.156,4.1927,4.2293,4.1776,4.1712,4.3057,4.2447,4.1811,4.1795,4.1264,4.0356,3.8934,3.8485,3.8211,3.7913,3.7725,3.7442,3.7147,3.5956,3.7201,4.184,4.1351,4.2457,4.578,4.8731,4.9928,4.9187,5.1674,5.2929,5.2929,5.2929,5.2929,5.2929,5.2929,5.2929,5.2929,5.2929,5.2929,5.2929,5.2929,5.2929,5.2929,5.2929,5.2929,5.2929,5.2929,5.2929,5.2929,4.5411,4.531,4.5698,4.7943,4.7984,4.7841,4.829,4.841,4.8227,4.7739,4.7667,4.7547,4.7045,4.6989,4.6492,4.5126,4.5416,4.4769,4.2548,4.287,4.2541,4.1269,4.1172,4.1172,4.1191,4.1638,4.1618,4.1152,3.9406,3.8177,3.7383,3.4343,3.3359,3.4043,3.4492,3.5644,3.7266,3.7285,3.7539,3.7851,3.7012,3.668,3.6621,3.6191,3.6562,3.7285,3.7305,3.7637,3.8082,3.8428,3.8063,3.7495,3.7862,3.8009,3.7862,3.7034,3.7389,3.7933,3.7577,3.8633,3.9875,3.9894,4.0531,4.1172,4.1172,4.1172,4.1172,4.1172,4.156,4.1927,4.2293,4.2677,4.2861,4.2508,4.3098,4.3132,4.1895,4.167,4.1373,4.0421,3.9393,3.9192,4.0158,3.9797,4.0127,4.1808,4.1596,4.0825,3.9511,4.11,4.2761,4.4215,4.6518,4.7666,4.7539,5.1073,5.2929,5.2929,5.2929,5.2929,5.2929,5.2929,5.2929,5.2929,5.2929,5.2929,5.2929,5.2929,5.2929,5.2929,5.2929,5.2929,5.2929,5.2929,5.2929,5.2929,4.699,4.6969,4.6845,4.6923,4.7378,4.7524,4.7025,4.7215,4.7382,4.7216,4.6721,4.6122,4.5651,4.5936,4.5685,4.4608,4.3894,4.3143,4.2487,4.2067,4.162,4.125,4.1172,4.1172,4.1172,4.1327,4.1327,4.1172,3.9131,3.7414,3.6054,3.5101,3.5246,3.6269,3.6406,3.6934,3.7715,3.7422,3.7207,3.7051,3.6777,3.6484,3.625,3.6406,3.6816,3.7344,3.7617,3.8014,3.8355,3.8228,3.8009,3.7715,3.7329,3.7181,3.7164,3.7222,3.7484,3.7784,3.8217,3.909,3.9894,3.9894,4.0531,4.1172,4.1172,4.1172,4.1172,4.1172,4.1773,4.2216,4.237,4.2927,4.3345,4.3277,4.3187,4.281,4.1846,4.1177,4.0392,3.9235,3.988,4.0805,4.1861,4.2213,4.2231,4.1963,4.1501,4.1582,4.2471,4.4151,4.5305,4.5844,4.8984,5.0179,4.9139,5.1674,5.2929,5.2929,5.2929,5.2929,5.2929,5.2929,5.2929,5.2929,5.2929,5.2929,5.2929,5.2929,5.2929,5.2929,5.2929,5.2929,5.2929,5.2929,5.2929,5.2929,4.7465,4.7444,4.7279,4.666,4.6866,4.7072,4.664,4.6495,4.6533,4.6533,4.5892,4.525,4.4795,4.5002,4.4857,4.4112,4.33,4.2754,4.2621,4.2159,4.1793,4.1618,4.1483,4.1483,4.1618,4.1327,4.1327,4.1618,3.9771,3.8171,3.6816,3.6484,3.6777,3.7519,3.7363,3.7441,3.7656,3.7246,3.6914,3.666,3.6484,3.6269,3.6055,3.6328,3.6797,3.7324,3.7598,3.7994,3.8375,3.8082,3.7789,3.7514,3.7295,3.7184,3.7092,3.7428,3.769,3.8122,3.8918,3.974,4.0376,4.0376,4.0802,4.1172,4.1172,4.1172,4.1172,4.1172,4.1695,4.2216,4.237,4.2927,4.3386,4.3615,4.3221,4.2645,4.2011,4.1142,4.0205,3.9097,3.986,4.0865,4.1949,4.3231,4.3798,4.3387,4.4114,4.4941,4.5749,4.5865,4.6544,4.7955,5.0655,5.1768,5.1048,5.2247,5.2929,5.2929,5.2929,5.2929,5.2929,5.2929,5.2929,5.2929,5.2929,5.2929,5.2929,5.2929,5.2929,5.2929,5.2929,5.2929,5.2929,5.2929,5.2929,5.2929,4.6989,4.6927,4.6927,4.6865,4.6513,4.6389,4.6782,4.614,4.5581,4.5581,4.5188,4.4733,4.4298,4.4236,4.4029,4.3594,4.3594,4.3365,4.2963,4.2984,4.2774,4.2447,4.2082,4.2005,4.237,4.1618,4.1598,4.233,4.1107,4.0077,3.9214,3.832,3.791,3.7851,3.7441,3.7246,3.7226,3.6797,3.6621,3.6582,3.6191,3.6016,3.6016,3.6016,3.6523,3.7266,3.7285,3.7546,3.797,3.7936,3.7514,3.6998,3.7745,3.7727,3.7521,3.7652,3.8236,3.8937,3.974,4.055,4.1172,4.1172,4.1172,4.1172,4.1172,4.1172,4.1172,4.1172,4.156,4.1927,4.2293,4.2697,4.3081,4.3421,4.3105,4.2629,4.208,4.1328,4.046,3.9612,3.9432,3.9859,4.0998,4.3188,4.4841,4.5701,4.8525,4.9751,4.8685,4.6384,4.6778,5.0353,5.1574,5.2402,5.2929,5.2929,5.2929,5.2929,5.2929,5.2929,5.2929,5.2929,5.2929,5.2929,5.2929,5.2929,5.2929,5.2929,5.2929,5.2929,5.2929,5.2929,5.2929,5.2929,5.2929,5.2929,4.5623,4.5768,4.5788,4.5064,4.5147,4.5229,4.4981,4.4774,4.4629,4.4629,4.4236,4.3905,4.378,4.347,4.3201,4.3097,4.3104,4.2937,4.2514,4.2495,4.2524,4.237,4.2293,4.2293,4.237,4.1927,4.1614,4.141,4.0817,4.0088,3.9169,3.8328,3.7754,3.7422,3.7012,3.6816,3.6797,3.6348,3.6172,3.6172,3.6055,3.6016,3.6016,3.6016,3.6348,3.6855,3.7187,3.7423,3.7566,3.7528,3.7629,3.7671,3.7615,3.7577,3.7708,3.8937,3.9433,3.9836,4.0666,4.1016,4.1172,4.1172,4.1172,4.1172,4.1172,4.1172,4.1172,4.1172,4.156,4.1927,4.2293,4.2697,4.2826,4.2307,4.1806,4.109,3.9679,3.9461,3.9415,3.9232,3.9959,4.1236,4.2958,4.4593,4.5528,4.5471,4.7369,4.8181,4.7369,4.809,4.9287,5.1046,5.2151,5.2804,5.2929,5.2929,5.2929,5.2929,5.2929,5.2929,5.2929,5.2929,5.2929,5.2929,5.2929,5.2929,5.2929,5.2929,5.2929,5.2929,5.2929,5.2929,5.2929,5.2929,5.2929,5.2929,4.5126,4.5188,4.5147,4.4422,4.4505,4.4588,4.4339,4.4112,4.3987,4.3987,4.376,4.3615,4.3615,4.3387,4.3077,4.2663,4.2624,4.259,4.2344,4.2324,4.2371,4.2371,4.2145,4.2246,4.2601,4.2088,4.1562,4.1103,4.0833,4.0198,3.9176,3.8504,3.7955,3.7559,3.7148,3.6953,3.6934,3.6504,3.6309,3.6289,3.6094,3.6016,3.6016,3.6016,3.6289,3.6719,3.6938,3.7203,3.734,3.7196,3.7258,3.7464,3.7521,3.7784,3.8292,3.9548,3.9683,3.9587,4.0841,4.1172,4.1172,4.1172,4.1172,4.1172,4.1172,4.1172,4.1172,4.1172,4.1405,4.1618,4.2082,4.1979,4.1779,4.1539,4.029,3.938,3.9136,3.8597,3.8586,3.9769,4.0503,4.1489,4.2954,4.4607,4.552,4.5256,4.7695,4.8863,4.8173,5.0065,5.1172,5.1272,5.2352,5.2929,5.2929,5.2929,5.2929,5.2929,5.2929,5.2929,5.2929,5.2929,5.2929,5.2929,5.2929,5.2929,5.2929,5.2929,5.2929,5.2929,5.2929,5.2929,5.2929,5.3136,5.3204,5.3204,4.4898,4.4898,4.4815,4.4298,4.4194,4.4194,4.4194,4.3863,4.3615,4.3615,4.3615,4.3615,4.3615,4.3553,4.3159,4.2405,4.226,4.2219,4.2219,4.2302,4.2322,4.2322,4.1953,4.2064,4.2807,4.2153,4.1575,4.111,4.1041,4.0375,3.9129,3.868,3.8268,3.7812,3.7461,3.7266,3.7187,3.6816,3.6641,3.6543,3.6172,3.6016,3.6035,3.6094,3.6348,3.6738,3.6784,3.7047,3.7287,3.6902,3.6849,3.6961,3.739,3.7972,3.8652,3.9587,3.928,3.9071,4.0783,4.1172,4.1172,4.1172,4.1172,4.1172,4.1172,4.1172,4.1172,4.1172,4.1172,4.1327,4.1695,4.1225,4.0757,4.0884,3.9062,3.7948,3.8994,3.8087,3.813,4.038,4.0894,4.1421,4.2269,4.4142,4.5384,4.5599,4.8565,5.0235,5.0002,5.1774,5.2377,5.1448,5.2402,5.2929,5.2929,5.2929,5.2929,5.2929,5.2929,5.2929,5.2929,5.2929,5.2929,5.2929,5.2929,5.2929,5.2929,5.2929,5.2929,5.2998,5.2998,5.2998,5.3136,5.3478,5.3614,5.3614,4.407,4.4463,4.4733,4.3863,4.3718,4.3718,4.3718,4.3656,4.3615,4.3615,4.3615,4.3615,4.3615,4.3263,4.2828,4.2364,4.197,4.1669,4.1669,4.2115,4.2322,4.2322,4.2249,4.2216,4.2352,4.2278,4.185,4.1033,4.1024,4.0358,3.91,3.8684,3.811,3.7402,3.7324,3.709,3.6758,3.6699,3.6465,3.6113,3.6055,3.6016,3.6055,3.6426,3.6621,3.6777,3.7132,3.71,3.6853,3.6829,3.7036,3.7428,3.7484,3.7633,3.7896,3.9031,3.9051,3.9071,4.0783,4.1172,4.1172,4.1172,4.1172,4.1172,4.1172,4.1172,4.1172,4.1172,4.1172,4.1327,4.1695,4.1713,4.1144,3.9834,3.8993,3.8093,3.6848,3.7344,3.8232,3.9273,4.0976,4.2249,4.2766,4.4239,4.5866,4.7637,4.8637,4.9942,5.1632,5.2051,5.2151,5.1975,5.2603,5.2929,5.2929,5.2929,5.2929,5.2929,5.2929,5.2929,5.2929,5.2929,5.2929,5.2929,5.2929,5.2929,5.2929,5.2929,5.3136,5.341,5.341,5.3589,5.3861,5.3929,5.3929,5.3929,4.4112,4.4132,4.4112,4.3698,4.3615,4.3615,4.3615,4.3615,4.3615,4.3615,4.3615,4.3615,4.3615,4.3428,4.3118,4.2663,4.2207,4.1908,4.1586,4.1545,4.1524,4.1524,4.1524,4.1524,4.1524,4.1524,4.1348,4.0977,4.0977,4.0412,3.9412,3.9198,3.862,3.7637,3.7637,3.7402,3.6992,3.6758,3.6562,3.6348,3.6113,3.6152,3.6387,3.6601,3.6816,3.702,3.7072,3.6941,3.6799,3.6534,3.6627,3.6793,3.6793,3.7258,3.7932,3.8459,3.9126,3.9874,4.0899,4.1172,4.1172,4.1172,4.1172,4.1172,4.1172,4.1172,4.1172,4.1172,4.1172,4.125,4.1483,4.1112,4.0452,3.947,3.7849,3.6861,3.7339,3.7351,3.8145,4.0177,4.1571,4.2413,4.2637,4.4198,4.5786,4.7105,4.8803,5.0478,5.2033,5.2377,5.2553,5.2553,5.2804,5.2929,5.2929,5.2929,5.2929,5.2929,5.2929,5.2929,5.2929,5.2929,5.2929,5.2929,5.2929,5.2998,5.3204,5.3204,5.3478,5.3793,5.3793,5.3861,5.3997,5.4174,5.4241,5.4309,4.4174,4.3946,4.3739,4.3635,4.3615,4.3615,4.3615,4.3615,4.3573,4.347,4.3532,4.3532,4.3325,4.3491,4.3346,4.2663,4.2393,4.2094,4.1514,4.1069,4.0882,4.0882,4.0779,4.0675,4.0572,4.0675,4.0737,4.0737,4.082,4.0504,3.9714,3.9614,3.8962,3.791,3.7812,3.7539,3.7129,3.6816,3.6621,3.6484,3.6152,3.6289,3.668,3.6777,3.7,3.7287,3.7013,3.6875,3.6767,3.6331,3.6274,3.6347,3.6347,3.7087,3.7926,3.8019,3.9083,4.0353,4.1016,4.1172,4.1172,4.1172,4.1172,4.1172,4.1172,4.1172,4.1172,4.1172,4.1172,4.1172,4.1172,4.0569,3.9855,3.9261,3.7293,3.6421,3.8083,3.7812,3.8351,4.1036,4.1698,4.2292,4.2846,4.4289,4.574,4.7091,4.9322,5.1132,5.2259,5.2703,5.2929,5.2929,5.2929,5.2929,5.2929,5.2929,5.2929,5.2929,5.2929,5.2929,5.2929,5.2929,5.2929,5.2929,5.2998,5.3204,5.3478,5.3614,5.3793,5.4106,5.4106,5.42,5.4267,5.4511,5.4645,5.4645,4.376,4.3987,4.4112,4.3698,4.3615,4.3615,4.3615,4.3615,4.3449,4.3035,4.3346,4.3284,4.2456,4.3118,4.3077,4.1793,4.2115,4.1949,4.0986,4.0903,4.0882,4.0882,4.0468,4.0054,3.9571,4.0054,4.0282,4.0282,4.0675,4.0504,3.9714,3.9312,3.8664,3.791,3.7519,3.7109,3.6719,3.668,3.6445,3.6074,3.6035,3.6289,3.6719,3.7109,3.7307,3.7374,3.7359,3.7144,3.6775,3.6349,3.6476,3.6787,3.6787,3.7081,3.7503,3.7869,3.8683,3.9666,4.086,4.1172,4.1172,4.1172,4.1172,4.1172,4.1172,4.1172,4.1172,4.1172,4.1172,4.1172,4.1172,4.0821,4.0086,3.8838,3.8518,3.8345,3.7981,3.8612,3.9423,4.0385,4.0929,4.2039,4.4323,4.4699,4.6293,5.0008,5.0481,5.1279,5.2717,5.2904,5.2929,5.2929,5.2929,5.2929,5.2929,5.2929,5.2929,5.2929,5.2929,5.2929,5.2929,5.2929,5.2929,5.2929,5.3273,5.3478,5.3546,5.3861,5.4174,5.4443,5.4443,5.4671,5.5032,5.5032,5.5032,5.5032,4.3656,4.376,4.3822,4.3635,4.3615,4.3615,4.3615,4.3615,4.3553,4.3366,4.3263,4.3159,4.3097,4.3159,4.3097,4.2849,4.2725,4.2518,4.2166,4.1607,4.1048,4.0468,3.9744,3.9288,3.9055,3.922,3.9302,3.9302,3.9827,3.9754,3.9262,3.8869,3.8227,3.7499,3.7321,3.7006,3.6572,3.6572,3.6474,3.6268,3.6084,3.6289,3.6719,3.6848,3.7132,3.734,3.7104,3.696,3.6775,3.6587,3.6696,3.6803,3.7118,3.7466,3.7947,3.8587,3.9063,3.943,4.0216,4.0607,4.0763,4.0763,4.0997,4.1172,4.1172,4.1172,4.1172,4.1172,4.1172,4.1172,4.1172,4.1094,4.0686,3.9875,3.9185,3.8804,3.9007,3.8954,3.926,4.0291,4.0607,4.0958,4.1636,4.413,4.6271,4.7518,5.0339,5.2258,5.2861,5.2929,5.2929,5.2929,5.2929,5.2929,5.2929,5.2929,5.2929,5.2929,5.2929,5.2929,5.2929,5.2929,5.2929,5.2929,5.3067,5.341,5.3793,5.3929,5.4335,5.4872,5.4872,5.4965,5.5099,5.5099,5.5099,5.5099,4.3615,4.3615,4.3615,4.3615,4.3615,4.3615,4.3615,4.3491,4.3346,4.3201,4.3035,4.2932,4.2973,4.3077,4.3159,4.318,4.3014,4.287,4.2725,4.1855,4.0944,4.0013,3.9247,3.8724,3.8647,3.8703,3.8786,3.8786,3.9241,3.933,3.8983,3.8543,3.8044,3.7331,3.7191,3.6884,3.6519,3.6654,3.6519,3.6336,3.6355,3.6553,3.6894,3.6887,3.7066,3.7387,3.7366,3.7147,3.6849,3.7257,3.7327,3.7246,3.7521,3.7888,3.8351,3.8864,3.9114,3.9193,3.9588,3.9981,4.0353,4.0509,4.0841,4.1172,4.1172,4.1172,4.1172,4.1172,4.1172,4.1172,4.1172,4.1016,4.0724,4.0336,3.947,3.9088,3.9548,3.9203,3.9144,3.9971,3.9947,4.0412,4.1596,4.4485,4.6691,4.7954,5.1068,5.2861,5.2723,5.2861,5.2861,5.2723,5.2861,5.2929,5.2929,5.2929,5.2929,5.2929,5.2929,5.2929,5.2929,5.2929,5.2929,5.2929,5.2998,5.341,5.3861,5.3997,5.4335,5.4872,5.4872,5.5032,5.5099,5.5099,5.5099,5.5099,4.3615,4.3615,4.3615,4.3615,4.3615,4.3615,4.3615,4.3221,4.2766,4.2331,4.2642,4.258,4.1669,4.2787,4.3242,4.2426,4.2683,4.2745,4.229,4.14,4.0489,3.953,3.9034,3.8647,3.8212,3.8626,3.8786,3.8786,3.9241,3.933,3.8963,3.8514,3.8085,3.7702,3.726,3.6876,3.6519,3.6944,3.6694,3.6084,3.6809,3.7211,3.7285,3.7215,3.733,3.7533,3.8396,3.7877,3.6973,3.8292,3.838,3.8016,3.8016,3.831,3.856,3.856,3.856,3.8719,3.9193,3.9588,3.9981,4.0431,4.0841,4.1172,4.1172,4.1172,4.1172,4.1172,4.1172,4.1172,4.1172,4.047,3.9926,3.9894,3.954,3.928,3.9315,3.9306,3.9272,3.9272,3.8877,4.051,4.5286,4.5732,4.7736,5.2491,5.2861,5.2723,5.2446,5.2723,5.2723,5.2446,5.2723,5.2929,5.2929,5.2929,5.2929,5.2929,5.2929,5.2929,5.2929,5.2929,5.2929,5.2929,5.3341,5.3478,5.3546,5.3861,5.4174,5.4511,5.4511,5.4738,5.5099,5.5099,5.5099,5.5099,4.3615,4.3615,4.3615,4.3615,4.3615,4.3615,4.3615,4.3491,4.3366,4.3221,4.2766,4.26,4.2952,4.2787,4.2807,4.318,4.3325,4.3221,4.2745,4.2166,4.1441,4.051,3.9744,3.9268,3.9144,3.9199,3.9096,3.8786,3.891,3.8827,3.845,3.8036,3.7752,3.7597,3.7476,3.7415,3.728,3.7415,3.7348,3.7186,3.7489,3.7654,3.7698,3.8331,3.8629,3.8725,3.932,3.8916,3.8216,3.886,3.8623,3.8071,3.8365,3.8469,3.856,3.856,3.8798,3.9114,3.9272,3.9823,4.0353,4.0509,4.0841,4.1172,4.1172,4.0919,4.0685,4.0685,4.0451,4.0294,4.0294,4.0294,4.0315,4.0336,3.9964,3.9707,3.9732,3.9198,3.8798,3.8798,3.8719,3.9175,4.0588,4.2306,4.4464,4.7276,5.0363,5.2099,5.196,5.2377,5.2515,5.2377,5.2723,5.2929,5.2929,5.2929,5.2929,5.2929,5.2929,5.2929,5.2929,5.2929,5.2929,5.2929,5.2998,5.3384,5.3861,5.3997,5.4335,5.4939,5.4939,5.5032,5.5099,5.5099,5.5099,5.5099,4.3615,4.3615,4.3615,4.3615,4.3615,4.3615,4.3615,4.3449,4.3284,4.3097,4.26,4.2476,4.3014,4.2745,4.2807,4.3553,4.3615,4.3491,4.3221,4.2766,4.2269,4.171,4.082,4.0096,3.9488,3.9468,3.9323,3.9055,3.8869,3.8709,3.844,3.8053,3.7837,3.7837,3.7837,3.777,3.7616,3.777,3.7805,3.7719,3.8255,3.8503,3.8648,3.9398,3.9712,3.975,4.0239,3.9814,3.9032,3.9604,3.9115,3.831,3.8487,3.856,3.856,3.856,3.8798,3.9035,3.9272,3.9647,4.004,4.0197,4.0607,4.0841,4.0704,4.0451,4.0275,4.0275,4.0059,3.9902,3.9902,3.9981,4.004,4.0197,3.9745,3.9509,3.9823,3.9272,3.8877,3.8877,3.8877,3.9175,3.9905,4.1325,4.3491,4.6662,4.9961,5.1824,5.1905,5.2059,5.2169,5.2169,5.2515,5.2792,5.2929,5.2929,5.2929,5.2929,5.2929,5.2929,5.2929,5.2929,5.2998,5.3136,5.3136,5.3478,5.3997,5.3997,5.4335,5.4872,5.4872,5.4939,5.5099,5.5099,5.5099,5.5099,4.3615,4.3615,4.3615,4.3615,4.3615,4.3615,4.3615,4.3263,4.2828,4.2435,4.2384,4.2269,4.2384,4.26,4.3014,4.3511,4.3594,4.3615,4.3615,4.318,4.2911,4.287,4.2021,4.0965,3.9682,3.9661,3.9571,3.953,3.9075,3.8827,3.8765,3.844,3.8253,3.8253,3.8253,3.8032,3.7744,3.814,3.8206,3.8069,3.9219,3.9798,4.0,4.0464,4.0666,4.0788,4.1171,4.0566,3.9527,4.0141,3.9647,3.864,3.864,3.864,3.856,3.856,3.864,3.8798,3.9193,3.9351,3.943,3.9745,4.0118,4.0275,3.9981,3.9902,3.9823,3.9823,3.9823,3.9745,3.9745,3.9509,3.943,3.9823,3.9193,3.8956,3.9745,3.9509,3.9272,3.9272,3.9272,3.9943,4.1711,4.2076,4.4125,4.8905,5.0603,5.1596,5.1918,5.181,5.1751,5.1751,5.2169,5.2515,5.2792,5.2792,5.2861,5.2929,5.2929,5.2929,5.2929,5.2929,5.3136,5.3478,5.3546,5.3725,5.4064,5.4064,5.4241,5.4578,5.4578,5.4805,5.5099,5.5099,5.5099,5.5099,4.3615,4.3615,4.3615,4.3615,4.3615,4.3615,4.3615,4.3532,4.3428,4.3325,4.2704,4.2393,4.2745,4.2228,4.2186,4.2994,4.3408,4.3615,4.3615,4.318,4.2766,4.2414,4.1876,4.1255,4.0593,4.0593,4.0427,4.0075,3.955,3.9137,3.8786,3.8683,3.8709,3.8709,3.8709,3.8641,3.8594,3.9034,3.9172,3.9288,4.0584,4.1162,4.1286,4.2089,4.2385,4.2379,4.2546,4.1768,4.0608,3.9845,3.9351,3.9114,3.9114,3.8877,3.856,3.856,3.8877,3.9193,3.9272,3.9509,3.9745,3.9509,3.9509,3.9666,3.9823,3.9666,3.943,3.943,3.9114,3.8877,3.8877,3.9114,3.9351,3.943,3.9272,3.9193,3.943,3.9035,3.8719,3.8719,3.8719,3.8956,3.9314,4.0822,4.3121,4.615,4.7784,4.9457,5.1513,5.1457,5.1352,5.1352,5.1726,5.196,5.203,5.203,5.2308,5.2929,5.2929,5.2929,5.2929,5.3204,5.341,5.3478,5.3793,5.4064,5.4376,5.4376,5.4578,5.4965,5.4965,5.5032,5.5099,5.5099,5.5099,5.5099,4.3284,4.347,4.3615,4.3615,4.3615,4.3615,4.3615,4.3615,4.3532,4.3304,4.2683,4.2352,4.258,4.1979,4.1938,4.2849,4.3346,4.3511,4.3304,4.3056,4.2725,4.2343,4.1887,4.1462,4.1214,4.0986,4.0758,4.053,4.0075,3.9723,3.9426,3.922,3.9096,3.9096,3.9096,3.9096,3.9137,3.9661,3.9972,4.0282,4.1441,4.2021,4.229,4.2994,4.3091,4.2905,4.2769,4.1907,4.0646,3.9883,3.9588,3.9588,3.9588,3.943,3.9193,3.9193,3.9272,3.9272,3.9272,3.9272,3.9193,3.9035,3.8956,3.9035,3.9193,3.9114,3.8956,3.8956,3.8798,3.856,3.856,3.8945,3.9258,3.9291,3.9263,3.9319,3.9528,3.9193,3.8956,3.8956,3.8956,3.8877,3.864,4.1774,4.4266,4.5434,4.7959,5.0123,5.1393,5.1198,5.1025,5.1211,5.1376,5.1709,5.2189,5.2189,5.2664,5.3683,5.3155,5.2973,5.3204,5.3589,5.3793,5.3997,5.4174,5.4443,5.4805,5.4805,5.4872,5.5099,5.5099,5.5099,5.5099,5.5099,5.5099,5.5099,4.289,4.3221,4.3511,4.3594,4.3615,4.3615,4.3615,4.3615,4.347,4.3097,4.2642,4.2384,4.2239,4.1731,4.1793,4.2621,4.3118,4.3242,4.2932,4.2766,4.2518,4.2145,4.169,4.1441,4.1441,4.1069,4.0924,4.0986,4.0448,4.0241,4.0323,3.9868,3.9592,3.9592,3.9592,3.9592,3.9682,4.0116,4.0572,4.1069,4.2,4.2642,4.3077,4.3394,4.331,4.2927,4.2467,4.1598,4.0588,4.0137,3.9981,3.9981,3.9981,3.9981,3.9902,3.9823,3.9588,3.9272,3.9193,3.8877,3.864,3.8719,3.8719,3.8719,3.8798,3.8719,3.856,3.856,3.8615,3.875,3.8829,3.9142,3.9449,3.944,3.9326,3.9419,3.9723,3.9565,3.9445,3.9524,3.9524,3.9366,3.8988,4.2712,4.5367,4.5843,4.8834,5.0982,5.1754,5.1249,5.1054,5.1216,5.1216,5.1647,5.2394,5.2419,5.3091,5.4369,5.3507,5.3305,5.3767,5.4082,5.4344,5.4511,5.4578,5.4805,5.5099,5.5099,5.5099,5.5099,5.5099,5.5099,5.5099,5.5099,5.5099,5.5099,4.2766,4.2973,4.3139,4.3532,4.3615,4.3615,4.3615,4.3615,4.3594,4.3532,4.3118,4.2538,4.1752,4.1255,4.1193,4.171,4.2166,4.258,4.289,4.2186,4.1731,4.1742,4.1214,4.0965,4.0965,4.0903,4.1069,4.1483,4.0634,4.0427,4.0779,4.0344,4.0137,4.0137,4.0137,4.0137,4.0158,4.0593,4.1048,4.1545,4.2456,4.3097,4.3456,4.3213,4.3004,4.2927,4.2159,4.154,4.1016,4.0588,4.0431,4.0431,4.0431,4.0216,3.9823,3.9509,3.9351,3.9193,3.8798,3.864,3.8719,3.9114,3.9193,3.9272,3.9666,3.9114,3.856,3.856,3.8915,3.9233,3.9634,4.0049,4.0198,3.985,3.9831,3.972,3.9407,3.965,3.9954,4.0273,4.0353,4.0273,4.0273,4.0868,4.2882,4.694,4.729,4.8945,5.2664,5.2355,5.1922,5.1465,5.1441,5.1561,5.1633,5.1633,5.2473,5.4063,5.3768,5.3955,5.4697,5.5082,5.4935,5.4511,5.4872,5.5032,5.5099,5.5099,5.5099,5.5099,5.5099,5.5099,5.5099,5.5099,5.5099,5.5099,4.2042,4.258,4.2994,4.318,4.3449,4.3615,4.3615,4.3615,4.3615,4.3615,4.2994,4.2393,4.2,4.1545,4.1338,4.1545,4.2053,4.2228,4.2166,4.2042,4.1835,4.1586,4.1607,4.1648,4.1648,4.1648,4.1876,4.2331,4.1151,4.082,4.1255,4.08,4.0593,4.0593,4.0593,4.0593,4.0613,4.1069,4.1524,4.2,4.2663,4.305,4.3233,4.3081,4.2697,4.2236,4.1715,4.1327,4.1172,4.0919,4.0919,4.0919,4.0919,4.0763,4.0529,4.0118,3.9823,3.9588,3.9351,3.9193,3.917,3.979,4.0005,4.0062,4.0546,4.0363,3.9968,3.9743,4.0024,4.0384,4.0626,4.0965,4.1103,4.0683,4.0825,4.082,4.0417,4.0315,4.0193,4.0205,4.0186,4.0088,3.9851,4.1341,4.3001,4.4753,4.7146,4.9238,5.1068,5.1866,5.2043,5.1513,5.1778,5.2139,5.2548,5.2572,5.356,5.5416,5.493,5.4916,5.5186,5.5216,5.5065,5.4872,5.5032,5.5099,5.5099,5.5099,5.5099,5.5099,5.5099,5.5099,5.5099,5.5099,5.5099,5.5099]}]]